<?xml version="1.0" encoding="UTF-8" standalone="no" ?>
<gpx xmlns="http://www.topografix.com/GPX/1/1" xmlns:xsi="http://www.w3.org/2001/XMLSchema-instance" xsi:schemaLocation="http://www.topografix.com/GPX/1/1 http://www.topografix.com/GPX/1/1/gpx.xsd" version="1.1" creator="VisuGPX - https://www.visugpx.com">
  <metadata>
    <name>Rivedoux-Plage </name>
  </metadata>
  <trk>
    <name><![CDATA[Rivedoux-Plage _1]]></name>
    <trkseg>
      <trkpt lat="46.16372" lon="-1.28089">
        <ele>2.4</ele>
        <time>2025-07-02T08:46:55Z</time>
      </trkpt>
      <trkpt lat="46.16372" lon="-1.28089">
        <ele>2.4</ele>
        <time>2025-07-02T08:46:56Z</time>
      </trkpt>
      <trkpt lat="46.16374" lon="-1.28098">
        <ele>1.6</ele>
        <time>2025-07-02T08:47:01Z</time>
      </trkpt>
      <trkpt lat="46.16375" lon="-1.28102">
        <ele>1.2</ele>
        <time>2025-07-02T08:47:03Z</time>
      </trkpt>
      <trkpt lat="46.1638" lon="-1.28107">
        <ele>1.4</ele>
        <time>2025-07-02T08:47:08Z</time>
      </trkpt>
      <trkpt lat="46.16387" lon="-1.28114">
        <ele>1.2</ele>
        <time>2025-07-02T08:47:15Z</time>
      </trkpt>
      <trkpt lat="46.16392" lon="-1.28122">
        <ele>1</ele>
        <time>2025-07-02T08:47:21Z</time>
      </trkpt>
      <trkpt lat="46.16405" lon="-1.28134">
        <ele>1.4</ele>
        <time>2025-07-02T08:47:33Z</time>
      </trkpt>
      <trkpt lat="46.16416" lon="-1.28144">
        <ele>1.4</ele>
        <time>2025-07-02T08:47:43Z</time>
      </trkpt>
      <trkpt lat="46.16427" lon="-1.28154">
        <ele>1.4</ele>
        <time>2025-07-02T08:47:53Z</time>
      </trkpt>
      <trkpt lat="46.16432" lon="-1.28162">
        <ele>1.4</ele>
        <time>2025-07-02T08:47:59Z</time>
      </trkpt>
      <trkpt lat="46.16441" lon="-1.28169">
        <ele>1.8</ele>
        <time>2025-07-02T08:48:06Z</time>
      </trkpt>
      <trkpt lat="46.16453" lon="-1.28168">
        <ele>1.8</ele>
        <time>2025-07-02T08:48:15Z</time>
      </trkpt>
      <trkpt lat="46.16465" lon="-1.28158">
        <ele>1.8</ele>
        <time>2025-07-02T08:48:25Z</time>
      </trkpt>
      <trkpt lat="46.16472" lon="-1.28156">
        <ele>1.8</ele>
        <time>2025-07-02T08:48:31Z</time>
      </trkpt>
      <trkpt lat="46.16473" lon="-1.28158">
        <ele>1.8</ele>
        <time>2025-07-02T08:48:33Z</time>
      </trkpt>
      <trkpt lat="46.16474" lon="-1.28159">
        <ele>1.8</ele>
        <time>2025-07-02T08:48:34Z</time>
      </trkpt>
      <trkpt lat="46.16475" lon="-1.28159">
        <ele>2</ele>
        <time>2025-07-02T08:48:38Z</time>
      </trkpt>
      <trkpt lat="46.1648" lon="-1.28163">
        <ele>2</ele>
        <time>2025-07-02T08:48:46Z</time>
      </trkpt>
      <trkpt lat="46.16485" lon="-1.28164">
        <ele>2</ele>
        <time>2025-07-02T08:48:54Z</time>
      </trkpt>
      <trkpt lat="46.1649" lon="-1.28167">
        <ele>2.4</ele>
        <time>2025-07-02T08:49:00Z</time>
      </trkpt>
      <trkpt lat="46.16494" lon="-1.28169">
        <ele>2.6</ele>
        <time>2025-07-02T08:49:05Z</time>
      </trkpt>
      <trkpt lat="46.16498" lon="-1.28169">
        <ele>2.2</ele>
        <time>2025-07-02T08:49:09Z</time>
      </trkpt>
      <trkpt lat="46.16498" lon="-1.28167">
        <ele>2</ele>
        <time>2025-07-02T08:49:16Z</time>
      </trkpt>
      <trkpt lat="46.16503" lon="-1.2817">
        <ele>2.2</ele>
        <time>2025-07-02T08:49:22Z</time>
      </trkpt>
      <trkpt lat="46.16504" lon="-1.2817">
        <ele>2.2</ele>
        <time>2025-07-02T08:49:23Z</time>
      </trkpt>
      <trkpt lat="46.16514" lon="-1.28172">
        <ele>2.4</ele>
        <time>2025-07-02T08:49:30Z</time>
      </trkpt>
      <trkpt lat="46.16526" lon="-1.28172">
        <ele>2.4</ele>
        <time>2025-07-02T08:49:39Z</time>
      </trkpt>
      <trkpt lat="46.16534" lon="-1.28172">
        <ele>2.2</ele>
        <time>2025-07-02T08:49:44Z</time>
      </trkpt>
      <trkpt lat="46.16539" lon="-1.28173">
        <ele>2.2</ele>
        <time>2025-07-02T08:49:48Z</time>
      </trkpt>
      <trkpt lat="46.16542" lon="-1.28174">
        <ele>2.2</ele>
        <time>2025-07-02T08:49:51Z</time>
      </trkpt>
      <trkpt lat="46.16554" lon="-1.28175">
        <ele>2.8</ele>
        <time>2025-07-02T08:50:00Z</time>
      </trkpt>
      <trkpt lat="46.16567" lon="-1.28174">
        <ele>3</ele>
        <time>2025-07-02T08:50:11Z</time>
      </trkpt>
      <trkpt lat="46.16571" lon="-1.28175">
        <ele>2.8</ele>
        <time>2025-07-02T08:50:14Z</time>
      </trkpt>
      <trkpt lat="46.16579" lon="-1.28176">
        <ele>2.8</ele>
        <time>2025-07-02T08:50:19Z</time>
      </trkpt>
      <trkpt lat="46.16586" lon="-1.28177">
        <ele>2.8</ele>
        <time>2025-07-02T08:50:25Z</time>
      </trkpt>
      <trkpt lat="46.16597" lon="-1.28179">
        <ele>2.8</ele>
        <time>2025-07-02T08:50:33Z</time>
      </trkpt>
      <trkpt lat="46.16598" lon="-1.28179">
        <ele>2.8</ele>
        <time>2025-07-02T08:50:34Z</time>
      </trkpt>
      <trkpt lat="46.16609" lon="-1.28185">
        <ele>3</ele>
        <time>2025-07-02T08:50:44Z</time>
      </trkpt>
      <trkpt lat="46.16618" lon="-1.28189">
        <ele>3</ele>
        <time>2025-07-02T08:50:50Z</time>
      </trkpt>
      <trkpt lat="46.16622" lon="-1.28192">
        <ele>3.2</ele>
        <time>2025-07-02T08:50:53Z</time>
      </trkpt>
      <trkpt lat="46.16626" lon="-1.28197">
        <ele>3.4</ele>
        <time>2025-07-02T08:50:58Z</time>
      </trkpt>
      <trkpt lat="46.16631" lon="-1.282">
        <ele>3.6</ele>
        <time>2025-07-02T08:51:03Z</time>
      </trkpt>
      <trkpt lat="46.16642" lon="-1.28208">
        <ele>3.6</ele>
        <time>2025-07-02T08:51:12Z</time>
      </trkpt>
      <trkpt lat="46.16653" lon="-1.28216">
        <ele>3.6</ele>
        <time>2025-07-02T08:51:22Z</time>
      </trkpt>
      <trkpt lat="46.16663" lon="-1.28225">
        <ele>3.4</ele>
        <time>2025-07-02T08:51:31Z</time>
      </trkpt>
      <trkpt lat="46.16671" lon="-1.28233">
        <ele>3.6</ele>
        <time>2025-07-02T08:51:38Z</time>
      </trkpt>
      <trkpt lat="46.16673" lon="-1.28234">
        <ele>3.8</ele>
        <time>2025-07-02T08:51:40Z</time>
      </trkpt>
      <trkpt lat="46.16681" lon="-1.28242">
        <ele>3.8</ele>
        <time>2025-07-02T08:51:47Z</time>
      </trkpt>
      <trkpt lat="46.16696" lon="-1.28256">
        <ele>3.8</ele>
        <time>2025-07-02T08:52:00Z</time>
      </trkpt>
      <trkpt lat="46.16708" lon="-1.28266">
        <ele>3.8</ele>
        <time>2025-07-02T08:52:10Z</time>
      </trkpt>
      <trkpt lat="46.1671" lon="-1.28267">
        <ele>4</ele>
        <time>2025-07-02T08:52:11Z</time>
      </trkpt>
      <trkpt lat="46.16718" lon="-1.28273">
        <ele>4</ele>
        <time>2025-07-02T08:52:19Z</time>
      </trkpt>
      <trkpt lat="46.16728" lon="-1.28281">
        <ele>3.8</ele>
        <time>2025-07-02T08:52:28Z</time>
      </trkpt>
      <trkpt lat="46.16739" lon="-1.28288">
        <ele>4</ele>
        <time>2025-07-02T08:52:37Z</time>
      </trkpt>
      <trkpt lat="46.16741" lon="-1.28291">
        <ele>4.2</ele>
        <time>2025-07-02T08:52:40Z</time>
      </trkpt>
      <trkpt lat="46.16748" lon="-1.28294">
        <ele>4.2</ele>
        <time>2025-07-02T08:52:45Z</time>
      </trkpt>
      <trkpt lat="46.1675" lon="-1.28295">
        <ele>4.4</ele>
        <time>2025-07-02T08:52:47Z</time>
      </trkpt>
      <trkpt lat="46.16762" lon="-1.283">
        <ele>4.6</ele>
        <time>2025-07-02T08:52:56Z</time>
      </trkpt>
      <trkpt lat="46.16775" lon="-1.28307">
        <ele>4.4</ele>
        <time>2025-07-02T08:53:06Z</time>
      </trkpt>
      <trkpt lat="46.16787" lon="-1.28312">
        <ele>5</ele>
        <time>2025-07-02T08:53:15Z</time>
      </trkpt>
      <trkpt lat="46.16789" lon="-1.28313">
        <ele>4.8</ele>
        <time>2025-07-02T08:53:16Z</time>
      </trkpt>
      <trkpt lat="46.16798" lon="-1.28315">
        <ele>4.4</ele>
        <time>2025-07-02T08:53:23Z</time>
      </trkpt>
      <trkpt lat="46.16802" lon="-1.28317">
        <ele>4.4</ele>
        <time>2025-07-02T08:53:26Z</time>
      </trkpt>
      <trkpt lat="46.1681" lon="-1.28318">
        <ele>4.6</ele>
        <time>2025-07-02T08:53:32Z</time>
      </trkpt>
      <trkpt lat="46.16825" lon="-1.28316">
        <ele>4.6</ele>
        <time>2025-07-02T08:53:43Z</time>
      </trkpt>
      <trkpt lat="46.16827" lon="-1.28316">
        <ele>4.6</ele>
        <time>2025-07-02T08:53:44Z</time>
      </trkpt>
      <trkpt lat="46.16829" lon="-1.28316">
        <ele>4.6</ele>
        <time>2025-07-02T08:53:46Z</time>
      </trkpt>
      <trkpt lat="46.16839" lon="-1.28313">
        <ele>4.6</ele>
        <time>2025-07-02T08:53:54Z</time>
      </trkpt>
      <trkpt lat="46.1684" lon="-1.28313">
        <ele>4.6</ele>
        <time>2025-07-02T08:53:55Z</time>
      </trkpt>
      <trkpt lat="46.16849" lon="-1.2831">
        <ele>4.6</ele>
        <time>2025-07-02T08:54:02Z</time>
      </trkpt>
      <trkpt lat="46.16866" lon="-1.28303">
        <ele>4.8</ele>
        <time>2025-07-02T08:54:15Z</time>
      </trkpt>
      <trkpt lat="46.16875" lon="-1.28297">
        <ele>4.8</ele>
        <time>2025-07-02T08:54:24Z</time>
      </trkpt>
      <trkpt lat="46.16876" lon="-1.28296">
        <ele>5</ele>
        <time>2025-07-02T08:54:26Z</time>
      </trkpt>
      <trkpt lat="46.16877" lon="-1.28295">
        <ele>5</ele>
        <time>2025-07-02T08:54:28Z</time>
      </trkpt>
      <trkpt lat="46.16878" lon="-1.28295">
        <ele>5</ele>
        <time>2025-07-02T08:54:29Z</time>
      </trkpt>
      <trkpt lat="46.16885" lon="-1.28291">
        <ele>5.4</ele>
        <time>2025-07-02T08:54:40Z</time>
      </trkpt>
      <trkpt lat="46.16886" lon="-1.28294">
        <ele>5.2</ele>
        <time>2025-07-02T08:54:44Z</time>
      </trkpt>
      <trkpt lat="46.16885" lon="-1.28295">
        <ele>5</ele>
        <time>2025-07-02T08:54:47Z</time>
      </trkpt>
      <trkpt lat="46.16885" lon="-1.28295">
        <ele>5</ele>
        <time>2025-07-02T08:54:52Z</time>
      </trkpt>
      <trkpt lat="46.16885" lon="-1.28295">
        <ele>5</ele>
        <time>2025-07-02T08:54:53Z</time>
      </trkpt>
      <trkpt lat="46.16885" lon="-1.28295">
        <ele>5</ele>
        <time>2025-07-02T08:54:55Z</time>
      </trkpt>
      <trkpt lat="46.16885" lon="-1.28294">
        <ele>5</ele>
        <time>2025-07-02T08:55:03Z</time>
      </trkpt>
      <trkpt lat="46.16886" lon="-1.28297">
        <ele>5.2</ele>
        <time>2025-07-02T08:55:10Z</time>
      </trkpt>
      <trkpt lat="46.16885" lon="-1.28299">
        <ele>5.2</ele>
        <time>2025-07-02T08:55:12Z</time>
      </trkpt>
      <trkpt lat="46.1688" lon="-1.28306">
        <ele>5.2</ele>
        <time>2025-07-02T08:55:20Z</time>
      </trkpt>
      <trkpt lat="46.16878" lon="-1.28306">
        <ele>5.4</ele>
        <time>2025-07-02T08:55:27Z</time>
      </trkpt>
      <trkpt lat="46.16878" lon="-1.28306">
        <ele>5.4</ele>
        <time>2025-07-02T08:55:28Z</time>
      </trkpt>
      <trkpt lat="46.16878" lon="-1.28306">
        <ele>5.8</ele>
        <time>2025-07-02T08:55:33Z</time>
      </trkpt>
      <trkpt lat="46.16881" lon="-1.28313">
        <ele>5.6</ele>
        <time>2025-07-02T08:55:40Z</time>
      </trkpt>
      <trkpt lat="46.16883" lon="-1.28324">
        <ele>5</ele>
        <time>2025-07-02T08:55:46Z</time>
      </trkpt>
      <trkpt lat="46.16885" lon="-1.28332">
        <ele>5</ele>
        <time>2025-07-02T08:55:50Z</time>
      </trkpt>
      <trkpt lat="46.16886" lon="-1.28335">
        <ele>5.2</ele>
        <time>2025-07-02T08:55:52Z</time>
      </trkpt>
      <trkpt lat="46.16889" lon="-1.28345">
        <ele>4.8</ele>
        <time>2025-07-02T08:55:57Z</time>
      </trkpt>
      <trkpt lat="46.1689" lon="-1.28348">
        <ele>4.8</ele>
        <time>2025-07-02T08:55:58Z</time>
      </trkpt>
      <trkpt lat="46.16894" lon="-1.28362">
        <ele>5</ele>
        <time>2025-07-02T08:56:06Z</time>
      </trkpt>
      <trkpt lat="46.16897" lon="-1.28375">
        <ele>5</ele>
        <time>2025-07-02T08:56:13Z</time>
      </trkpt>
      <trkpt lat="46.16899" lon="-1.28378">
        <ele>5</ele>
        <time>2025-07-02T08:56:15Z</time>
      </trkpt>
      <trkpt lat="46.16902" lon="-1.28394">
        <ele>5</ele>
        <time>2025-07-02T08:56:24Z</time>
      </trkpt>
      <trkpt lat="46.16909" lon="-1.28411">
        <ele>4.6</ele>
        <time>2025-07-02T08:56:33Z</time>
      </trkpt>
      <trkpt lat="46.1691" lon="-1.28413">
        <ele>4.8</ele>
        <time>2025-07-02T08:56:34Z</time>
      </trkpt>
      <trkpt lat="46.16913" lon="-1.28421">
        <ele>4.4</ele>
        <time>2025-07-02T08:56:39Z</time>
      </trkpt>
      <trkpt lat="46.16922" lon="-1.28444">
        <ele>4.8</ele>
        <time>2025-07-02T08:56:52Z</time>
      </trkpt>
      <trkpt lat="46.1693" lon="-1.28463">
        <ele>4.8</ele>
        <time>2025-07-02T08:57:03Z</time>
      </trkpt>
      <trkpt lat="46.16935" lon="-1.28477">
        <ele>4.6</ele>
        <time>2025-07-02T08:57:11Z</time>
      </trkpt>
      <trkpt lat="46.16943" lon="-1.28497">
        <ele>4.8</ele>
        <time>2025-07-02T08:57:22Z</time>
      </trkpt>
      <trkpt lat="46.16945" lon="-1.28503">
        <ele>4.4</ele>
        <time>2025-07-02T08:57:25Z</time>
      </trkpt>
      <trkpt lat="46.16952" lon="-1.28517">
        <ele>4.8</ele>
        <time>2025-07-02T08:57:33Z</time>
      </trkpt>
      <trkpt lat="46.16958" lon="-1.28531">
        <ele>4.8</ele>
        <time>2025-07-02T08:57:41Z</time>
      </trkpt>
      <trkpt lat="46.16961" lon="-1.28543">
        <ele>4.6</ele>
        <time>2025-07-02T08:57:47Z</time>
      </trkpt>
      <trkpt lat="46.16962" lon="-1.28548">
        <ele>4.6</ele>
        <time>2025-07-02T08:57:49Z</time>
      </trkpt>
      <trkpt lat="46.16963" lon="-1.28552">
        <ele>4.8</ele>
        <time>2025-07-02T08:57:51Z</time>
      </trkpt>
      <trkpt lat="46.16965" lon="-1.28565">
        <ele>4.8</ele>
        <time>2025-07-02T08:57:58Z</time>
      </trkpt>
      <trkpt lat="46.16965" lon="-1.28567">
        <ele>4.8</ele>
        <time>2025-07-02T08:57:59Z</time>
      </trkpt>
      <trkpt lat="46.16966" lon="-1.28584">
        <ele>5</ele>
        <time>2025-07-02T08:58:07Z</time>
      </trkpt>
      <trkpt lat="46.16967" lon="-1.28592">
        <ele>5</ele>
        <time>2025-07-02T08:58:11Z</time>
      </trkpt>
      <trkpt lat="46.16969" lon="-1.28599">
        <ele>4.8</ele>
        <time>2025-07-02T08:58:15Z</time>
      </trkpt>
      <trkpt lat="46.1697" lon="-1.28612">
        <ele>4.8</ele>
        <time>2025-07-02T08:58:22Z</time>
      </trkpt>
      <trkpt lat="46.16971" lon="-1.28614">
        <ele>4.8</ele>
        <time>2025-07-02T08:58:23Z</time>
      </trkpt>
      <trkpt lat="46.16972" lon="-1.28625">
        <ele>4.8</ele>
        <time>2025-07-02T08:58:28Z</time>
      </trkpt>
      <trkpt lat="46.16971" lon="-1.28627">
        <ele>4.8</ele>
        <time>2025-07-02T08:58:29Z</time>
      </trkpt>
      <trkpt lat="46.16972" lon="-1.28635">
        <ele>4.8</ele>
        <time>2025-07-02T08:58:33Z</time>
      </trkpt>
      <trkpt lat="46.16979" lon="-1.28647">
        <ele>4.8</ele>
        <time>2025-07-02T08:58:41Z</time>
      </trkpt>
      <trkpt lat="46.1698" lon="-1.28648">
        <ele>4.8</ele>
        <time>2025-07-02T08:58:42Z</time>
      </trkpt>
      <trkpt lat="46.16984" lon="-1.28655">
        <ele>4.8</ele>
        <time>2025-07-02T08:58:46Z</time>
      </trkpt>
      <trkpt lat="46.16992" lon="-1.28663">
        <ele>5</ele>
        <time>2025-07-02T08:58:52Z</time>
      </trkpt>
      <trkpt lat="46.16995" lon="-1.28667">
        <ele>5.2</ele>
        <time>2025-07-02T08:58:55Z</time>
      </trkpt>
      <trkpt lat="46.17" lon="-1.28678">
        <ele>5</ele>
        <time>2025-07-02T08:59:02Z</time>
      </trkpt>
      <trkpt lat="46.17012" lon="-1.28695">
        <ele>5.4</ele>
        <time>2025-07-02T08:59:13Z</time>
      </trkpt>
      <trkpt lat="46.17013" lon="-1.28697">
        <ele>5.4</ele>
        <time>2025-07-02T08:59:14Z</time>
      </trkpt>
      <trkpt lat="46.17013" lon="-1.28702">
        <ele>5.4</ele>
        <time>2025-07-02T08:59:17Z</time>
      </trkpt>
      <trkpt lat="46.17014" lon="-1.28703">
        <ele>5.4</ele>
        <time>2025-07-02T08:59:18Z</time>
      </trkpt>
      <trkpt lat="46.17019" lon="-1.28716">
        <ele>5.4</ele>
        <time>2025-07-02T08:59:25Z</time>
      </trkpt>
      <trkpt lat="46.17024" lon="-1.28732">
        <ele>5.4</ele>
        <time>2025-07-02T08:59:34Z</time>
      </trkpt>
      <trkpt lat="46.17027" lon="-1.28744">
        <ele>5.6</ele>
        <time>2025-07-02T08:59:40Z</time>
      </trkpt>
      <trkpt lat="46.17031" lon="-1.28761">
        <ele>5.8</ele>
        <time>2025-07-02T08:59:49Z</time>
      </trkpt>
      <trkpt lat="46.17031" lon="-1.28763">
        <ele>5.8</ele>
        <time>2025-07-02T08:59:50Z</time>
      </trkpt>
      <trkpt lat="46.17034" lon="-1.28773">
        <ele>5.6</ele>
        <time>2025-07-02T08:59:56Z</time>
      </trkpt>
      <trkpt lat="46.17034" lon="-1.28785">
        <ele>6</ele>
        <time>2025-07-02T09:00:02Z</time>
      </trkpt>
      <trkpt lat="46.17035" lon="-1.28797">
        <ele>5.8</ele>
        <time>2025-07-02T09:00:08Z</time>
      </trkpt>
      <trkpt lat="46.17035" lon="-1.28799">
        <ele>5.8</ele>
        <time>2025-07-02T09:00:09Z</time>
      </trkpt>
      <trkpt lat="46.17036" lon="-1.28805">
        <ele>5.8</ele>
        <time>2025-07-02T09:00:12Z</time>
      </trkpt>
      <trkpt lat="46.17036" lon="-1.28811">
        <ele>6</ele>
        <time>2025-07-02T09:00:15Z</time>
      </trkpt>
      <trkpt lat="46.17036" lon="-1.28816">
        <ele>6</ele>
        <time>2025-07-02T09:00:17Z</time>
      </trkpt>
      <trkpt lat="46.17037" lon="-1.2882">
        <ele>6.2</ele>
        <time>2025-07-02T09:00:19Z</time>
      </trkpt>
      <trkpt lat="46.17037" lon="-1.28822">
        <ele>6.2</ele>
        <time>2025-07-02T09:00:20Z</time>
      </trkpt>
      <trkpt lat="46.17037" lon="-1.28829">
        <ele>6.2</ele>
        <time>2025-07-02T09:00:24Z</time>
      </trkpt>
      <trkpt lat="46.17038" lon="-1.28835">
        <ele>6</ele>
        <time>2025-07-02T09:00:27Z</time>
      </trkpt>
      <trkpt lat="46.17041" lon="-1.28838">
        <ele>6</ele>
        <time>2025-07-02T09:00:29Z</time>
      </trkpt>
      <trkpt lat="46.17043" lon="-1.28841">
        <ele>5.8</ele>
        <time>2025-07-02T09:00:31Z</time>
      </trkpt>
      <trkpt lat="46.17042" lon="-1.28846">
        <ele>5.8</ele>
        <time>2025-07-02T09:00:33Z</time>
      </trkpt>
      <trkpt lat="46.17043" lon="-1.28863">
        <ele>6</ele>
        <time>2025-07-02T09:00:41Z</time>
      </trkpt>
      <trkpt lat="46.17048" lon="-1.28877">
        <ele>6.2</ele>
        <time>2025-07-02T09:00:48Z</time>
      </trkpt>
      <trkpt lat="46.17051" lon="-1.28889">
        <ele>6.2</ele>
        <time>2025-07-02T09:00:55Z</time>
      </trkpt>
      <trkpt lat="46.17054" lon="-1.2889">
        <ele>6.2</ele>
        <time>2025-07-02T09:01:00Z</time>
      </trkpt>
      <trkpt lat="46.17056" lon="-1.2889">
        <ele>6.6</ele>
        <time>2025-07-02T09:01:02Z</time>
      </trkpt>
      <trkpt lat="46.17061" lon="-1.28891">
        <ele>6.6</ele>
        <time>2025-07-02T09:01:05Z</time>
      </trkpt>
      <trkpt lat="46.17068" lon="-1.28891">
        <ele>7.4</ele>
        <time>2025-07-02T09:01:11Z</time>
      </trkpt>
      <trkpt lat="46.17069" lon="-1.28889">
        <ele>7.6</ele>
        <time>2025-07-02T09:01:12Z</time>
      </trkpt>
      <trkpt lat="46.17072" lon="-1.28887">
        <ele>7.6</ele>
        <time>2025-07-02T09:01:14Z</time>
      </trkpt>
      <trkpt lat="46.17076" lon="-1.28888">
        <ele>7.8</ele>
        <time>2025-07-02T09:01:16Z</time>
      </trkpt>
      <trkpt lat="46.17085" lon="-1.28888">
        <ele>8.2</ele>
        <time>2025-07-02T09:01:23Z</time>
      </trkpt>
      <trkpt lat="46.17093" lon="-1.2889">
        <ele>8.6</ele>
        <time>2025-07-02T09:01:29Z</time>
      </trkpt>
      <trkpt lat="46.17096" lon="-1.2889">
        <ele>9</ele>
        <time>2025-07-02T09:01:31Z</time>
      </trkpt>
      <trkpt lat="46.17106" lon="-1.28892">
        <ele>9.2</ele>
        <time>2025-07-02T09:01:38Z</time>
      </trkpt>
      <trkpt lat="46.17109" lon="-1.28892">
        <ele>9.2</ele>
        <time>2025-07-02T09:01:41Z</time>
      </trkpt>
      <trkpt lat="46.1711" lon="-1.28893">
        <ele>9.2</ele>
        <time>2025-07-02T09:01:42Z</time>
      </trkpt>
      <trkpt lat="46.17112" lon="-1.28894">
        <ele>9.2</ele>
        <time>2025-07-02T09:01:44Z</time>
      </trkpt>
      <trkpt lat="46.17113" lon="-1.28894">
        <ele>9.2</ele>
        <time>2025-07-02T09:01:46Z</time>
      </trkpt>
      <trkpt lat="46.17119" lon="-1.28895">
        <ele>9.2</ele>
        <time>2025-07-02T09:01:49Z</time>
      </trkpt>
      <trkpt lat="46.1712" lon="-1.28895">
        <ele>9.2</ele>
        <time>2025-07-02T09:01:50Z</time>
      </trkpt>
      <trkpt lat="46.17125" lon="-1.28896">
        <ele>9.2</ele>
        <time>2025-07-02T09:01:56Z</time>
      </trkpt>
      <trkpt lat="46.17133" lon="-1.28897">
        <ele>9.2</ele>
        <time>2025-07-02T09:02:02Z</time>
      </trkpt>
      <trkpt lat="46.1714" lon="-1.28898">
        <ele>9.2</ele>
        <time>2025-07-02T09:02:05Z</time>
      </trkpt>
      <trkpt lat="46.17141" lon="-1.28898">
        <ele>9.2</ele>
        <time>2025-07-02T09:02:06Z</time>
      </trkpt>
      <trkpt lat="46.17144" lon="-1.28897">
        <ele>9.2</ele>
        <time>2025-07-02T09:02:08Z</time>
      </trkpt>
      <trkpt lat="46.17148" lon="-1.28897">
        <ele>9.2</ele>
        <time>2025-07-02T09:02:12Z</time>
      </trkpt>
      <trkpt lat="46.17153" lon="-1.28899">
        <ele>9.6</ele>
        <time>2025-07-02T09:02:18Z</time>
      </trkpt>
      <trkpt lat="46.17158" lon="-1.28897">
        <ele>9.6</ele>
        <time>2025-07-02T09:02:21Z</time>
      </trkpt>
      <trkpt lat="46.17161" lon="-1.28895">
        <ele>9.6</ele>
        <time>2025-07-02T09:02:23Z</time>
      </trkpt>
      <trkpt lat="46.17168" lon="-1.28892">
        <ele>10</ele>
        <time>2025-07-02T09:02:29Z</time>
      </trkpt>
      <trkpt lat="46.17169" lon="-1.28892">
        <ele>10</ele>
        <time>2025-07-02T09:02:30Z</time>
      </trkpt>
      <trkpt lat="46.17174" lon="-1.28894">
        <ele>9.8</ele>
        <time>2025-07-02T09:02:35Z</time>
      </trkpt>
      <trkpt lat="46.17177" lon="-1.28894">
        <ele>9.8</ele>
        <time>2025-07-02T09:02:37Z</time>
      </trkpt>
      <trkpt lat="46.17181" lon="-1.28893">
        <ele>10</ele>
        <time>2025-07-02T09:02:40Z</time>
      </trkpt>
      <trkpt lat="46.17186" lon="-1.28891">
        <ele>10.2</ele>
        <time>2025-07-02T09:02:44Z</time>
      </trkpt>
      <trkpt lat="46.17188" lon="-1.2889">
        <ele>10.2</ele>
        <time>2025-07-02T09:02:46Z</time>
      </trkpt>
      <trkpt lat="46.172" lon="-1.28891">
        <ele>10.2</ele>
        <time>2025-07-02T09:02:55Z</time>
      </trkpt>
      <trkpt lat="46.17203" lon="-1.28895">
        <ele>10</ele>
        <time>2025-07-02T09:02:58Z</time>
      </trkpt>
      <trkpt lat="46.17205" lon="-1.28897">
        <ele>10</ele>
        <time>2025-07-02T09:03:00Z</time>
      </trkpt>
      <trkpt lat="46.17214" lon="-1.28907">
        <ele>10.4</ele>
        <time>2025-07-02T09:03:08Z</time>
      </trkpt>
      <trkpt lat="46.17224" lon="-1.28916">
        <ele>10.2</ele>
        <time>2025-07-02T09:03:16Z</time>
      </trkpt>
      <trkpt lat="46.17225" lon="-1.28917">
        <ele>10.4</ele>
        <time>2025-07-02T09:03:17Z</time>
      </trkpt>
      <trkpt lat="46.17232" lon="-1.28922">
        <ele>10.6</ele>
        <time>2025-07-02T09:03:22Z</time>
      </trkpt>
      <trkpt lat="46.17244" lon="-1.2893">
        <ele>10.2</ele>
        <time>2025-07-02T09:03:31Z</time>
      </trkpt>
      <trkpt lat="46.17255" lon="-1.28934">
        <ele>10.2</ele>
        <time>2025-07-02T09:03:39Z</time>
      </trkpt>
      <trkpt lat="46.17261" lon="-1.2894">
        <ele>10.2</ele>
        <time>2025-07-02T09:03:45Z</time>
      </trkpt>
      <trkpt lat="46.17262" lon="-1.28942">
        <ele>10.2</ele>
        <time>2025-07-02T09:03:46Z</time>
      </trkpt>
      <trkpt lat="46.17264" lon="-1.28943">
        <ele>10.2</ele>
        <time>2025-07-02T09:03:47Z</time>
      </trkpt>
      <trkpt lat="46.17267" lon="-1.28949">
        <ele>10.2</ele>
        <time>2025-07-02T09:03:51Z</time>
      </trkpt>
      <trkpt lat="46.17276" lon="-1.2896">
        <ele>10</ele>
        <time>2025-07-02T09:04:00Z</time>
      </trkpt>
      <trkpt lat="46.17286" lon="-1.28972">
        <ele>10.2</ele>
        <time>2025-07-02T09:04:10Z</time>
      </trkpt>
      <trkpt lat="46.17293" lon="-1.28982">
        <ele>10</ele>
        <time>2025-07-02T09:04:17Z</time>
      </trkpt>
      <trkpt lat="46.17295" lon="-1.28983">
        <ele>10</ele>
        <time>2025-07-02T09:04:19Z</time>
      </trkpt>
      <trkpt lat="46.17302" lon="-1.28989">
        <ele>9.8</ele>
        <time>2025-07-02T09:04:25Z</time>
      </trkpt>
      <trkpt lat="46.17303" lon="-1.2899">
        <ele>10</ele>
        <time>2025-07-02T09:04:26Z</time>
      </trkpt>
      <trkpt lat="46.17313" lon="-1.29001">
        <ele>10.2</ele>
        <time>2025-07-02T09:04:36Z</time>
      </trkpt>
      <trkpt lat="46.1733" lon="-1.29008">
        <ele>10.4</ele>
        <time>2025-07-02T09:04:49Z</time>
      </trkpt>
      <trkpt lat="46.1734" lon="-1.29009">
        <ele>10.6</ele>
        <time>2025-07-02T09:04:58Z</time>
      </trkpt>
      <trkpt lat="46.17346" lon="-1.2901">
        <ele>10.6</ele>
        <time>2025-07-02T09:05:02Z</time>
      </trkpt>
      <trkpt lat="46.1735" lon="-1.29012">
        <ele>10.6</ele>
        <time>2025-07-02T09:05:06Z</time>
      </trkpt>
      <trkpt lat="46.17351" lon="-1.29013">
        <ele>10.6</ele>
        <time>2025-07-02T09:05:07Z</time>
      </trkpt>
      <trkpt lat="46.17353" lon="-1.29017">
        <ele>10.6</ele>
        <time>2025-07-02T09:05:10Z</time>
      </trkpt>
      <trkpt lat="46.17356" lon="-1.2902">
        <ele>10.6</ele>
        <time>2025-07-02T09:05:13Z</time>
      </trkpt>
      <trkpt lat="46.17358" lon="-1.29024">
        <ele>10.6</ele>
        <time>2025-07-02T09:05:16Z</time>
      </trkpt>
      <trkpt lat="46.17363" lon="-1.29031">
        <ele>10.6</ele>
        <time>2025-07-02T09:05:20Z</time>
      </trkpt>
      <trkpt lat="46.17364" lon="-1.29033">
        <ele>10.6</ele>
        <time>2025-07-02T09:05:22Z</time>
      </trkpt>
      <trkpt lat="46.17364" lon="-1.29035">
        <ele>10.4</ele>
        <time>2025-07-02T09:05:23Z</time>
      </trkpt>
      <trkpt lat="46.17364" lon="-1.2904">
        <ele>10.4</ele>
        <time>2025-07-02T09:05:26Z</time>
      </trkpt>
      <trkpt lat="46.17364" lon="-1.29042">
        <ele>10.4</ele>
        <time>2025-07-02T09:05:27Z</time>
      </trkpt>
      <trkpt lat="46.17369" lon="-1.29058">
        <ele>10.4</ele>
        <time>2025-07-02T09:05:36Z</time>
      </trkpt>
      <trkpt lat="46.1738" lon="-1.2906">
        <ele>10.4</ele>
        <time>2025-07-02T09:05:45Z</time>
      </trkpt>
      <trkpt lat="46.17391" lon="-1.29065">
        <ele>10.4</ele>
        <time>2025-07-02T09:05:54Z</time>
      </trkpt>
      <trkpt lat="46.17401" lon="-1.29072">
        <ele>10.2</ele>
        <time>2025-07-02T09:06:02Z</time>
      </trkpt>
      <trkpt lat="46.17406" lon="-1.29069">
        <ele>10.2</ele>
        <time>2025-07-02T09:06:07Z</time>
      </trkpt>
      <trkpt lat="46.17407" lon="-1.29068">
        <ele>10.4</ele>
        <time>2025-07-02T09:06:08Z</time>
      </trkpt>
      <trkpt lat="46.17408" lon="-1.29067">
        <ele>10.4</ele>
        <time>2025-07-02T09:06:09Z</time>
      </trkpt>
      <trkpt lat="46.17415" lon="-1.2906">
        <ele>10.4</ele>
        <time>2025-07-02T09:06:18Z</time>
      </trkpt>
      <trkpt lat="46.17423" lon="-1.29056">
        <ele>10.4</ele>
        <time>2025-07-02T09:06:25Z</time>
      </trkpt>
      <trkpt lat="46.17433" lon="-1.29046">
        <ele>10.4</ele>
        <time>2025-07-02T09:06:34Z</time>
      </trkpt>
      <trkpt lat="46.17442" lon="-1.29042">
        <ele>10.2</ele>
        <time>2025-07-02T09:06:40Z</time>
      </trkpt>
      <trkpt lat="46.17444" lon="-1.29041">
        <ele>10.2</ele>
        <time>2025-07-02T09:06:42Z</time>
      </trkpt>
      <trkpt lat="46.1745" lon="-1.2904">
        <ele>10.2</ele>
        <time>2025-07-02T09:06:47Z</time>
      </trkpt>
      <trkpt lat="46.17452" lon="-1.2904">
        <ele>10.4</ele>
        <time>2025-07-02T09:06:49Z</time>
      </trkpt>
      <trkpt lat="46.17454" lon="-1.29042">
        <ele>10.4</ele>
        <time>2025-07-02T09:06:51Z</time>
      </trkpt>
      <trkpt lat="46.17455" lon="-1.29045">
        <ele>10.6</ele>
        <time>2025-07-02T09:06:53Z</time>
      </trkpt>
      <trkpt lat="46.17459" lon="-1.29048">
        <ele>10.6</ele>
        <time>2025-07-02T09:06:56Z</time>
      </trkpt>
      <trkpt lat="46.17463" lon="-1.29052">
        <ele>10.4</ele>
        <time>2025-07-02T09:07:00Z</time>
      </trkpt>
      <trkpt lat="46.17468" lon="-1.29055">
        <ele>10.4</ele>
        <time>2025-07-02T09:07:03Z</time>
      </trkpt>
      <trkpt lat="46.1747" lon="-1.29058">
        <ele>10.4</ele>
        <time>2025-07-02T09:07:06Z</time>
      </trkpt>
      <trkpt lat="46.17476" lon="-1.29058">
        <ele>10.4</ele>
        <time>2025-07-02T09:07:09Z</time>
      </trkpt>
      <trkpt lat="46.17478" lon="-1.29057">
        <ele>10.4</ele>
        <time>2025-07-02T09:07:11Z</time>
      </trkpt>
      <trkpt lat="46.1748" lon="-1.29054">
        <ele>10.4</ele>
        <time>2025-07-02T09:07:14Z</time>
      </trkpt>
      <trkpt lat="46.17482" lon="-1.29048">
        <ele>10.2</ele>
        <time>2025-07-02T09:07:19Z</time>
      </trkpt>
      <trkpt lat="46.17483" lon="-1.29047">
        <ele>10.2</ele>
        <time>2025-07-02T09:07:20Z</time>
      </trkpt>
      <trkpt lat="46.17482" lon="-1.29045">
        <ele>10.2</ele>
        <time>2025-07-02T09:07:21Z</time>
      </trkpt>
      <trkpt lat="46.17485" lon="-1.29041">
        <ele>10</ele>
        <time>2025-07-02T09:07:25Z</time>
      </trkpt>
      <trkpt lat="46.17495" lon="-1.29037">
        <ele>10.2</ele>
        <time>2025-07-02T09:07:32Z</time>
      </trkpt>
      <trkpt lat="46.175" lon="-1.29034">
        <ele>10.2</ele>
        <time>2025-07-02T09:07:35Z</time>
      </trkpt>
      <trkpt lat="46.17502" lon="-1.29034">
        <ele>10.2</ele>
        <time>2025-07-02T09:07:36Z</time>
      </trkpt>
      <trkpt lat="46.17504" lon="-1.29033">
        <ele>10.2</ele>
        <time>2025-07-02T09:07:37Z</time>
      </trkpt>
      <trkpt lat="46.17506" lon="-1.29033">
        <ele>10.4</ele>
        <time>2025-07-02T09:07:38Z</time>
      </trkpt>
      <trkpt lat="46.17511" lon="-1.29029">
        <ele>10.6</ele>
        <time>2025-07-02T09:07:42Z</time>
      </trkpt>
      <trkpt lat="46.17515" lon="-1.29027">
        <ele>10.6</ele>
        <time>2025-07-02T09:07:45Z</time>
      </trkpt>
      <trkpt lat="46.17521" lon="-1.29025">
        <ele>10.4</ele>
        <time>2025-07-02T09:07:49Z</time>
      </trkpt>
      <trkpt lat="46.1753" lon="-1.29021">
        <ele>10.6</ele>
        <time>2025-07-02T09:07:58Z</time>
      </trkpt>
      <trkpt lat="46.17539" lon="-1.29018">
        <ele>10.2</ele>
        <time>2025-07-02T09:08:04Z</time>
      </trkpt>
      <trkpt lat="46.17542" lon="-1.29016">
        <ele>10.4</ele>
        <time>2025-07-02T09:08:07Z</time>
      </trkpt>
      <trkpt lat="46.17546" lon="-1.29013">
        <ele>10</ele>
        <time>2025-07-02T09:08:11Z</time>
      </trkpt>
      <trkpt lat="46.1755" lon="-1.2901">
        <ele>10</ele>
        <time>2025-07-02T09:08:14Z</time>
      </trkpt>
      <trkpt lat="46.17551" lon="-1.29005">
        <ele>9.8</ele>
        <time>2025-07-02T09:08:20Z</time>
      </trkpt>
      <trkpt lat="46.17553" lon="-1.29004">
        <ele>9.6</ele>
        <time>2025-07-02T09:08:22Z</time>
      </trkpt>
      <trkpt lat="46.17564" lon="-1.28998">
        <ele>9.6</ele>
        <time>2025-07-02T09:08:30Z</time>
      </trkpt>
      <trkpt lat="46.17567" lon="-1.28996">
        <ele>9.6</ele>
        <time>2025-07-02T09:08:32Z</time>
      </trkpt>
      <trkpt lat="46.17575" lon="-1.28993">
        <ele>9.2</ele>
        <time>2025-07-02T09:08:37Z</time>
      </trkpt>
      <trkpt lat="46.17586" lon="-1.28987">
        <ele>9</ele>
        <time>2025-07-02T09:08:44Z</time>
      </trkpt>
      <trkpt lat="46.17594" lon="-1.28979">
        <ele>9</ele>
        <time>2025-07-02T09:08:52Z</time>
      </trkpt>
      <trkpt lat="46.17595" lon="-1.28978">
        <ele>9</ele>
        <time>2025-07-02T09:08:53Z</time>
      </trkpt>
      <trkpt lat="46.17596" lon="-1.28977">
        <ele>9</ele>
        <time>2025-07-02T09:08:54Z</time>
      </trkpt>
      <trkpt lat="46.17599" lon="-1.28977">
        <ele>9</ele>
        <time>2025-07-02T09:08:56Z</time>
      </trkpt>
      <trkpt lat="46.17601" lon="-1.28976">
        <ele>9</ele>
        <time>2025-07-02T09:08:57Z</time>
      </trkpt>
      <trkpt lat="46.1761" lon="-1.28971">
        <ele>9</ele>
        <time>2025-07-02T09:09:03Z</time>
      </trkpt>
      <trkpt lat="46.17612" lon="-1.2897">
        <ele>8.8</ele>
        <time>2025-07-02T09:09:05Z</time>
      </trkpt>
      <trkpt lat="46.17618" lon="-1.28964">
        <ele>8.6</ele>
        <time>2025-07-02T09:09:12Z</time>
      </trkpt>
      <trkpt lat="46.17622" lon="-1.2896">
        <ele>8.6</ele>
        <time>2025-07-02T09:09:15Z</time>
      </trkpt>
      <trkpt lat="46.17625" lon="-1.28959">
        <ele>8.6</ele>
        <time>2025-07-02T09:09:17Z</time>
      </trkpt>
      <trkpt lat="46.17629" lon="-1.28958">
        <ele>8.6</ele>
        <time>2025-07-02T09:09:21Z</time>
      </trkpt>
      <trkpt lat="46.17644" lon="-1.28952">
        <ele>8.6</ele>
        <time>2025-07-02T09:09:29Z</time>
      </trkpt>
      <trkpt lat="46.17646" lon="-1.28951">
        <ele>8.4</ele>
        <time>2025-07-02T09:09:30Z</time>
      </trkpt>
      <trkpt lat="46.17658" lon="-1.28942">
        <ele>8.2</ele>
        <time>2025-07-02T09:09:38Z</time>
      </trkpt>
      <trkpt lat="46.17658" lon="-1.28941">
        <ele>8.2</ele>
        <time>2025-07-02T09:09:39Z</time>
      </trkpt>
      <trkpt lat="46.17666" lon="-1.28934">
        <ele>8.4</ele>
        <time>2025-07-02T09:09:46Z</time>
      </trkpt>
      <trkpt lat="46.17668" lon="-1.28932">
        <ele>8.4</ele>
        <time>2025-07-02T09:09:47Z</time>
      </trkpt>
      <trkpt lat="46.1767" lon="-1.28928">
        <ele>8.2</ele>
        <time>2025-07-02T09:09:51Z</time>
      </trkpt>
      <trkpt lat="46.17672" lon="-1.28927">
        <ele>8.2</ele>
        <time>2025-07-02T09:09:53Z</time>
      </trkpt>
      <trkpt lat="46.17673" lon="-1.28928">
        <ele>8</ele>
        <time>2025-07-02T09:09:54Z</time>
      </trkpt>
      <trkpt lat="46.17678" lon="-1.28927">
        <ele>7.8</ele>
        <time>2025-07-02T09:09:58Z</time>
      </trkpt>
      <trkpt lat="46.17679" lon="-1.28926">
        <ele>7.8</ele>
        <time>2025-07-02T09:09:59Z</time>
      </trkpt>
      <trkpt lat="46.17682" lon="-1.28926">
        <ele>7.8</ele>
        <time>2025-07-02T09:10:01Z</time>
      </trkpt>
      <trkpt lat="46.17684" lon="-1.28926">
        <ele>7.6</ele>
        <time>2025-07-02T09:10:03Z</time>
      </trkpt>
      <trkpt lat="46.17684" lon="-1.28926">
        <ele>7.4</ele>
        <time>2025-07-02T09:10:04Z</time>
      </trkpt>
      <trkpt lat="46.17685" lon="-1.28926">
        <ele>7.4</ele>
        <time>2025-07-02T09:10:06Z</time>
      </trkpt>
      <trkpt lat="46.17688" lon="-1.28926">
        <ele>7.2</ele>
        <time>2025-07-02T09:10:08Z</time>
      </trkpt>
      <trkpt lat="46.17695" lon="-1.28926">
        <ele>7</ele>
        <time>2025-07-02T09:10:13Z</time>
      </trkpt>
      <trkpt lat="46.17706" lon="-1.28927">
        <ele>6.4</ele>
        <time>2025-07-02T09:10:20Z</time>
      </trkpt>
      <trkpt lat="46.17723" lon="-1.28927">
        <ele>5.4</ele>
        <time>2025-07-02T09:10:29Z</time>
      </trkpt>
      <trkpt lat="46.17727" lon="-1.28924">
        <ele>5.4</ele>
        <time>2025-07-02T09:10:32Z</time>
      </trkpt>
      <trkpt lat="46.17729" lon="-1.28923">
        <ele>5.2</ele>
        <time>2025-07-02T09:10:33Z</time>
      </trkpt>
      <trkpt lat="46.17733" lon="-1.28918">
        <ele>5.2</ele>
        <time>2025-07-02T09:10:36Z</time>
      </trkpt>
      <trkpt lat="46.17734" lon="-1.28914">
        <ele>5.2</ele>
        <time>2025-07-02T09:10:38Z</time>
      </trkpt>
      <trkpt lat="46.17737" lon="-1.28912">
        <ele>5</ele>
        <time>2025-07-02T09:10:41Z</time>
      </trkpt>
      <trkpt lat="46.17746" lon="-1.28913">
        <ele>4.8</ele>
        <time>2025-07-02T09:10:48Z</time>
      </trkpt>
      <trkpt lat="46.17753" lon="-1.28917">
        <ele>4.8</ele>
        <time>2025-07-02T09:10:54Z</time>
      </trkpt>
      <trkpt lat="46.17754" lon="-1.28918">
        <ele>4.8</ele>
        <time>2025-07-02T09:10:55Z</time>
      </trkpt>
      <trkpt lat="46.17763" lon="-1.28928">
        <ele>5.2</ele>
        <time>2025-07-02T09:11:04Z</time>
      </trkpt>
      <trkpt lat="46.17775" lon="-1.28937">
        <ele>5.2</ele>
        <time>2025-07-02T09:11:14Z</time>
      </trkpt>
      <trkpt lat="46.17781" lon="-1.28942">
        <ele>5.4</ele>
        <time>2025-07-02T09:11:20Z</time>
      </trkpt>
      <trkpt lat="46.17785" lon="-1.28946">
        <ele>5.2</ele>
        <time>2025-07-02T09:11:24Z</time>
      </trkpt>
      <trkpt lat="46.17793" lon="-1.28951">
        <ele>5.2</ele>
        <time>2025-07-02T09:11:31Z</time>
      </trkpt>
      <trkpt lat="46.17796" lon="-1.28951">
        <ele>5.2</ele>
        <time>2025-07-02T09:11:33Z</time>
      </trkpt>
      <trkpt lat="46.17809" lon="-1.28946">
        <ele>5.2</ele>
        <time>2025-07-02T09:11:42Z</time>
      </trkpt>
      <trkpt lat="46.17817" lon="-1.28942">
        <ele>5.2</ele>
        <time>2025-07-02T09:11:48Z</time>
      </trkpt>
      <trkpt lat="46.17828" lon="-1.28936">
        <ele>5.2</ele>
        <time>2025-07-02T09:11:58Z</time>
      </trkpt>
      <trkpt lat="46.17829" lon="-1.28935">
        <ele>5.2</ele>
        <time>2025-07-02T09:11:59Z</time>
      </trkpt>
      <trkpt lat="46.17835" lon="-1.2893">
        <ele>5.6</ele>
        <time>2025-07-02T09:12:04Z</time>
      </trkpt>
      <trkpt lat="46.17841" lon="-1.28927">
        <ele>5.4</ele>
        <time>2025-07-02T09:12:08Z</time>
      </trkpt>
      <trkpt lat="46.17848" lon="-1.2892">
        <ele>5.2</ele>
        <time>2025-07-02T09:12:14Z</time>
      </trkpt>
      <trkpt lat="46.17856" lon="-1.28914">
        <ele>5.6</ele>
        <time>2025-07-02T09:12:20Z</time>
      </trkpt>
      <trkpt lat="46.17867" lon="-1.28906">
        <ele>6</ele>
        <time>2025-07-02T09:12:30Z</time>
      </trkpt>
      <trkpt lat="46.17875" lon="-1.289">
        <ele>6.2</ele>
        <time>2025-07-02T09:12:36Z</time>
      </trkpt>
      <trkpt lat="46.17877" lon="-1.28899">
        <ele>6.2</ele>
        <time>2025-07-02T09:12:38Z</time>
      </trkpt>
      <trkpt lat="46.17888" lon="-1.28886">
        <ele>6.2</ele>
        <time>2025-07-02T09:12:49Z</time>
      </trkpt>
      <trkpt lat="46.17895" lon="-1.28885">
        <ele>6.2</ele>
        <time>2025-07-02T09:12:55Z</time>
      </trkpt>
      <trkpt lat="46.17896" lon="-1.28884">
        <ele>6.4</ele>
        <time>2025-07-02T09:12:56Z</time>
      </trkpt>
      <trkpt lat="46.17898" lon="-1.28885">
        <ele>6.4</ele>
        <time>2025-07-02T09:12:58Z</time>
      </trkpt>
      <trkpt lat="46.17908" lon="-1.2889">
        <ele>6</ele>
        <time>2025-07-02T09:13:06Z</time>
      </trkpt>
      <trkpt lat="46.17917" lon="-1.28897">
        <ele>6</ele>
        <time>2025-07-02T09:13:13Z</time>
      </trkpt>
      <trkpt lat="46.17933" lon="-1.28909">
        <ele>6.6</ele>
        <time>2025-07-02T09:13:26Z</time>
      </trkpt>
      <trkpt lat="46.17946" lon="-1.28917">
        <ele>6.6</ele>
        <time>2025-07-02T09:13:36Z</time>
      </trkpt>
      <trkpt lat="46.17954" lon="-1.28922">
        <ele>6.8</ele>
        <time>2025-07-02T09:13:44Z</time>
      </trkpt>
      <trkpt lat="46.17965" lon="-1.28929">
        <ele>6.8</ele>
        <time>2025-07-02T09:13:52Z</time>
      </trkpt>
      <trkpt lat="46.17968" lon="-1.28931">
        <ele>6.6</ele>
        <time>2025-07-02T09:13:55Z</time>
      </trkpt>
      <trkpt lat="46.17977" lon="-1.28941">
        <ele>6.2</ele>
        <time>2025-07-02T09:14:05Z</time>
      </trkpt>
      <trkpt lat="46.17978" lon="-1.28942">
        <ele>6.4</ele>
        <time>2025-07-02T09:14:10Z</time>
      </trkpt>
      <trkpt lat="46.17978" lon="-1.28942">
        <ele>6.4</ele>
        <time>2025-07-02T09:14:11Z</time>
      </trkpt>
      <trkpt lat="46.17979" lon="-1.28944">
        <ele>5.8</ele>
        <time>2025-07-02T09:14:46Z</time>
      </trkpt>
      <trkpt lat="46.17979" lon="-1.28944">
        <ele>6.2</ele>
        <time>2025-07-02T09:14:50Z</time>
      </trkpt>
      <trkpt lat="46.17982" lon="-1.28943">
        <ele>5.8</ele>
        <time>2025-07-02T09:14:58Z</time>
      </trkpt>
      <trkpt lat="46.17983" lon="-1.28942">
        <ele>5.6</ele>
        <time>2025-07-02T09:14:59Z</time>
      </trkpt>
      <trkpt lat="46.17991" lon="-1.28934">
        <ele>5.2</ele>
        <time>2025-07-02T09:15:04Z</time>
      </trkpt>
      <trkpt lat="46.17994" lon="-1.28932">
        <ele>4.8</ele>
        <time>2025-07-02T09:15:06Z</time>
      </trkpt>
      <trkpt lat="46.17997" lon="-1.28926">
        <ele>5</ele>
        <time>2025-07-02T09:15:11Z</time>
      </trkpt>
      <trkpt lat="46.17997" lon="-1.28923">
        <ele>5.2</ele>
        <time>2025-07-02T09:15:13Z</time>
      </trkpt>
      <trkpt lat="46.17997" lon="-1.2892">
        <ele>5.2</ele>
        <time>2025-07-02T09:15:15Z</time>
      </trkpt>
      <trkpt lat="46.17997" lon="-1.28917">
        <ele>5.2</ele>
        <time>2025-07-02T09:15:17Z</time>
      </trkpt>
      <trkpt lat="46.17995" lon="-1.28915">
        <ele>5.2</ele>
        <time>2025-07-02T09:15:20Z</time>
      </trkpt>
      <trkpt lat="46.17995" lon="-1.28914">
        <ele>5.2</ele>
        <time>2025-07-02T09:15:21Z</time>
      </trkpt>
      <trkpt lat="46.17995" lon="-1.28913">
        <ele>4.6</ele>
        <time>2025-07-02T09:15:50Z</time>
      </trkpt>
      <trkpt lat="46.17995" lon="-1.28917">
        <ele>4.8</ele>
        <time>2025-07-02T09:15:54Z</time>
      </trkpt>
      <trkpt lat="46.17993" lon="-1.28935">
        <ele>5</ele>
        <time>2025-07-02T09:16:01Z</time>
      </trkpt>
      <trkpt lat="46.17989" lon="-1.28944">
        <ele>5.2</ele>
        <time>2025-07-02T09:16:08Z</time>
      </trkpt>
      <trkpt lat="46.17991" lon="-1.28951">
        <ele>5.2</ele>
        <time>2025-07-02T09:16:13Z</time>
      </trkpt>
      <trkpt lat="46.17993" lon="-1.28953">
        <ele>5</ele>
        <time>2025-07-02T09:16:15Z</time>
      </trkpt>
      <trkpt lat="46.18006" lon="-1.28961">
        <ele>5</ele>
        <time>2025-07-02T09:16:24Z</time>
      </trkpt>
      <trkpt lat="46.18016" lon="-1.28972">
        <ele>5</ele>
        <time>2025-07-02T09:16:34Z</time>
      </trkpt>
      <trkpt lat="46.1803" lon="-1.28985">
        <ele>4.6</ele>
        <time>2025-07-02T09:16:47Z</time>
      </trkpt>
      <trkpt lat="46.18039" lon="-1.28994">
        <ele>4.8</ele>
        <time>2025-07-02T09:16:55Z</time>
      </trkpt>
      <trkpt lat="46.18043" lon="-1.28998">
        <ele>4.8</ele>
        <time>2025-07-02T09:16:58Z</time>
      </trkpt>
      <trkpt lat="46.18055" lon="-1.29007">
        <ele>4.8</ele>
        <time>2025-07-02T09:17:07Z</time>
      </trkpt>
      <trkpt lat="46.18059" lon="-1.2901">
        <ele>4.6</ele>
        <time>2025-07-02T09:17:10Z</time>
      </trkpt>
      <trkpt lat="46.1806" lon="-1.29011">
        <ele>4.6</ele>
        <time>2025-07-02T09:17:12Z</time>
      </trkpt>
      <trkpt lat="46.18063" lon="-1.29015">
        <ele>4.6</ele>
        <time>2025-07-02T09:17:14Z</time>
      </trkpt>
      <trkpt lat="46.18065" lon="-1.29016">
        <ele>4.8</ele>
        <time>2025-07-02T09:17:15Z</time>
      </trkpt>
      <trkpt lat="46.1807" lon="-1.29022">
        <ele>4.8</ele>
        <time>2025-07-02T09:17:20Z</time>
      </trkpt>
      <trkpt lat="46.1808" lon="-1.29031">
        <ele>5</ele>
        <time>2025-07-02T09:17:29Z</time>
      </trkpt>
      <trkpt lat="46.18082" lon="-1.29032">
        <ele>5</ele>
        <time>2025-07-02T09:17:30Z</time>
      </trkpt>
      <trkpt lat="46.18088" lon="-1.2904">
        <ele>5.2</ele>
        <time>2025-07-02T09:17:35Z</time>
      </trkpt>
      <trkpt lat="46.181" lon="-1.29052">
        <ele>5.4</ele>
        <time>2025-07-02T09:17:46Z</time>
      </trkpt>
      <trkpt lat="46.18105" lon="-1.29055">
        <ele>5.6</ele>
        <time>2025-07-02T09:17:50Z</time>
      </trkpt>
      <trkpt lat="46.18108" lon="-1.29058">
        <ele>5.6</ele>
        <time>2025-07-02T09:17:54Z</time>
      </trkpt>
      <trkpt lat="46.1811" lon="-1.29061">
        <ele>5.6</ele>
        <time>2025-07-02T09:17:55Z</time>
      </trkpt>
      <trkpt lat="46.18113" lon="-1.2906">
        <ele>5.6</ele>
        <time>2025-07-02T09:17:57Z</time>
      </trkpt>
      <trkpt lat="46.18113" lon="-1.29058">
        <ele>5.6</ele>
        <time>2025-07-02T09:17:58Z</time>
      </trkpt>
      <trkpt lat="46.18122" lon="-1.2904">
        <ele>5.6</ele>
        <time>2025-07-02T09:18:09Z</time>
      </trkpt>
      <trkpt lat="46.18125" lon="-1.29033">
        <ele>5.6</ele>
        <time>2025-07-02T09:18:14Z</time>
      </trkpt>
      <trkpt lat="46.18129" lon="-1.2903">
        <ele>5.8</ele>
        <time>2025-07-02T09:18:17Z</time>
      </trkpt>
      <trkpt lat="46.18134" lon="-1.29011">
        <ele>5.8</ele>
        <time>2025-07-02T09:18:27Z</time>
      </trkpt>
      <trkpt lat="46.18143" lon="-1.28992">
        <ele>5.8</ele>
        <time>2025-07-02T09:18:38Z</time>
      </trkpt>
      <trkpt lat="46.1815" lon="-1.2898">
        <ele>5.6</ele>
        <time>2025-07-02T09:18:45Z</time>
      </trkpt>
      <trkpt lat="46.18157" lon="-1.28965">
        <ele>5.8</ele>
        <time>2025-07-02T09:18:54Z</time>
      </trkpt>
      <trkpt lat="46.18164" lon="-1.28946">
        <ele>6</ele>
        <time>2025-07-02T09:19:05Z</time>
      </trkpt>
      <trkpt lat="46.18171" lon="-1.2893">
        <ele>6</ele>
        <time>2025-07-02T09:19:14Z</time>
      </trkpt>
      <trkpt lat="46.18178" lon="-1.28918">
        <ele>5.2</ele>
        <time>2025-07-02T09:19:22Z</time>
      </trkpt>
      <trkpt lat="46.18187" lon="-1.28919">
        <ele>5.4</ele>
        <time>2025-07-02T09:19:29Z</time>
      </trkpt>
      <trkpt lat="46.18199" lon="-1.28926">
        <ele>5</ele>
        <time>2025-07-02T09:19:39Z</time>
      </trkpt>
      <trkpt lat="46.182" lon="-1.28927">
        <ele>5</ele>
        <time>2025-07-02T09:19:40Z</time>
      </trkpt>
      <trkpt lat="46.18209" lon="-1.28933">
        <ele>5.2</ele>
        <time>2025-07-02T09:19:48Z</time>
      </trkpt>
      <trkpt lat="46.18219" lon="-1.28937">
        <ele>5.2</ele>
        <time>2025-07-02T09:19:54Z</time>
      </trkpt>
      <trkpt lat="46.1823" lon="-1.28943">
        <ele>5</ele>
        <time>2025-07-02T09:20:03Z</time>
      </trkpt>
      <trkpt lat="46.18236" lon="-1.28945">
        <ele>5</ele>
        <time>2025-07-02T09:20:07Z</time>
      </trkpt>
      <trkpt lat="46.18242" lon="-1.28952">
        <ele>4.6</ele>
        <time>2025-07-02T09:20:12Z</time>
      </trkpt>
      <trkpt lat="46.18249" lon="-1.2896">
        <ele>4.2</ele>
        <time>2025-07-02T09:20:18Z</time>
      </trkpt>
      <trkpt lat="46.18251" lon="-1.28964">
        <ele>3.8</ele>
        <time>2025-07-02T09:20:21Z</time>
      </trkpt>
      <trkpt lat="46.18259" lon="-1.28978">
        <ele>4</ele>
        <time>2025-07-02T09:20:29Z</time>
      </trkpt>
      <trkpt lat="46.18263" lon="-1.28984">
        <ele>4</ele>
        <time>2025-07-02T09:20:34Z</time>
      </trkpt>
      <trkpt lat="46.18266" lon="-1.28988">
        <ele>4.2</ele>
        <time>2025-07-02T09:20:37Z</time>
      </trkpt>
      <trkpt lat="46.18273" lon="-1.28998">
        <ele>4.2</ele>
        <time>2025-07-02T09:20:44Z</time>
      </trkpt>
      <trkpt lat="46.18276" lon="-1.29">
        <ele>4.2</ele>
        <time>2025-07-02T09:20:46Z</time>
      </trkpt>
      <trkpt lat="46.18284" lon="-1.29009">
        <ele>4</ele>
        <time>2025-07-02T09:20:53Z</time>
      </trkpt>
      <trkpt lat="46.18286" lon="-1.29013">
        <ele>4</ele>
        <time>2025-07-02T09:20:55Z</time>
      </trkpt>
      <trkpt lat="46.18292" lon="-1.2902">
        <ele>4.6</ele>
        <time>2025-07-02T09:21:01Z</time>
      </trkpt>
      <trkpt lat="46.18292" lon="-1.29021">
        <ele>4.6</ele>
        <time>2025-07-02T09:21:02Z</time>
      </trkpt>
      <trkpt lat="46.18305" lon="-1.29028">
        <ele>4</ele>
        <time>2025-07-02T09:21:10Z</time>
      </trkpt>
      <trkpt lat="46.18309" lon="-1.29031">
        <ele>4.2</ele>
        <time>2025-07-02T09:21:13Z</time>
      </trkpt>
      <trkpt lat="46.18314" lon="-1.29037">
        <ele>4.2</ele>
        <time>2025-07-02T09:21:19Z</time>
      </trkpt>
      <trkpt lat="46.18318" lon="-1.29041">
        <ele>4.8</ele>
        <time>2025-07-02T09:21:23Z</time>
      </trkpt>
      <trkpt lat="46.18318" lon="-1.29042">
        <ele>4.8</ele>
        <time>2025-07-02T09:21:28Z</time>
      </trkpt>
      <trkpt lat="46.18325" lon="-1.29046">
        <ele>4.6</ele>
        <time>2025-07-02T09:21:34Z</time>
      </trkpt>
      <trkpt lat="46.18337" lon="-1.29053">
        <ele>5.2</ele>
        <time>2025-07-02T09:21:43Z</time>
      </trkpt>
      <trkpt lat="46.18346" lon="-1.29057">
        <ele>4.8</ele>
        <time>2025-07-02T09:21:50Z</time>
      </trkpt>
      <trkpt lat="46.1835" lon="-1.29057">
        <ele>5.2</ele>
        <time>2025-07-02T09:21:53Z</time>
      </trkpt>
      <trkpt lat="46.18352" lon="-1.29057">
        <ele>5.4</ele>
        <time>2025-07-02T09:21:54Z</time>
      </trkpt>
      <trkpt lat="46.18364" lon="-1.29066">
        <ele>5.2</ele>
        <time>2025-07-02T09:22:03Z</time>
      </trkpt>
      <trkpt lat="46.1838" lon="-1.29077">
        <ele>5.6</ele>
        <time>2025-07-02T09:22:15Z</time>
      </trkpt>
      <trkpt lat="46.18393" lon="-1.29085">
        <ele>5.8</ele>
        <time>2025-07-02T09:22:25Z</time>
      </trkpt>
      <trkpt lat="46.18407" lon="-1.29091">
        <ele>5.8</ele>
        <time>2025-07-02T09:22:35Z</time>
      </trkpt>
      <trkpt lat="46.18419" lon="-1.29089">
        <ele>5.6</ele>
        <time>2025-07-02T09:22:44Z</time>
      </trkpt>
      <trkpt lat="46.18428" lon="-1.2909">
        <ele>5.4</ele>
        <time>2025-07-02T09:22:50Z</time>
      </trkpt>
      <trkpt lat="46.18435" lon="-1.2909">
        <ele>5.4</ele>
        <time>2025-07-02T09:22:53Z</time>
      </trkpt>
      <trkpt lat="46.18449" lon="-1.2909">
        <ele>5.4</ele>
        <time>2025-07-02T09:23:04Z</time>
      </trkpt>
      <trkpt lat="46.18463" lon="-1.29095">
        <ele>5.2</ele>
        <time>2025-07-02T09:23:15Z</time>
      </trkpt>
      <trkpt lat="46.18474" lon="-1.29097">
        <ele>4.8</ele>
        <time>2025-07-02T09:23:23Z</time>
      </trkpt>
      <trkpt lat="46.18481" lon="-1.29098">
        <ele>4.6</ele>
        <time>2025-07-02T09:23:28Z</time>
      </trkpt>
      <trkpt lat="46.18484" lon="-1.29096">
        <ele>4.6</ele>
        <time>2025-07-02T09:23:30Z</time>
      </trkpt>
      <trkpt lat="46.18492" lon="-1.29092">
        <ele>4.2</ele>
        <time>2025-07-02T09:23:36Z</time>
      </trkpt>
      <trkpt lat="46.18497" lon="-1.29089">
        <ele>3.8</ele>
        <time>2025-07-02T09:23:40Z</time>
      </trkpt>
      <trkpt lat="46.18511" lon="-1.29084">
        <ele>3.4</ele>
        <time>2025-07-02T09:23:51Z</time>
      </trkpt>
      <trkpt lat="46.18522" lon="-1.29086">
        <ele>4</ele>
        <time>2025-07-02T09:24:00Z</time>
      </trkpt>
      <trkpt lat="46.18523" lon="-1.29085">
        <ele>4</ele>
        <time>2025-07-02T09:24:03Z</time>
      </trkpt>
      <trkpt lat="46.18523" lon="-1.29084">
        <ele>4.6</ele>
        <time>2025-07-02T09:24:09Z</time>
      </trkpt>
      <trkpt lat="46.18531" lon="-1.29085">
        <ele>4.4</ele>
        <time>2025-07-02T09:24:15Z</time>
      </trkpt>
      <trkpt lat="46.18547" lon="-1.29087">
        <ele>4.6</ele>
        <time>2025-07-02T09:24:28Z</time>
      </trkpt>
      <trkpt lat="46.18557" lon="-1.2909">
        <ele>4.4</ele>
        <time>2025-07-02T09:24:36Z</time>
      </trkpt>
      <trkpt lat="46.18558" lon="-1.2909">
        <ele>4.6</ele>
        <time>2025-07-02T09:24:38Z</time>
      </trkpt>
      <trkpt lat="46.18564" lon="-1.29093">
        <ele>4.4</ele>
        <time>2025-07-02T09:24:43Z</time>
      </trkpt>
      <trkpt lat="46.18573" lon="-1.29097">
        <ele>4</ele>
        <time>2025-07-02T09:24:50Z</time>
      </trkpt>
      <trkpt lat="46.18582" lon="-1.29106">
        <ele>4.2</ele>
        <time>2025-07-02T09:24:58Z</time>
      </trkpt>
      <trkpt lat="46.18593" lon="-1.29117">
        <ele>4.2</ele>
        <time>2025-07-02T09:25:07Z</time>
      </trkpt>
      <trkpt lat="46.18601" lon="-1.29128">
        <ele>4.6</ele>
        <time>2025-07-02T09:25:16Z</time>
      </trkpt>
      <trkpt lat="46.18611" lon="-1.29138">
        <ele>4.2</ele>
        <time>2025-07-02T09:25:24Z</time>
      </trkpt>
      <trkpt lat="46.18617" lon="-1.29144">
        <ele>4.4</ele>
        <time>2025-07-02T09:25:29Z</time>
      </trkpt>
      <trkpt lat="46.18624" lon="-1.29147">
        <ele>4.4</ele>
        <time>2025-07-02T09:25:34Z</time>
      </trkpt>
      <trkpt lat="46.18637" lon="-1.2915">
        <ele>4.8</ele>
        <time>2025-07-02T09:25:43Z</time>
      </trkpt>
      <trkpt lat="46.18644" lon="-1.29159">
        <ele>5.2</ele>
        <time>2025-07-02T09:25:49Z</time>
      </trkpt>
      <trkpt lat="46.18645" lon="-1.29162">
        <ele>5.4</ele>
        <time>2025-07-02T09:25:51Z</time>
      </trkpt>
      <trkpt lat="46.18655" lon="-1.29171">
        <ele>5.4</ele>
        <time>2025-07-02T09:25:59Z</time>
      </trkpt>
      <trkpt lat="46.18662" lon="-1.2918">
        <ele>5.6</ele>
        <time>2025-07-02T09:26:06Z</time>
      </trkpt>
      <trkpt lat="46.18672" lon="-1.29194">
        <ele>5.8</ele>
        <time>2025-07-02T09:26:17Z</time>
      </trkpt>
      <trkpt lat="46.1868" lon="-1.29207">
        <ele>6.2</ele>
        <time>2025-07-02T09:26:26Z</time>
      </trkpt>
      <trkpt lat="46.18681" lon="-1.29209">
        <ele>6.4</ele>
        <time>2025-07-02T09:26:27Z</time>
      </trkpt>
      <trkpt lat="46.18687" lon="-1.29221">
        <ele>6.6</ele>
        <time>2025-07-02T09:26:34Z</time>
      </trkpt>
      <trkpt lat="46.18689" lon="-1.29225">
        <ele>6.6</ele>
        <time>2025-07-02T09:26:37Z</time>
      </trkpt>
      <trkpt lat="46.18692" lon="-1.2923">
        <ele>6.8</ele>
        <time>2025-07-02T09:26:40Z</time>
      </trkpt>
      <trkpt lat="46.18692" lon="-1.29232">
        <ele>6.8</ele>
        <time>2025-07-02T09:26:41Z</time>
      </trkpt>
      <trkpt lat="46.18697" lon="-1.29238">
        <ele>6.8</ele>
        <time>2025-07-02T09:26:46Z</time>
      </trkpt>
      <trkpt lat="46.18702" lon="-1.29245">
        <ele>6.8</ele>
        <time>2025-07-02T09:26:51Z</time>
      </trkpt>
      <trkpt lat="46.18707" lon="-1.29254">
        <ele>7</ele>
        <time>2025-07-02T09:26:57Z</time>
      </trkpt>
      <trkpt lat="46.18713" lon="-1.29265">
        <ele>7.4</ele>
        <time>2025-07-02T09:27:04Z</time>
      </trkpt>
      <trkpt lat="46.18715" lon="-1.29268">
        <ele>7.4</ele>
        <time>2025-07-02T09:27:06Z</time>
      </trkpt>
      <trkpt lat="46.18722" lon="-1.29281">
        <ele>8</ele>
        <time>2025-07-02T09:27:15Z</time>
      </trkpt>
      <trkpt lat="46.18726" lon="-1.29288">
        <ele>7.8</ele>
        <time>2025-07-02T09:27:20Z</time>
      </trkpt>
      <trkpt lat="46.18731" lon="-1.29295">
        <ele>8.2</ele>
        <time>2025-07-02T09:27:25Z</time>
      </trkpt>
      <trkpt lat="46.18732" lon="-1.29297">
        <ele>8.4</ele>
        <time>2025-07-02T09:27:26Z</time>
      </trkpt>
      <trkpt lat="46.18732" lon="-1.29299">
        <ele>8.4</ele>
        <time>2025-07-02T09:27:27Z</time>
      </trkpt>
      <trkpt lat="46.18737" lon="-1.29305">
        <ele>9</ele>
        <time>2025-07-02T09:27:32Z</time>
      </trkpt>
      <trkpt lat="46.18741" lon="-1.29314">
        <ele>8.8</ele>
        <time>2025-07-02T09:27:39Z</time>
      </trkpt>
      <trkpt lat="46.18747" lon="-1.29327">
        <ele>8.8</ele>
        <time>2025-07-02T09:27:47Z</time>
      </trkpt>
      <trkpt lat="46.18749" lon="-1.29335">
        <ele>8.6</ele>
        <time>2025-07-02T09:27:52Z</time>
      </trkpt>
      <trkpt lat="46.18747" lon="-1.29343">
        <ele>8.8</ele>
        <time>2025-07-02T09:27:58Z</time>
      </trkpt>
      <trkpt lat="46.18746" lon="-1.29344">
        <ele>8.8</ele>
        <time>2025-07-02T09:27:59Z</time>
      </trkpt>
      <trkpt lat="46.18735" lon="-1.29359">
        <ele>8.6</ele>
        <time>2025-07-02T09:28:10Z</time>
      </trkpt>
      <trkpt lat="46.18729" lon="-1.29368">
        <ele>8.8</ele>
        <time>2025-07-02T09:28:17Z</time>
      </trkpt>
      <trkpt lat="46.18717" lon="-1.2938">
        <ele>8.8</ele>
        <time>2025-07-02T09:28:27Z</time>
      </trkpt>
      <trkpt lat="46.18707" lon="-1.29392">
        <ele>8.6</ele>
        <time>2025-07-02T09:28:37Z</time>
      </trkpt>
      <trkpt lat="46.18699" lon="-1.29405">
        <ele>8.8</ele>
        <time>2025-07-02T09:28:46Z</time>
      </trkpt>
      <trkpt lat="46.18696" lon="-1.2941">
        <ele>8.8</ele>
        <time>2025-07-02T09:28:50Z</time>
      </trkpt>
      <trkpt lat="46.18693" lon="-1.29416">
        <ele>8.8</ele>
        <time>2025-07-02T09:28:54Z</time>
      </trkpt>
      <trkpt lat="46.18683" lon="-1.29425">
        <ele>9</ele>
        <time>2025-07-02T09:29:02Z</time>
      </trkpt>
      <trkpt lat="46.18677" lon="-1.29433">
        <ele>9.2</ele>
        <time>2025-07-02T09:29:08Z</time>
      </trkpt>
      <trkpt lat="46.18674" lon="-1.29437">
        <ele>9.2</ele>
        <time>2025-07-02T09:29:11Z</time>
      </trkpt>
      <trkpt lat="46.18661" lon="-1.29453">
        <ele>9</ele>
        <time>2025-07-02T09:29:23Z</time>
      </trkpt>
      <trkpt lat="46.18653" lon="-1.29465">
        <ele>9.2</ele>
        <time>2025-07-02T09:29:32Z</time>
      </trkpt>
      <trkpt lat="46.18643" lon="-1.29477">
        <ele>9.4</ele>
        <time>2025-07-02T09:29:41Z</time>
      </trkpt>
      <trkpt lat="46.18633" lon="-1.29492">
        <ele>9</ele>
        <time>2025-07-02T09:29:51Z</time>
      </trkpt>
      <trkpt lat="46.1863" lon="-1.29495">
        <ele>9.2</ele>
        <time>2025-07-02T09:29:53Z</time>
      </trkpt>
      <trkpt lat="46.18627" lon="-1.295">
        <ele>9.2</ele>
        <time>2025-07-02T09:29:58Z</time>
      </trkpt>
      <trkpt lat="46.18624" lon="-1.29508">
        <ele>9.2</ele>
        <time>2025-07-02T09:30:04Z</time>
      </trkpt>
      <trkpt lat="46.18624" lon="-1.29512">
        <ele>9.2</ele>
        <time>2025-07-02T09:30:06Z</time>
      </trkpt>
      <trkpt lat="46.18627" lon="-1.29521">
        <ele>9.2</ele>
        <time>2025-07-02T09:30:11Z</time>
      </trkpt>
      <trkpt lat="46.18628" lon="-1.29526">
        <ele>9.2</ele>
        <time>2025-07-02T09:30:14Z</time>
      </trkpt>
      <trkpt lat="46.18638" lon="-1.29546">
        <ele>9.2</ele>
        <time>2025-07-02T09:30:27Z</time>
      </trkpt>
      <trkpt lat="46.18644" lon="-1.29563">
        <ele>9.4</ele>
        <time>2025-07-02T09:30:37Z</time>
      </trkpt>
      <trkpt lat="46.18645" lon="-1.29566">
        <ele>9.4</ele>
        <time>2025-07-02T09:30:39Z</time>
      </trkpt>
      <trkpt lat="46.18646" lon="-1.29574">
        <ele>9.6</ele>
        <time>2025-07-02T09:30:42Z</time>
      </trkpt>
      <trkpt lat="46.18649" lon="-1.29583">
        <ele>9.6</ele>
        <time>2025-07-02T09:30:48Z</time>
      </trkpt>
      <trkpt lat="46.18651" lon="-1.296">
        <ele>9.6</ele>
        <time>2025-07-02T09:30:57Z</time>
      </trkpt>
      <trkpt lat="46.18653" lon="-1.29606">
        <ele>9.6</ele>
        <time>2025-07-02T09:31:03Z</time>
      </trkpt>
      <trkpt lat="46.18655" lon="-1.29609">
        <ele>9.8</ele>
        <time>2025-07-02T09:31:13Z</time>
      </trkpt>
      <trkpt lat="46.18656" lon="-1.2961">
        <ele>9.8</ele>
        <time>2025-07-02T09:31:14Z</time>
      </trkpt>
      <trkpt lat="46.18666" lon="-1.29621">
        <ele>9.8</ele>
        <time>2025-07-02T09:31:23Z</time>
      </trkpt>
      <trkpt lat="46.18679" lon="-1.29633">
        <ele>9.6</ele>
        <time>2025-07-02T09:31:35Z</time>
      </trkpt>
      <trkpt lat="46.18686" lon="-1.29641">
        <ele>9.6</ele>
        <time>2025-07-02T09:31:42Z</time>
      </trkpt>
      <trkpt lat="46.18692" lon="-1.29657">
        <ele>9.8</ele>
        <time>2025-07-02T09:31:51Z</time>
      </trkpt>
      <trkpt lat="46.18695" lon="-1.29671">
        <ele>9.8</ele>
        <time>2025-07-02T09:32:00Z</time>
      </trkpt>
      <trkpt lat="46.18696" lon="-1.29672">
        <ele>10.2</ele>
        <time>2025-07-02T09:32:04Z</time>
      </trkpt>
      <trkpt lat="46.18696" lon="-1.29673">
        <ele>10</ele>
        <time>2025-07-02T09:32:05Z</time>
      </trkpt>
      <trkpt lat="46.187" lon="-1.29685">
        <ele>9.8</ele>
        <time>2025-07-02T09:32:12Z</time>
      </trkpt>
      <trkpt lat="46.18704" lon="-1.29703">
        <ele>9.8</ele>
        <time>2025-07-02T09:32:21Z</time>
      </trkpt>
      <trkpt lat="46.18706" lon="-1.29724">
        <ele>10</ele>
        <time>2025-07-02T09:32:32Z</time>
      </trkpt>
      <trkpt lat="46.18707" lon="-1.29747">
        <ele>10.2</ele>
        <time>2025-07-02T09:32:44Z</time>
      </trkpt>
      <trkpt lat="46.18705" lon="-1.29763">
        <ele>10</ele>
        <time>2025-07-02T09:32:52Z</time>
      </trkpt>
      <trkpt lat="46.18703" lon="-1.29782">
        <ele>10</ele>
        <time>2025-07-02T09:33:03Z</time>
      </trkpt>
      <trkpt lat="46.18703" lon="-1.29785">
        <ele>10</ele>
        <time>2025-07-02T09:33:05Z</time>
      </trkpt>
      <trkpt lat="46.18704" lon="-1.29789">
        <ele>9.8</ele>
        <time>2025-07-02T09:33:09Z</time>
      </trkpt>
      <trkpt lat="46.18704" lon="-1.29789">
        <ele>9.8</ele>
        <time>2025-07-02T09:33:14Z</time>
      </trkpt>
      <trkpt lat="46.18703" lon="-1.29787">
        <ele>9.8</ele>
        <time>2025-07-02T09:33:16Z</time>
      </trkpt>
      <trkpt lat="46.18699" lon="-1.29785">
        <ele>9.8</ele>
        <time>2025-07-02T09:33:19Z</time>
      </trkpt>
      <trkpt lat="46.1869" lon="-1.29785">
        <ele>9.6</ele>
        <time>2025-07-02T09:33:26Z</time>
      </trkpt>
      <trkpt lat="46.18687" lon="-1.29785">
        <ele>9.4</ele>
        <time>2025-07-02T09:33:28Z</time>
      </trkpt>
      <trkpt lat="46.18676" lon="-1.29786">
        <ele>9.2</ele>
        <time>2025-07-02T09:33:37Z</time>
      </trkpt>
      <trkpt lat="46.18663" lon="-1.29787">
        <ele>9.4</ele>
        <time>2025-07-02T09:33:46Z</time>
      </trkpt>
      <trkpt lat="46.18659" lon="-1.29788">
        <ele>9.4</ele>
        <time>2025-07-02T09:33:49Z</time>
      </trkpt>
      <trkpt lat="46.18647" lon="-1.29789">
        <ele>9.4</ele>
        <time>2025-07-02T09:33:59Z</time>
      </trkpt>
      <trkpt lat="46.18638" lon="-1.29791">
        <ele>9.4</ele>
        <time>2025-07-02T09:34:09Z</time>
      </trkpt>
      <trkpt lat="46.1863" lon="-1.2979">
        <ele>9.2</ele>
        <time>2025-07-02T09:34:16Z</time>
      </trkpt>
      <trkpt lat="46.18627" lon="-1.2979">
        <ele>9.6</ele>
        <time>2025-07-02T09:34:23Z</time>
      </trkpt>
      <trkpt lat="46.18623" lon="-1.29789">
        <ele>9.4</ele>
        <time>2025-07-02T09:34:29Z</time>
      </trkpt>
      <trkpt lat="46.18622" lon="-1.29789">
        <ele>9.4</ele>
        <time>2025-07-02T09:34:30Z</time>
      </trkpt>
      <trkpt lat="46.18611" lon="-1.29787">
        <ele>9.4</ele>
        <time>2025-07-02T09:34:39Z</time>
      </trkpt>
      <trkpt lat="46.18607" lon="-1.29778">
        <ele>9.2</ele>
        <time>2025-07-02T09:34:46Z</time>
      </trkpt>
      <trkpt lat="46.18607" lon="-1.29776">
        <ele>9.4</ele>
        <time>2025-07-02T09:34:49Z</time>
      </trkpt>
      <trkpt lat="46.18607" lon="-1.29776">
        <ele>9.6</ele>
        <time>2025-07-02T09:34:53Z</time>
      </trkpt>
      <trkpt lat="46.18606" lon="-1.29774">
        <ele>9.2</ele>
        <time>2025-07-02T09:35:02Z</time>
      </trkpt>
      <trkpt lat="46.18604" lon="-1.29767">
        <ele>9.2</ele>
        <time>2025-07-02T09:35:07Z</time>
      </trkpt>
      <trkpt lat="46.18604" lon="-1.29765">
        <ele>9</ele>
        <time>2025-07-02T09:35:09Z</time>
      </trkpt>
      <trkpt lat="46.18604" lon="-1.29762">
        <ele>8.4</ele>
        <time>2025-07-02T09:35:11Z</time>
      </trkpt>
      <trkpt lat="46.18603" lon="-1.29752">
        <ele>7.6</ele>
        <time>2025-07-02T09:35:17Z</time>
      </trkpt>
      <trkpt lat="46.18603" lon="-1.29746">
        <ele>7.8</ele>
        <time>2025-07-02T09:35:25Z</time>
      </trkpt>
      <trkpt lat="46.18603" lon="-1.29742">
        <ele>7.8</ele>
        <time>2025-07-02T09:35:32Z</time>
      </trkpt>
      <trkpt lat="46.18605" lon="-1.29732">
        <ele>7.4</ele>
        <time>2025-07-02T09:35:38Z</time>
      </trkpt>
      <trkpt lat="46.18605" lon="-1.29729">
        <ele>7.2</ele>
        <time>2025-07-02T09:35:40Z</time>
      </trkpt>
      <trkpt lat="46.18599" lon="-1.29726">
        <ele>7.2</ele>
        <time>2025-07-02T09:35:45Z</time>
      </trkpt>
      <trkpt lat="46.18598" lon="-1.29726">
        <ele>7.2</ele>
        <time>2025-07-02T09:35:46Z</time>
      </trkpt>
      <trkpt lat="46.18592" lon="-1.29725">
        <ele>7</ele>
        <time>2025-07-02T09:35:52Z</time>
      </trkpt>
      <trkpt lat="46.18591" lon="-1.29726">
        <ele>7</ele>
        <time>2025-07-02T09:35:54Z</time>
      </trkpt>
      <trkpt lat="46.18585" lon="-1.29727">
        <ele>7</ele>
        <time>2025-07-02T09:35:59Z</time>
      </trkpt>
      <trkpt lat="46.18583" lon="-1.29726">
        <ele>6.8</ele>
        <time>2025-07-02T09:36:01Z</time>
      </trkpt>
      <trkpt lat="46.18574" lon="-1.29726">
        <ele>6.8</ele>
        <time>2025-07-02T09:36:09Z</time>
      </trkpt>
      <trkpt lat="46.18573" lon="-1.29725">
        <ele>7</ele>
        <time>2025-07-02T09:36:11Z</time>
      </trkpt>
      <trkpt lat="46.18572" lon="-1.29721">
        <ele>7</ele>
        <time>2025-07-02T09:36:14Z</time>
      </trkpt>
      <trkpt lat="46.18572" lon="-1.29719">
        <ele>7.4</ele>
        <time>2025-07-02T09:36:20Z</time>
      </trkpt>
      <trkpt lat="46.18572" lon="-1.29721">
        <ele>7</ele>
        <time>2025-07-02T09:36:27Z</time>
      </trkpt>
      <trkpt lat="46.18572" lon="-1.29724">
        <ele>7.2</ele>
        <time>2025-07-02T09:36:34Z</time>
      </trkpt>
      <trkpt lat="46.18575" lon="-1.29717">
        <ele>6.8</ele>
        <time>2025-07-02T09:36:41Z</time>
      </trkpt>
      <trkpt lat="46.18576" lon="-1.29719">
        <ele>7</ele>
        <time>2025-07-02T09:36:45Z</time>
      </trkpt>
      <trkpt lat="46.18577" lon="-1.29725">
        <ele>6.8</ele>
        <time>2025-07-02T09:36:50Z</time>
      </trkpt>
      <trkpt lat="46.18576" lon="-1.29726">
        <ele>6.8</ele>
        <time>2025-07-02T09:36:56Z</time>
      </trkpt>
      <trkpt lat="46.18574" lon="-1.2972">
        <ele>6.8</ele>
        <time>2025-07-02T09:37:01Z</time>
      </trkpt>
      <trkpt lat="46.18572" lon="-1.29709">
        <ele>7</ele>
        <time>2025-07-02T09:37:09Z</time>
      </trkpt>
      <trkpt lat="46.18567" lon="-1.29706">
        <ele>7</ele>
        <time>2025-07-02T09:37:14Z</time>
      </trkpt>
      <trkpt lat="46.18561" lon="-1.29705">
        <ele>7.2</ele>
        <time>2025-07-02T09:37:20Z</time>
      </trkpt>
      <trkpt lat="46.18562" lon="-1.29706">
        <ele>7.6</ele>
        <time>2025-07-02T09:37:27Z</time>
      </trkpt>
      <trkpt lat="46.18566" lon="-1.29708">
        <ele>6.8</ele>
        <time>2025-07-02T09:37:34Z</time>
      </trkpt>
      <trkpt lat="46.1857" lon="-1.29712">
        <ele>6.8</ele>
        <time>2025-07-02T09:37:41Z</time>
      </trkpt>
      <trkpt lat="46.18573" lon="-1.29717">
        <ele>7</ele>
        <time>2025-07-02T09:37:47Z</time>
      </trkpt>
      <trkpt lat="46.18574" lon="-1.29725">
        <ele>7</ele>
        <time>2025-07-02T09:37:52Z</time>
      </trkpt>
      <trkpt lat="46.18576" lon="-1.29728">
        <ele>7.2</ele>
        <time>2025-07-02T09:37:56Z</time>
      </trkpt>
      <trkpt lat="46.18576" lon="-1.29738">
        <ele>7</ele>
        <time>2025-07-02T09:38:03Z</time>
      </trkpt>
      <trkpt lat="46.18575" lon="-1.2974">
        <ele>7</ele>
        <time>2025-07-02T09:38:05Z</time>
      </trkpt>
      <trkpt lat="46.18574" lon="-1.29745">
        <ele>7.2</ele>
        <time>2025-07-02T09:38:09Z</time>
      </trkpt>
      <trkpt lat="46.18569" lon="-1.29754">
        <ele>7.6</ele>
        <time>2025-07-02T09:38:15Z</time>
      </trkpt>
      <trkpt lat="46.18567" lon="-1.29754">
        <ele>7.8</ele>
        <time>2025-07-02T09:38:17Z</time>
      </trkpt>
      <trkpt lat="46.18567" lon="-1.29752">
        <ele>7.8</ele>
        <time>2025-07-02T09:38:20Z</time>
      </trkpt>
      <trkpt lat="46.18568" lon="-1.29752">
        <ele>7.6</ele>
        <time>2025-07-02T09:38:22Z</time>
      </trkpt>
      <trkpt lat="46.18567" lon="-1.29753">
        <ele>8</ele>
        <time>2025-07-02T09:38:31Z</time>
      </trkpt>
      <trkpt lat="46.18567" lon="-1.29753">
        <ele>7.6</ele>
        <time>2025-07-02T09:38:36Z</time>
      </trkpt>
      <trkpt lat="46.18568" lon="-1.29744">
        <ele>7.8</ele>
        <time>2025-07-02T09:38:43Z</time>
      </trkpt>
      <trkpt lat="46.18568" lon="-1.29753">
        <ele>7.8</ele>
        <time>2025-07-02T09:39:04Z</time>
      </trkpt>
      <trkpt lat="46.18568" lon="-1.29758">
        <ele>7.8</ele>
        <time>2025-07-02T09:39:07Z</time>
      </trkpt>
      <trkpt lat="46.18568" lon="-1.29762">
        <ele>8</ele>
        <time>2025-07-02T09:39:11Z</time>
      </trkpt>
      <trkpt lat="46.18569" lon="-1.29762">
        <ele>8.2</ele>
        <time>2025-07-02T09:39:17Z</time>
      </trkpt>
      <trkpt lat="46.18573" lon="-1.29764">
        <ele>8</ele>
        <time>2025-07-02T09:39:32Z</time>
      </trkpt>
      <trkpt lat="46.18576" lon="-1.29766">
        <ele>8.4</ele>
        <time>2025-07-02T09:39:35Z</time>
      </trkpt>
      <trkpt lat="46.18576" lon="-1.29767">
        <ele>7.2</ele>
        <time>2025-07-02T09:39:36Z</time>
      </trkpt>
      <trkpt lat="46.18577" lon="-1.29769">
        <ele>7.2</ele>
        <time>2025-07-02T09:39:39Z</time>
      </trkpt>
      <trkpt lat="46.18577" lon="-1.2977">
        <ele>7.2</ele>
        <time>2025-07-02T09:39:48Z</time>
      </trkpt>
      <trkpt lat="46.18576" lon="-1.2977">
        <ele>7</ele>
        <time>2025-07-02T09:40:00Z</time>
      </trkpt>
      <trkpt lat="46.18576" lon="-1.2977">
        <ele>7.2</ele>
        <time>2025-07-02T09:40:04Z</time>
      </trkpt>
      <trkpt lat="46.18576" lon="-1.2977">
        <ele>7.2</ele>
        <time>2025-07-02T09:40:09Z</time>
      </trkpt>
      <trkpt lat="46.18575" lon="-1.2977">
        <ele>7</ele>
        <time>2025-07-02T09:40:26Z</time>
      </trkpt>
      <trkpt lat="46.18575" lon="-1.29769">
        <ele>7.2</ele>
        <time>2025-07-02T09:40:40Z</time>
      </trkpt>
      <trkpt lat="46.18575" lon="-1.29769">
        <ele>7.4</ele>
        <time>2025-07-02T09:40:46Z</time>
      </trkpt>
      <trkpt lat="46.18576" lon="-1.29769">
        <ele>7.4</ele>
        <time>2025-07-02T09:40:52Z</time>
      </trkpt>
      <trkpt lat="46.18564" lon="-1.29767">
        <ele>7.2</ele>
        <time>2025-07-02T09:41:17Z</time>
      </trkpt>
      <trkpt lat="46.18562" lon="-1.29767">
        <ele>7.2</ele>
        <time>2025-07-02T09:41:18Z</time>
      </trkpt>
      <trkpt lat="46.18559" lon="-1.29766">
        <ele>7</ele>
        <time>2025-07-02T09:41:21Z</time>
      </trkpt>
      <trkpt lat="46.18558" lon="-1.29765">
        <ele>6.8</ele>
        <time>2025-07-02T09:41:22Z</time>
      </trkpt>
      <trkpt lat="46.18549" lon="-1.29764">
        <ele>6.6</ele>
        <time>2025-07-02T09:41:30Z</time>
      </trkpt>
      <trkpt lat="46.1854" lon="-1.29765">
        <ele>6.6</ele>
        <time>2025-07-02T09:41:37Z</time>
      </trkpt>
      <trkpt lat="46.18538" lon="-1.29765">
        <ele>6.8</ele>
        <time>2025-07-02T09:41:39Z</time>
      </trkpt>
      <trkpt lat="46.18522" lon="-1.29768">
        <ele>6.4</ele>
        <time>2025-07-02T09:41:51Z</time>
      </trkpt>
      <trkpt lat="46.18506" lon="-1.2977">
        <ele>6.4</ele>
        <time>2025-07-02T09:42:02Z</time>
      </trkpt>
      <trkpt lat="46.18499" lon="-1.29774">
        <ele>6.2</ele>
        <time>2025-07-02T09:42:08Z</time>
      </trkpt>
      <trkpt lat="46.18494" lon="-1.29775">
        <ele>5.8</ele>
        <time>2025-07-02T09:42:13Z</time>
      </trkpt>
      <trkpt lat="46.18492" lon="-1.29775">
        <ele>5.8</ele>
        <time>2025-07-02T09:42:14Z</time>
      </trkpt>
      <trkpt lat="46.18491" lon="-1.29775">
        <ele>5.8</ele>
        <time>2025-07-02T09:42:15Z</time>
      </trkpt>
      <trkpt lat="46.18478" lon="-1.29779">
        <ele>5.6</ele>
        <time>2025-07-02T09:42:25Z</time>
      </trkpt>
      <trkpt lat="46.18476" lon="-1.2978">
        <ele>5.6</ele>
        <time>2025-07-02T09:42:27Z</time>
      </trkpt>
      <trkpt lat="46.18465" lon="-1.29783">
        <ele>5.4</ele>
        <time>2025-07-02T09:42:36Z</time>
      </trkpt>
      <trkpt lat="46.18453" lon="-1.29788">
        <ele>5.4</ele>
        <time>2025-07-02T09:42:46Z</time>
      </trkpt>
      <trkpt lat="46.18439" lon="-1.29791">
        <ele>5.6</ele>
        <time>2025-07-02T09:42:58Z</time>
      </trkpt>
      <trkpt lat="46.18424" lon="-1.29799">
        <ele>5.6</ele>
        <time>2025-07-02T09:43:10Z</time>
      </trkpt>
      <trkpt lat="46.1841" lon="-1.29803">
        <ele>5.8</ele>
        <time>2025-07-02T09:43:21Z</time>
      </trkpt>
      <trkpt lat="46.18404" lon="-1.29804">
        <ele>5.8</ele>
        <time>2025-07-02T09:43:26Z</time>
      </trkpt>
      <trkpt lat="46.184" lon="-1.29805">
        <ele>5.6</ele>
        <time>2025-07-02T09:43:29Z</time>
      </trkpt>
      <trkpt lat="46.1839" lon="-1.29808">
        <ele>6</ele>
        <time>2025-07-02T09:43:37Z</time>
      </trkpt>
      <trkpt lat="46.18384" lon="-1.2981">
        <ele>6</ele>
        <time>2025-07-02T09:43:41Z</time>
      </trkpt>
      <trkpt lat="46.18376" lon="-1.29813">
        <ele>6</ele>
        <time>2025-07-02T09:43:47Z</time>
      </trkpt>
      <trkpt lat="46.18365" lon="-1.29817">
        <ele>6</ele>
        <time>2025-07-02T09:43:56Z</time>
      </trkpt>
      <trkpt lat="46.18358" lon="-1.29818">
        <ele>5.8</ele>
        <time>2025-07-02T09:44:02Z</time>
      </trkpt>
      <trkpt lat="46.18357" lon="-1.2982">
        <ele>5.8</ele>
        <time>2025-07-02T09:44:05Z</time>
      </trkpt>
      <trkpt lat="46.18357" lon="-1.2982">
        <ele>5.8</ele>
        <time>2025-07-02T09:44:06Z</time>
      </trkpt>
      <trkpt lat="46.18355" lon="-1.29821">
        <ele>5.6</ele>
        <time>2025-07-02T09:44:11Z</time>
      </trkpt>
      <trkpt lat="46.1835" lon="-1.29822">
        <ele>5.8</ele>
        <time>2025-07-02T09:44:16Z</time>
      </trkpt>
      <trkpt lat="46.18339" lon="-1.29826">
        <ele>5.8</ele>
        <time>2025-07-02T09:44:24Z</time>
      </trkpt>
      <trkpt lat="46.18327" lon="-1.29828">
        <ele>5.8</ele>
        <time>2025-07-02T09:44:33Z</time>
      </trkpt>
      <trkpt lat="46.18314" lon="-1.29831">
        <ele>5.6</ele>
        <time>2025-07-02T09:44:43Z</time>
      </trkpt>
      <trkpt lat="46.18304" lon="-1.29836">
        <ele>5.6</ele>
        <time>2025-07-02T09:44:51Z</time>
      </trkpt>
      <trkpt lat="46.18289" lon="-1.29843">
        <ele>5.6</ele>
        <time>2025-07-02T09:45:02Z</time>
      </trkpt>
      <trkpt lat="46.18277" lon="-1.29851">
        <ele>5.6</ele>
        <time>2025-07-02T09:45:11Z</time>
      </trkpt>
      <trkpt lat="46.18271" lon="-1.29864">
        <ele>5.6</ele>
        <time>2025-07-02T09:45:18Z</time>
      </trkpt>
      <trkpt lat="46.18271" lon="-1.29868">
        <ele>5.6</ele>
        <time>2025-07-02T09:45:20Z</time>
      </trkpt>
      <trkpt lat="46.18273" lon="-1.29873">
        <ele>5.6</ele>
        <time>2025-07-02T09:45:23Z</time>
      </trkpt>
      <trkpt lat="46.18272" lon="-1.2988">
        <ele>5.4</ele>
        <time>2025-07-02T09:45:26Z</time>
      </trkpt>
      <trkpt lat="46.18277" lon="-1.29893">
        <ele>5.8</ele>
        <time>2025-07-02T09:45:34Z</time>
      </trkpt>
      <trkpt lat="46.18278" lon="-1.29898">
        <ele>5.8</ele>
        <time>2025-07-02T09:45:37Z</time>
      </trkpt>
      <trkpt lat="46.1828" lon="-1.29903">
        <ele>5.8</ele>
        <time>2025-07-02T09:45:40Z</time>
      </trkpt>
      <trkpt lat="46.18281" lon="-1.29904">
        <ele>5.8</ele>
        <time>2025-07-02T09:45:41Z</time>
      </trkpt>
      <trkpt lat="46.18285" lon="-1.29916">
        <ele>5.8</ele>
        <time>2025-07-02T09:45:47Z</time>
      </trkpt>
      <trkpt lat="46.18287" lon="-1.29923">
        <ele>6</ele>
        <time>2025-07-02T09:45:52Z</time>
      </trkpt>
      <trkpt lat="46.18292" lon="-1.2993">
        <ele>6.6</ele>
        <time>2025-07-02T09:45:56Z</time>
      </trkpt>
      <trkpt lat="46.18298" lon="-1.29947">
        <ele>6.6</ele>
        <time>2025-07-02T09:46:05Z</time>
      </trkpt>
      <trkpt lat="46.18304" lon="-1.29957">
        <ele>6.6</ele>
        <time>2025-07-02T09:46:11Z</time>
      </trkpt>
      <trkpt lat="46.18311" lon="-1.29967">
        <ele>6.8</ele>
        <time>2025-07-02T09:46:18Z</time>
      </trkpt>
      <trkpt lat="46.18312" lon="-1.29971">
        <ele>6.6</ele>
        <time>2025-07-02T09:46:20Z</time>
      </trkpt>
      <trkpt lat="46.18313" lon="-1.29977">
        <ele>6.8</ele>
        <time>2025-07-02T09:46:24Z</time>
      </trkpt>
      <trkpt lat="46.18309" lon="-1.29989">
        <ele>7</ele>
        <time>2025-07-02T09:46:31Z</time>
      </trkpt>
      <trkpt lat="46.18306" lon="-1.29991">
        <ele>7.2</ele>
        <time>2025-07-02T09:46:34Z</time>
      </trkpt>
      <trkpt lat="46.18303" lon="-1.29994">
        <ele>7.2</ele>
        <time>2025-07-02T09:46:36Z</time>
      </trkpt>
      <trkpt lat="46.183" lon="-1.29998">
        <ele>7.2</ele>
        <time>2025-07-02T09:46:39Z</time>
      </trkpt>
      <trkpt lat="46.18291" lon="-1.30002">
        <ele>7.4</ele>
        <time>2025-07-02T09:46:46Z</time>
      </trkpt>
      <trkpt lat="46.18276" lon="-1.3001">
        <ele>7.6</ele>
        <time>2025-07-02T09:46:58Z</time>
      </trkpt>
      <trkpt lat="46.1827" lon="-1.30014">
        <ele>7.6</ele>
        <time>2025-07-02T09:47:04Z</time>
      </trkpt>
      <trkpt lat="46.18269" lon="-1.30014">
        <ele>7.6</ele>
        <time>2025-07-02T09:47:05Z</time>
      </trkpt>
      <trkpt lat="46.18267" lon="-1.30014">
        <ele>7.8</ele>
        <time>2025-07-02T09:47:06Z</time>
      </trkpt>
      <trkpt lat="46.18261" lon="-1.30015">
        <ele>7.8</ele>
        <time>2025-07-02T09:47:11Z</time>
      </trkpt>
      <trkpt lat="46.18259" lon="-1.30016">
        <ele>7.8</ele>
        <time>2025-07-02T09:47:14Z</time>
      </trkpt>
      <trkpt lat="46.18249" lon="-1.30015">
        <ele>7.8</ele>
        <time>2025-07-02T09:47:20Z</time>
      </trkpt>
      <trkpt lat="46.18248" lon="-1.30015">
        <ele>7.8</ele>
        <time>2025-07-02T09:47:21Z</time>
      </trkpt>
      <trkpt lat="46.18243" lon="-1.30014">
        <ele>8</ele>
        <time>2025-07-02T09:47:24Z</time>
      </trkpt>
      <trkpt lat="46.18239" lon="-1.30016">
        <ele>7.8</ele>
        <time>2025-07-02T09:47:27Z</time>
      </trkpt>
      <trkpt lat="46.1823" lon="-1.30026">
        <ele>7.8</ele>
        <time>2025-07-02T09:47:35Z</time>
      </trkpt>
      <trkpt lat="46.18217" lon="-1.30037">
        <ele>8</ele>
        <time>2025-07-02T09:47:44Z</time>
      </trkpt>
      <trkpt lat="46.18215" lon="-1.30038">
        <ele>7.8</ele>
        <time>2025-07-02T09:47:45Z</time>
      </trkpt>
      <trkpt lat="46.18211" lon="-1.30039">
        <ele>7.8</ele>
        <time>2025-07-02T09:47:49Z</time>
      </trkpt>
      <trkpt lat="46.1821" lon="-1.3004">
        <ele>7.8</ele>
        <time>2025-07-02T09:47:50Z</time>
      </trkpt>
      <trkpt lat="46.18209" lon="-1.3004">
        <ele>7.6</ele>
        <time>2025-07-02T09:47:51Z</time>
      </trkpt>
      <trkpt lat="46.18199" lon="-1.30045">
        <ele>7.6</ele>
        <time>2025-07-02T09:47:59Z</time>
      </trkpt>
      <trkpt lat="46.18192" lon="-1.30055">
        <ele>7.8</ele>
        <time>2025-07-02T09:48:06Z</time>
      </trkpt>
      <trkpt lat="46.1819" lon="-1.30058">
        <ele>7.6</ele>
        <time>2025-07-02T09:48:09Z</time>
      </trkpt>
      <trkpt lat="46.18189" lon="-1.3006">
        <ele>7.6</ele>
        <time>2025-07-02T09:48:11Z</time>
      </trkpt>
      <trkpt lat="46.18186" lon="-1.30063">
        <ele>7.6</ele>
        <time>2025-07-02T09:48:14Z</time>
      </trkpt>
      <trkpt lat="46.18181" lon="-1.30065">
        <ele>7.4</ele>
        <time>2025-07-02T09:48:17Z</time>
      </trkpt>
      <trkpt lat="46.18176" lon="-1.3007">
        <ele>7.4</ele>
        <time>2025-07-02T09:48:21Z</time>
      </trkpt>
      <trkpt lat="46.18172" lon="-1.3007">
        <ele>7.4</ele>
        <time>2025-07-02T09:48:23Z</time>
      </trkpt>
      <trkpt lat="46.18171" lon="-1.30071">
        <ele>7.4</ele>
        <time>2025-07-02T09:48:24Z</time>
      </trkpt>
      <trkpt lat="46.18168" lon="-1.3007">
        <ele>7.4</ele>
        <time>2025-07-02T09:48:27Z</time>
      </trkpt>
      <trkpt lat="46.18164" lon="-1.30071">
        <ele>7.4</ele>
        <time>2025-07-02T09:48:30Z</time>
      </trkpt>
      <trkpt lat="46.18154" lon="-1.30076">
        <ele>7.6</ele>
        <time>2025-07-02T09:48:37Z</time>
      </trkpt>
      <trkpt lat="46.18145" lon="-1.30078">
        <ele>7.6</ele>
        <time>2025-07-02T09:48:42Z</time>
      </trkpt>
      <trkpt lat="46.18142" lon="-1.3008">
        <ele>7.6</ele>
        <time>2025-07-02T09:48:44Z</time>
      </trkpt>
      <trkpt lat="46.18139" lon="-1.30084">
        <ele>7.6</ele>
        <time>2025-07-02T09:48:46Z</time>
      </trkpt>
      <trkpt lat="46.18135" lon="-1.30088">
        <ele>7.8</ele>
        <time>2025-07-02T09:48:50Z</time>
      </trkpt>
      <trkpt lat="46.18122" lon="-1.30093">
        <ele>7.8</ele>
        <time>2025-07-02T09:48:57Z</time>
      </trkpt>
      <trkpt lat="46.18108" lon="-1.30099">
        <ele>7.8</ele>
        <time>2025-07-02T09:49:07Z</time>
      </trkpt>
      <trkpt lat="46.18094" lon="-1.30104">
        <ele>8</ele>
        <time>2025-07-02T09:49:18Z</time>
      </trkpt>
      <trkpt lat="46.18085" lon="-1.30109">
        <ele>7.8</ele>
        <time>2025-07-02T09:49:25Z</time>
      </trkpt>
      <trkpt lat="46.18075" lon="-1.30112">
        <ele>8</ele>
        <time>2025-07-02T09:49:32Z</time>
      </trkpt>
      <trkpt lat="46.18065" lon="-1.30116">
        <ele>8.2</ele>
        <time>2025-07-02T09:49:38Z</time>
      </trkpt>
      <trkpt lat="46.18062" lon="-1.30116">
        <ele>8.2</ele>
        <time>2025-07-02T09:49:40Z</time>
      </trkpt>
      <trkpt lat="46.18054" lon="-1.30121">
        <ele>8</ele>
        <time>2025-07-02T09:49:46Z</time>
      </trkpt>
      <trkpt lat="46.18044" lon="-1.30127">
        <ele>8.2</ele>
        <time>2025-07-02T09:49:54Z</time>
      </trkpt>
      <trkpt lat="46.1804" lon="-1.30127">
        <ele>8.2</ele>
        <time>2025-07-02T09:49:56Z</time>
      </trkpt>
      <trkpt lat="46.18032" lon="-1.30132">
        <ele>8.2</ele>
        <time>2025-07-02T09:50:02Z</time>
      </trkpt>
      <trkpt lat="46.18022" lon="-1.3014">
        <ele>8.2</ele>
        <time>2025-07-02T09:50:10Z</time>
      </trkpt>
      <trkpt lat="46.1802" lon="-1.30141">
        <ele>8.2</ele>
        <time>2025-07-02T09:50:11Z</time>
      </trkpt>
      <trkpt lat="46.18019" lon="-1.30141">
        <ele>8.2</ele>
        <time>2025-07-02T09:50:12Z</time>
      </trkpt>
      <trkpt lat="46.18011" lon="-1.30148">
        <ele>8</ele>
        <time>2025-07-02T09:50:18Z</time>
      </trkpt>
      <trkpt lat="46.18009" lon="-1.30149">
        <ele>8.2</ele>
        <time>2025-07-02T09:50:20Z</time>
      </trkpt>
      <trkpt lat="46.17999" lon="-1.30155">
        <ele>8.2</ele>
        <time>2025-07-02T09:50:28Z</time>
      </trkpt>
      <trkpt lat="46.17984" lon="-1.30167">
        <ele>8</ele>
        <time>2025-07-02T09:50:41Z</time>
      </trkpt>
      <trkpt lat="46.17969" lon="-1.30175">
        <ele>8</ele>
        <time>2025-07-02T09:50:51Z</time>
      </trkpt>
      <trkpt lat="46.17957" lon="-1.30181">
        <ele>7.8</ele>
        <time>2025-07-02T09:51:00Z</time>
      </trkpt>
      <trkpt lat="46.1795" lon="-1.30186">
        <ele>8</ele>
        <time>2025-07-02T09:51:06Z</time>
      </trkpt>
      <trkpt lat="46.17946" lon="-1.30187">
        <ele>8</ele>
        <time>2025-07-02T09:51:09Z</time>
      </trkpt>
      <trkpt lat="46.17942" lon="-1.30189">
        <ele>8</ele>
        <time>2025-07-02T09:51:12Z</time>
      </trkpt>
      <trkpt lat="46.17933" lon="-1.30195">
        <ele>7.8</ele>
        <time>2025-07-02T09:51:20Z</time>
      </trkpt>
      <trkpt lat="46.17931" lon="-1.30195">
        <ele>7.8</ele>
        <time>2025-07-02T09:51:21Z</time>
      </trkpt>
      <trkpt lat="46.17925" lon="-1.30198">
        <ele>7.6</ele>
        <time>2025-07-02T09:51:26Z</time>
      </trkpt>
      <trkpt lat="46.1792" lon="-1.30201">
        <ele>7.6</ele>
        <time>2025-07-02T09:51:31Z</time>
      </trkpt>
      <trkpt lat="46.17918" lon="-1.30203">
        <ele>7.4</ele>
        <time>2025-07-02T09:51:33Z</time>
      </trkpt>
      <trkpt lat="46.17915" lon="-1.30204">
        <ele>7.4</ele>
        <time>2025-07-02T09:51:35Z</time>
      </trkpt>
      <trkpt lat="46.17902" lon="-1.30207">
        <ele>7.2</ele>
        <time>2025-07-02T09:51:44Z</time>
      </trkpt>
      <trkpt lat="46.17901" lon="-1.30208">
        <ele>7.2</ele>
        <time>2025-07-02T09:51:45Z</time>
      </trkpt>
      <trkpt lat="46.17893" lon="-1.30212">
        <ele>7.2</ele>
        <time>2025-07-02T09:51:52Z</time>
      </trkpt>
      <trkpt lat="46.17879" lon="-1.30214">
        <ele>7</ele>
        <time>2025-07-02T09:52:00Z</time>
      </trkpt>
      <trkpt lat="46.17875" lon="-1.30215">
        <ele>7</ele>
        <time>2025-07-02T09:52:03Z</time>
      </trkpt>
      <trkpt lat="46.17872" lon="-1.30215">
        <ele>7</ele>
        <time>2025-07-02T09:52:05Z</time>
      </trkpt>
      <trkpt lat="46.17871" lon="-1.30215">
        <ele>6.8</ele>
        <time>2025-07-02T09:52:06Z</time>
      </trkpt>
      <trkpt lat="46.17859" lon="-1.30223">
        <ele>6.8</ele>
        <time>2025-07-02T09:52:14Z</time>
      </trkpt>
      <trkpt lat="46.17858" lon="-1.30224">
        <ele>6.8</ele>
        <time>2025-07-02T09:52:15Z</time>
      </trkpt>
      <trkpt lat="46.17845" lon="-1.30232">
        <ele>6.4</ele>
        <time>2025-07-02T09:52:24Z</time>
      </trkpt>
      <trkpt lat="46.17838" lon="-1.30234">
        <ele>6</ele>
        <time>2025-07-02T09:52:29Z</time>
      </trkpt>
      <trkpt lat="46.17836" lon="-1.30236">
        <ele>6</ele>
        <time>2025-07-02T09:52:31Z</time>
      </trkpt>
      <trkpt lat="46.17835" lon="-1.30237">
        <ele>6</ele>
        <time>2025-07-02T09:52:32Z</time>
      </trkpt>
      <trkpt lat="46.17826" lon="-1.30243">
        <ele>5.8</ele>
        <time>2025-07-02T09:52:38Z</time>
      </trkpt>
      <trkpt lat="46.17819" lon="-1.30247">
        <ele>5.6</ele>
        <time>2025-07-02T09:52:44Z</time>
      </trkpt>
      <trkpt lat="46.17811" lon="-1.30253">
        <ele>5.6</ele>
        <time>2025-07-02T09:52:51Z</time>
      </trkpt>
      <trkpt lat="46.1781" lon="-1.30254">
        <ele>5.6</ele>
        <time>2025-07-02T09:52:52Z</time>
      </trkpt>
      <trkpt lat="46.17805" lon="-1.30258">
        <ele>5.2</ele>
        <time>2025-07-02T09:52:56Z</time>
      </trkpt>
      <trkpt lat="46.17799" lon="-1.30263">
        <ele>5</ele>
        <time>2025-07-02T09:53:01Z</time>
      </trkpt>
      <trkpt lat="46.17792" lon="-1.30265">
        <ele>5</ele>
        <time>2025-07-02T09:53:06Z</time>
      </trkpt>
      <trkpt lat="46.17785" lon="-1.3027">
        <ele>5</ele>
        <time>2025-07-02T09:53:12Z</time>
      </trkpt>
      <trkpt lat="46.17783" lon="-1.30272">
        <ele>4.8</ele>
        <time>2025-07-02T09:53:14Z</time>
      </trkpt>
      <trkpt lat="46.17774" lon="-1.3028">
        <ele>4.8</ele>
        <time>2025-07-02T09:53:20Z</time>
      </trkpt>
      <trkpt lat="46.17761" lon="-1.30286">
        <ele>4.8</ele>
        <time>2025-07-02T09:53:31Z</time>
      </trkpt>
      <trkpt lat="46.17749" lon="-1.30292">
        <ele>4.6</ele>
        <time>2025-07-02T09:53:40Z</time>
      </trkpt>
      <trkpt lat="46.17737" lon="-1.303">
        <ele>4.6</ele>
        <time>2025-07-02T09:53:51Z</time>
      </trkpt>
      <trkpt lat="46.17727" lon="-1.30308">
        <ele>4.6</ele>
        <time>2025-07-02T09:54:00Z</time>
      </trkpt>
      <trkpt lat="46.17714" lon="-1.30316">
        <ele>4.8</ele>
        <time>2025-07-02T09:54:09Z</time>
      </trkpt>
      <trkpt lat="46.17704" lon="-1.30322">
        <ele>5</ele>
        <time>2025-07-02T09:54:17Z</time>
      </trkpt>
      <trkpt lat="46.17692" lon="-1.3033">
        <ele>5.2</ele>
        <time>2025-07-02T09:54:30Z</time>
      </trkpt>
      <trkpt lat="46.17692" lon="-1.3033">
        <ele>5.2</ele>
        <time>2025-07-02T09:54:31Z</time>
      </trkpt>
      <trkpt lat="46.17691" lon="-1.30331">
        <ele>5.2</ele>
        <time>2025-07-02T09:54:32Z</time>
      </trkpt>
      <trkpt lat="46.17691" lon="-1.30334">
        <ele>4.6</ele>
        <time>2025-07-02T09:55:30Z</time>
      </trkpt>
      <trkpt lat="46.17691" lon="-1.30335">
        <ele>4.8</ele>
        <time>2025-07-02T09:55:33Z</time>
      </trkpt>
      <trkpt lat="46.17679" lon="-1.30342">
        <ele>5</ele>
        <time>2025-07-02T09:55:40Z</time>
      </trkpt>
      <trkpt lat="46.17671" lon="-1.3035">
        <ele>5</ele>
        <time>2025-07-02T09:55:47Z</time>
      </trkpt>
      <trkpt lat="46.17667" lon="-1.30355">
        <ele>5.2</ele>
        <time>2025-07-02T09:55:51Z</time>
      </trkpt>
      <trkpt lat="46.17662" lon="-1.3036">
        <ele>5.4</ele>
        <time>2025-07-02T09:55:55Z</time>
      </trkpt>
      <trkpt lat="46.17654" lon="-1.30365">
        <ele>5.8</ele>
        <time>2025-07-02T09:56:03Z</time>
      </trkpt>
      <trkpt lat="46.17652" lon="-1.30366">
        <ele>5.8</ele>
        <time>2025-07-02T09:56:04Z</time>
      </trkpt>
      <trkpt lat="46.17647" lon="-1.30369">
        <ele>5.6</ele>
        <time>2025-07-02T09:56:09Z</time>
      </trkpt>
      <trkpt lat="46.17638" lon="-1.30376">
        <ele>5.8</ele>
        <time>2025-07-02T09:56:17Z</time>
      </trkpt>
      <trkpt lat="46.17637" lon="-1.30378">
        <ele>5.8</ele>
        <time>2025-07-02T09:56:18Z</time>
      </trkpt>
      <trkpt lat="46.1763" lon="-1.30385">
        <ele>6</ele>
        <time>2025-07-02T09:56:25Z</time>
      </trkpt>
      <trkpt lat="46.17628" lon="-1.30387">
        <ele>6.2</ele>
        <time>2025-07-02T09:56:27Z</time>
      </trkpt>
      <trkpt lat="46.17615" lon="-1.30397">
        <ele>6.4</ele>
        <time>2025-07-02T09:56:37Z</time>
      </trkpt>
      <trkpt lat="46.17606" lon="-1.30404">
        <ele>6.6</ele>
        <time>2025-07-02T09:56:45Z</time>
      </trkpt>
      <trkpt lat="46.17595" lon="-1.30409">
        <ele>6.8</ele>
        <time>2025-07-02T09:56:53Z</time>
      </trkpt>
      <trkpt lat="46.17581" lon="-1.30416">
        <ele>7</ele>
        <time>2025-07-02T09:57:04Z</time>
      </trkpt>
      <trkpt lat="46.17575" lon="-1.30418">
        <ele>7.2</ele>
        <time>2025-07-02T09:57:08Z</time>
      </trkpt>
      <trkpt lat="46.17567" lon="-1.30422">
        <ele>7.2</ele>
        <time>2025-07-02T09:57:14Z</time>
      </trkpt>
      <trkpt lat="46.17555" lon="-1.30428">
        <ele>7.4</ele>
        <time>2025-07-02T09:57:23Z</time>
      </trkpt>
      <trkpt lat="46.17549" lon="-1.30433">
        <ele>7.6</ele>
        <time>2025-07-02T09:57:29Z</time>
      </trkpt>
      <trkpt lat="46.17544" lon="-1.30435">
        <ele>7.6</ele>
        <time>2025-07-02T09:57:34Z</time>
      </trkpt>
      <trkpt lat="46.17541" lon="-1.30437">
        <ele>7.6</ele>
        <time>2025-07-02T09:57:36Z</time>
      </trkpt>
      <trkpt lat="46.17535" lon="-1.30438">
        <ele>7.8</ele>
        <time>2025-07-02T09:57:41Z</time>
      </trkpt>
      <trkpt lat="46.17532" lon="-1.3044">
        <ele>7.8</ele>
        <time>2025-07-02T09:57:43Z</time>
      </trkpt>
      <trkpt lat="46.17528" lon="-1.30442">
        <ele>7.8</ele>
        <time>2025-07-02T09:57:46Z</time>
      </trkpt>
      <trkpt lat="46.17525" lon="-1.30448">
        <ele>8</ele>
        <time>2025-07-02T09:57:50Z</time>
      </trkpt>
      <trkpt lat="46.17518" lon="-1.30452">
        <ele>8</ele>
        <time>2025-07-02T09:57:57Z</time>
      </trkpt>
      <trkpt lat="46.17515" lon="-1.30455">
        <ele>8.2</ele>
        <time>2025-07-02T09:58:00Z</time>
      </trkpt>
      <trkpt lat="46.1751" lon="-1.3046">
        <ele>8.4</ele>
        <time>2025-07-02T09:58:05Z</time>
      </trkpt>
      <trkpt lat="46.175" lon="-1.30466">
        <ele>8.6</ele>
        <time>2025-07-02T09:58:14Z</time>
      </trkpt>
      <trkpt lat="46.17496" lon="-1.30467">
        <ele>8.6</ele>
        <time>2025-07-02T09:58:17Z</time>
      </trkpt>
      <trkpt lat="46.17493" lon="-1.30467">
        <ele>8.8</ele>
        <time>2025-07-02T09:58:20Z</time>
      </trkpt>
      <trkpt lat="46.17486" lon="-1.30468">
        <ele>9</ele>
        <time>2025-07-02T09:58:28Z</time>
      </trkpt>
      <trkpt lat="46.17475" lon="-1.30465">
        <ele>9</ele>
        <time>2025-07-02T09:58:36Z</time>
      </trkpt>
      <trkpt lat="46.17474" lon="-1.30465">
        <ele>9</ele>
        <time>2025-07-02T09:58:37Z</time>
      </trkpt>
      <trkpt lat="46.17467" lon="-1.30468">
        <ele>8.8</ele>
        <time>2025-07-02T09:58:42Z</time>
      </trkpt>
      <trkpt lat="46.1746" lon="-1.30472">
        <ele>9</ele>
        <time>2025-07-02T09:58:48Z</time>
      </trkpt>
      <trkpt lat="46.17459" lon="-1.30472">
        <ele>9</ele>
        <time>2025-07-02T09:58:49Z</time>
      </trkpt>
      <trkpt lat="46.1745" lon="-1.30477">
        <ele>9</ele>
        <time>2025-07-02T09:58:56Z</time>
      </trkpt>
      <trkpt lat="46.17443" lon="-1.30483">
        <ele>9</ele>
        <time>2025-07-02T09:59:01Z</time>
      </trkpt>
      <trkpt lat="46.17438" lon="-1.30486">
        <ele>9</ele>
        <time>2025-07-02T09:59:04Z</time>
      </trkpt>
      <trkpt lat="46.17432" lon="-1.30493">
        <ele>9.2</ele>
        <time>2025-07-02T09:59:09Z</time>
      </trkpt>
      <trkpt lat="46.17431" lon="-1.30493">
        <ele>9.2</ele>
        <time>2025-07-02T09:59:10Z</time>
      </trkpt>
      <trkpt lat="46.17429" lon="-1.30494">
        <ele>9.2</ele>
        <time>2025-07-02T09:59:11Z</time>
      </trkpt>
      <trkpt lat="46.17427" lon="-1.30495">
        <ele>9.2</ele>
        <time>2025-07-02T09:59:13Z</time>
      </trkpt>
      <trkpt lat="46.17423" lon="-1.30495">
        <ele>9.4</ele>
        <time>2025-07-02T09:59:16Z</time>
      </trkpt>
      <trkpt lat="46.17422" lon="-1.30495">
        <ele>9.4</ele>
        <time>2025-07-02T09:59:17Z</time>
      </trkpt>
      <trkpt lat="46.17415" lon="-1.30502">
        <ele>9.2</ele>
        <time>2025-07-02T09:59:23Z</time>
      </trkpt>
      <trkpt lat="46.17413" lon="-1.30503">
        <ele>9.4</ele>
        <time>2025-07-02T09:59:25Z</time>
      </trkpt>
      <trkpt lat="46.17411" lon="-1.30505">
        <ele>9.4</ele>
        <time>2025-07-02T09:59:27Z</time>
      </trkpt>
      <trkpt lat="46.17405" lon="-1.30507">
        <ele>9.2</ele>
        <time>2025-07-02T09:59:31Z</time>
      </trkpt>
      <trkpt lat="46.17398" lon="-1.30512">
        <ele>9.2</ele>
        <time>2025-07-02T09:59:36Z</time>
      </trkpt>
      <trkpt lat="46.17396" lon="-1.30512">
        <ele>9.2</ele>
        <time>2025-07-02T09:59:37Z</time>
      </trkpt>
      <trkpt lat="46.17393" lon="-1.30514">
        <ele>9.2</ele>
        <time>2025-07-02T09:59:40Z</time>
      </trkpt>
      <trkpt lat="46.17388" lon="-1.30518">
        <ele>9.4</ele>
        <time>2025-07-02T09:59:44Z</time>
      </trkpt>
      <trkpt lat="46.17385" lon="-1.30518">
        <ele>9.4</ele>
        <time>2025-07-02T09:59:45Z</time>
      </trkpt>
      <trkpt lat="46.1738" lon="-1.30521">
        <ele>9.4</ele>
        <time>2025-07-02T09:59:49Z</time>
      </trkpt>
      <trkpt lat="46.17379" lon="-1.30522">
        <ele>9.4</ele>
        <time>2025-07-02T09:59:50Z</time>
      </trkpt>
      <trkpt lat="46.17375" lon="-1.30529">
        <ele>9.4</ele>
        <time>2025-07-02T09:59:56Z</time>
      </trkpt>
      <trkpt lat="46.17369" lon="-1.3054">
        <ele>9.6</ele>
        <time>2025-07-02T10:00:03Z</time>
      </trkpt>
      <trkpt lat="46.17362" lon="-1.30547">
        <ele>9.6</ele>
        <time>2025-07-02T10:00:10Z</time>
      </trkpt>
      <trkpt lat="46.17353" lon="-1.30547">
        <ele>10</ele>
        <time>2025-07-02T10:00:19Z</time>
      </trkpt>
      <trkpt lat="46.17342" lon="-1.30552">
        <ele>10</ele>
        <time>2025-07-02T10:00:28Z</time>
      </trkpt>
      <trkpt lat="46.17331" lon="-1.30557">
        <ele>10</ele>
        <time>2025-07-02T10:00:37Z</time>
      </trkpt>
      <trkpt lat="46.17329" lon="-1.30556">
        <ele>10</ele>
        <time>2025-07-02T10:00:39Z</time>
      </trkpt>
      <trkpt lat="46.17324" lon="-1.30561">
        <ele>10</ele>
        <time>2025-07-02T10:00:44Z</time>
      </trkpt>
      <trkpt lat="46.17317" lon="-1.30567">
        <ele>10</ele>
        <time>2025-07-02T10:00:50Z</time>
      </trkpt>
      <trkpt lat="46.17311" lon="-1.30572">
        <ele>10.2</ele>
        <time>2025-07-02T10:00:55Z</time>
      </trkpt>
      <trkpt lat="46.17309" lon="-1.30576">
        <ele>10.2</ele>
        <time>2025-07-02T10:00:57Z</time>
      </trkpt>
      <trkpt lat="46.17301" lon="-1.30582">
        <ele>10.2</ele>
        <time>2025-07-02T10:01:04Z</time>
      </trkpt>
      <trkpt lat="46.17292" lon="-1.30588">
        <ele>10.4</ele>
        <time>2025-07-02T10:01:12Z</time>
      </trkpt>
      <trkpt lat="46.17282" lon="-1.30594">
        <ele>10.4</ele>
        <time>2025-07-02T10:01:21Z</time>
      </trkpt>
      <trkpt lat="46.17273" lon="-1.30591">
        <ele>10.6</ele>
        <time>2025-07-02T10:01:29Z</time>
      </trkpt>
      <trkpt lat="46.17262" lon="-1.30587">
        <ele>10.4</ele>
        <time>2025-07-02T10:01:38Z</time>
      </trkpt>
      <trkpt lat="46.1726" lon="-1.30587">
        <ele>10.4</ele>
        <time>2025-07-02T10:01:40Z</time>
      </trkpt>
      <trkpt lat="46.17254" lon="-1.30589">
        <ele>10.4</ele>
        <time>2025-07-02T10:01:45Z</time>
      </trkpt>
      <trkpt lat="46.17251" lon="-1.30591">
        <ele>10.4</ele>
        <time>2025-07-02T10:01:47Z</time>
      </trkpt>
      <trkpt lat="46.17249" lon="-1.30593">
        <ele>10.2</ele>
        <time>2025-07-02T10:01:49Z</time>
      </trkpt>
      <trkpt lat="46.17245" lon="-1.30594">
        <ele>10.2</ele>
        <time>2025-07-02T10:01:51Z</time>
      </trkpt>
      <trkpt lat="46.17244" lon="-1.30595">
        <ele>10.2</ele>
        <time>2025-07-02T10:01:53Z</time>
      </trkpt>
      <trkpt lat="46.17239" lon="-1.30596">
        <ele>10.2</ele>
        <time>2025-07-02T10:01:57Z</time>
      </trkpt>
      <trkpt lat="46.17235" lon="-1.30599">
        <ele>10.2</ele>
        <time>2025-07-02T10:02:02Z</time>
      </trkpt>
      <trkpt lat="46.17224" lon="-1.30595">
        <ele>10.2</ele>
        <time>2025-07-02T10:02:08Z</time>
      </trkpt>
      <trkpt lat="46.17222" lon="-1.30595">
        <ele>10.2</ele>
        <time>2025-07-02T10:02:09Z</time>
      </trkpt>
      <trkpt lat="46.17211" lon="-1.30595">
        <ele>10</ele>
        <time>2025-07-02T10:02:16Z</time>
      </trkpt>
      <trkpt lat="46.17202" lon="-1.30597">
        <ele>10.2</ele>
        <time>2025-07-02T10:02:23Z</time>
      </trkpt>
      <trkpt lat="46.17197" lon="-1.30595">
        <ele>10.4</ele>
        <time>2025-07-02T10:02:29Z</time>
      </trkpt>
      <trkpt lat="46.17189" lon="-1.30596">
        <ele>10.4</ele>
        <time>2025-07-02T10:02:35Z</time>
      </trkpt>
      <trkpt lat="46.1718" lon="-1.30602">
        <ele>10.4</ele>
        <time>2025-07-02T10:02:42Z</time>
      </trkpt>
      <trkpt lat="46.1717" lon="-1.30601">
        <ele>10.4</ele>
        <time>2025-07-02T10:02:50Z</time>
      </trkpt>
      <trkpt lat="46.17169" lon="-1.30599">
        <ele>10.4</ele>
        <time>2025-07-02T10:02:51Z</time>
      </trkpt>
      <trkpt lat="46.17165" lon="-1.30595">
        <ele>10.4</ele>
        <time>2025-07-02T10:02:55Z</time>
      </trkpt>
      <trkpt lat="46.17164" lon="-1.30593">
        <ele>10.4</ele>
        <time>2025-07-02T10:02:57Z</time>
      </trkpt>
      <trkpt lat="46.17153" lon="-1.30579">
        <ele>10.6</ele>
        <time>2025-07-02T10:03:09Z</time>
      </trkpt>
      <trkpt lat="46.17141" lon="-1.30575">
        <ele>10.4</ele>
        <time>2025-07-02T10:03:17Z</time>
      </trkpt>
      <trkpt lat="46.17133" lon="-1.30575">
        <ele>10.4</ele>
        <time>2025-07-02T10:03:23Z</time>
      </trkpt>
      <trkpt lat="46.17131" lon="-1.30575">
        <ele>10.4</ele>
        <time>2025-07-02T10:03:25Z</time>
      </trkpt>
      <trkpt lat="46.1713" lon="-1.30576">
        <ele>10.4</ele>
        <time>2025-07-02T10:03:27Z</time>
      </trkpt>
      <trkpt lat="46.17128" lon="-1.30576">
        <ele>10.4</ele>
        <time>2025-07-02T10:03:28Z</time>
      </trkpt>
      <trkpt lat="46.17126" lon="-1.30577">
        <ele>10.4</ele>
        <time>2025-07-02T10:03:31Z</time>
      </trkpt>
      <trkpt lat="46.17121" lon="-1.30581">
        <ele>10.4</ele>
        <time>2025-07-02T10:03:36Z</time>
      </trkpt>
      <trkpt lat="46.17113" lon="-1.30585">
        <ele>10.4</ele>
        <time>2025-07-02T10:03:42Z</time>
      </trkpt>
      <trkpt lat="46.17111" lon="-1.30586">
        <ele>10.4</ele>
        <time>2025-07-02T10:03:43Z</time>
      </trkpt>
      <trkpt lat="46.17099" lon="-1.30584">
        <ele>10.6</ele>
        <time>2025-07-02T10:03:51Z</time>
      </trkpt>
      <trkpt lat="46.17091" lon="-1.30585">
        <ele>10.6</ele>
        <time>2025-07-02T10:03:58Z</time>
      </trkpt>
      <trkpt lat="46.17086" lon="-1.30585">
        <ele>10.6</ele>
        <time>2025-07-02T10:04:01Z</time>
      </trkpt>
      <trkpt lat="46.17081" lon="-1.30586">
        <ele>10.4</ele>
        <time>2025-07-02T10:04:04Z</time>
      </trkpt>
      <trkpt lat="46.17076" lon="-1.30588">
        <ele>10.4</ele>
        <time>2025-07-02T10:04:09Z</time>
      </trkpt>
      <trkpt lat="46.17075" lon="-1.30588">
        <ele>10.4</ele>
        <time>2025-07-02T10:04:10Z</time>
      </trkpt>
      <trkpt lat="46.17074" lon="-1.30589">
        <ele>10.4</ele>
        <time>2025-07-02T10:04:11Z</time>
      </trkpt>
      <trkpt lat="46.1707" lon="-1.3059">
        <ele>10.2</ele>
        <time>2025-07-02T10:04:14Z</time>
      </trkpt>
      <trkpt lat="46.17062" lon="-1.3059">
        <ele>10.2</ele>
        <time>2025-07-02T10:04:19Z</time>
      </trkpt>
      <trkpt lat="46.17061" lon="-1.30589">
        <ele>10.2</ele>
        <time>2025-07-02T10:04:20Z</time>
      </trkpt>
      <trkpt lat="46.17059" lon="-1.30589">
        <ele>10.2</ele>
        <time>2025-07-02T10:04:22Z</time>
      </trkpt>
      <trkpt lat="46.17052" lon="-1.30591">
        <ele>10.4</ele>
        <time>2025-07-02T10:04:27Z</time>
      </trkpt>
      <trkpt lat="46.17051" lon="-1.30592">
        <ele>10.4</ele>
        <time>2025-07-02T10:04:28Z</time>
      </trkpt>
      <trkpt lat="46.17048" lon="-1.30594">
        <ele>10.4</ele>
        <time>2025-07-02T10:04:31Z</time>
      </trkpt>
      <trkpt lat="46.17046" lon="-1.30597">
        <ele>10.2</ele>
        <time>2025-07-02T10:04:33Z</time>
      </trkpt>
      <trkpt lat="46.17043" lon="-1.306">
        <ele>10.2</ele>
        <time>2025-07-02T10:04:36Z</time>
      </trkpt>
      <trkpt lat="46.1704" lon="-1.30602">
        <ele>10.2</ele>
        <time>2025-07-02T10:04:39Z</time>
      </trkpt>
      <trkpt lat="46.17039" lon="-1.30603">
        <ele>10.2</ele>
        <time>2025-07-02T10:04:40Z</time>
      </trkpt>
      <trkpt lat="46.17036" lon="-1.30606">
        <ele>10.2</ele>
        <time>2025-07-02T10:04:42Z</time>
      </trkpt>
      <trkpt lat="46.17031" lon="-1.30611">
        <ele>10.2</ele>
        <time>2025-07-02T10:04:46Z</time>
      </trkpt>
      <trkpt lat="46.17025" lon="-1.30617">
        <ele>10</ele>
        <time>2025-07-02T10:04:51Z</time>
      </trkpt>
      <trkpt lat="46.17022" lon="-1.30621">
        <ele>10</ele>
        <time>2025-07-02T10:04:54Z</time>
      </trkpt>
      <trkpt lat="46.17021" lon="-1.30622">
        <ele>10</ele>
        <time>2025-07-02T10:04:55Z</time>
      </trkpt>
      <trkpt lat="46.17016" lon="-1.30625">
        <ele>10</ele>
        <time>2025-07-02T10:04:59Z</time>
      </trkpt>
      <trkpt lat="46.17015" lon="-1.30626">
        <ele>10.2</ele>
        <time>2025-07-02T10:05:00Z</time>
      </trkpt>
      <trkpt lat="46.17012" lon="-1.30633">
        <ele>10.2</ele>
        <time>2025-07-02T10:05:05Z</time>
      </trkpt>
      <trkpt lat="46.17002" lon="-1.30641">
        <ele>10.4</ele>
        <time>2025-07-02T10:05:13Z</time>
      </trkpt>
      <trkpt lat="46.16993" lon="-1.30645">
        <ele>10.4</ele>
        <time>2025-07-02T10:05:20Z</time>
      </trkpt>
      <trkpt lat="46.16991" lon="-1.30645">
        <ele>10.4</ele>
        <time>2025-07-02T10:05:21Z</time>
      </trkpt>
      <trkpt lat="46.16988" lon="-1.30647">
        <ele>10.6</ele>
        <time>2025-07-02T10:05:24Z</time>
      </trkpt>
      <trkpt lat="46.16979" lon="-1.30653">
        <ele>10.6</ele>
        <time>2025-07-02T10:05:32Z</time>
      </trkpt>
      <trkpt lat="46.16975" lon="-1.30654">
        <ele>10.8</ele>
        <time>2025-07-02T10:05:35Z</time>
      </trkpt>
      <trkpt lat="46.16972" lon="-1.30654">
        <ele>10.6</ele>
        <time>2025-07-02T10:05:37Z</time>
      </trkpt>
      <trkpt lat="46.16963" lon="-1.30661">
        <ele>10.8</ele>
        <time>2025-07-02T10:05:45Z</time>
      </trkpt>
      <trkpt lat="46.16954" lon="-1.30666">
        <ele>10.8</ele>
        <time>2025-07-02T10:05:52Z</time>
      </trkpt>
      <trkpt lat="46.16953" lon="-1.30667">
        <ele>10.8</ele>
        <time>2025-07-02T10:05:53Z</time>
      </trkpt>
      <trkpt lat="46.16952" lon="-1.30667">
        <ele>10.8</ele>
        <time>2025-07-02T10:05:54Z</time>
      </trkpt>
      <trkpt lat="46.16949" lon="-1.30672">
        <ele>10.8</ele>
        <time>2025-07-02T10:05:57Z</time>
      </trkpt>
      <trkpt lat="46.1694" lon="-1.30674">
        <ele>10.8</ele>
        <time>2025-07-02T10:06:05Z</time>
      </trkpt>
      <trkpt lat="46.16931" lon="-1.30675">
        <ele>10.8</ele>
        <time>2025-07-02T10:06:12Z</time>
      </trkpt>
      <trkpt lat="46.16926" lon="-1.30675">
        <ele>10.8</ele>
        <time>2025-07-02T10:06:18Z</time>
      </trkpt>
      <trkpt lat="46.16921" lon="-1.30678">
        <ele>11</ele>
        <time>2025-07-02T10:06:23Z</time>
      </trkpt>
      <trkpt lat="46.1692" lon="-1.30678">
        <ele>11</ele>
        <time>2025-07-02T10:06:24Z</time>
      </trkpt>
      <trkpt lat="46.16914" lon="-1.30681">
        <ele>11</ele>
        <time>2025-07-02T10:06:29Z</time>
      </trkpt>
      <trkpt lat="46.16913" lon="-1.30682">
        <ele>11</ele>
        <time>2025-07-02T10:06:30Z</time>
      </trkpt>
      <trkpt lat="46.16908" lon="-1.30684">
        <ele>11.2</ele>
        <time>2025-07-02T10:06:34Z</time>
      </trkpt>
      <trkpt lat="46.16906" lon="-1.30684">
        <ele>11.2</ele>
        <time>2025-07-02T10:06:35Z</time>
      </trkpt>
      <trkpt lat="46.16905" lon="-1.30683">
        <ele>11.2</ele>
        <time>2025-07-02T10:06:36Z</time>
      </trkpt>
      <trkpt lat="46.16904" lon="-1.30684">
        <ele>11.2</ele>
        <time>2025-07-02T10:06:37Z</time>
      </trkpt>
      <trkpt lat="46.16902" lon="-1.30685">
        <ele>11.2</ele>
        <time>2025-07-02T10:06:39Z</time>
      </trkpt>
      <trkpt lat="46.16901" lon="-1.30685">
        <ele>11.2</ele>
        <time>2025-07-02T10:06:40Z</time>
      </trkpt>
      <trkpt lat="46.16899" lon="-1.30685">
        <ele>11.2</ele>
        <time>2025-07-02T10:06:41Z</time>
      </trkpt>
      <trkpt lat="46.16893" lon="-1.30686">
        <ele>11.2</ele>
        <time>2025-07-02T10:06:45Z</time>
      </trkpt>
      <trkpt lat="46.1689" lon="-1.30688">
        <ele>11.4</ele>
        <time>2025-07-02T10:06:47Z</time>
      </trkpt>
      <trkpt lat="46.16889" lon="-1.30689">
        <ele>11.4</ele>
        <time>2025-07-02T10:06:48Z</time>
      </trkpt>
      <trkpt lat="46.16886" lon="-1.30692">
        <ele>11.4</ele>
        <time>2025-07-02T10:06:50Z</time>
      </trkpt>
      <trkpt lat="46.16883" lon="-1.30696">
        <ele>11.4</ele>
        <time>2025-07-02T10:06:53Z</time>
      </trkpt>
      <trkpt lat="46.16876" lon="-1.30695">
        <ele>11.4</ele>
        <time>2025-07-02T10:06:58Z</time>
      </trkpt>
      <trkpt lat="46.16875" lon="-1.30695">
        <ele>11.4</ele>
        <time>2025-07-02T10:06:59Z</time>
      </trkpt>
      <trkpt lat="46.16863" lon="-1.30695">
        <ele>11.4</ele>
        <time>2025-07-02T10:07:06Z</time>
      </trkpt>
      <trkpt lat="46.1686" lon="-1.30694">
        <ele>11.4</ele>
        <time>2025-07-02T10:07:08Z</time>
      </trkpt>
      <trkpt lat="46.16854" lon="-1.30694">
        <ele>11.2</ele>
        <time>2025-07-02T10:07:13Z</time>
      </trkpt>
      <trkpt lat="46.16853" lon="-1.30695">
        <ele>11.2</ele>
        <time>2025-07-02T10:07:14Z</time>
      </trkpt>
      <trkpt lat="46.16852" lon="-1.30696">
        <ele>11.2</ele>
        <time>2025-07-02T10:07:15Z</time>
      </trkpt>
      <trkpt lat="46.16847" lon="-1.30699">
        <ele>11.4</ele>
        <time>2025-07-02T10:07:18Z</time>
      </trkpt>
      <trkpt lat="46.16841" lon="-1.30701">
        <ele>11.6</ele>
        <time>2025-07-02T10:07:23Z</time>
      </trkpt>
      <trkpt lat="46.16839" lon="-1.30702">
        <ele>11.6</ele>
        <time>2025-07-02T10:07:25Z</time>
      </trkpt>
      <trkpt lat="46.16838" lon="-1.30703">
        <ele>11.8</ele>
        <time>2025-07-02T10:07:26Z</time>
      </trkpt>
      <trkpt lat="46.16837" lon="-1.30705">
        <ele>11.6</ele>
        <time>2025-07-02T10:07:27Z</time>
      </trkpt>
      <trkpt lat="46.16833" lon="-1.30708">
        <ele>11.6</ele>
        <time>2025-07-02T10:07:31Z</time>
      </trkpt>
      <trkpt lat="46.16826" lon="-1.3071">
        <ele>11.4</ele>
        <time>2025-07-02T10:07:35Z</time>
      </trkpt>
      <trkpt lat="46.16824" lon="-1.3071">
        <ele>11.4</ele>
        <time>2025-07-02T10:07:37Z</time>
      </trkpt>
      <trkpt lat="46.16823" lon="-1.30709">
        <ele>11.4</ele>
        <time>2025-07-02T10:07:38Z</time>
      </trkpt>
      <trkpt lat="46.1682" lon="-1.30704">
        <ele>11.6</ele>
        <time>2025-07-02T10:07:41Z</time>
      </trkpt>
      <trkpt lat="46.16819" lon="-1.30703">
        <ele>11.6</ele>
        <time>2025-07-02T10:07:42Z</time>
      </trkpt>
      <trkpt lat="46.16813" lon="-1.30701">
        <ele>11.4</ele>
        <time>2025-07-02T10:07:47Z</time>
      </trkpt>
      <trkpt lat="46.16812" lon="-1.30698">
        <ele>11.4</ele>
        <time>2025-07-02T10:07:49Z</time>
      </trkpt>
      <trkpt lat="46.16808" lon="-1.30687">
        <ele>11.4</ele>
        <time>2025-07-02T10:07:55Z</time>
      </trkpt>
      <trkpt lat="46.16808" lon="-1.30686">
        <ele>11.4</ele>
        <time>2025-07-02T10:07:56Z</time>
      </trkpt>
      <trkpt lat="46.16807" lon="-1.30683">
        <ele>11.6</ele>
        <time>2025-07-02T10:07:57Z</time>
      </trkpt>
      <trkpt lat="46.16806" lon="-1.3068">
        <ele>11.4</ele>
        <time>2025-07-02T10:07:59Z</time>
      </trkpt>
      <trkpt lat="46.16805" lon="-1.30679">
        <ele>11.4</ele>
        <time>2025-07-02T10:08:00Z</time>
      </trkpt>
      <trkpt lat="46.16805" lon="-1.30677">
        <ele>11.6</ele>
        <time>2025-07-02T10:08:01Z</time>
      </trkpt>
      <trkpt lat="46.16804" lon="-1.30672">
        <ele>11.4</ele>
        <time>2025-07-02T10:08:04Z</time>
      </trkpt>
      <trkpt lat="46.16803" lon="-1.30659">
        <ele>11.6</ele>
        <time>2025-07-02T10:08:10Z</time>
      </trkpt>
      <trkpt lat="46.16802" lon="-1.30653">
        <ele>11.6</ele>
        <time>2025-07-02T10:08:13Z</time>
      </trkpt>
      <trkpt lat="46.16801" lon="-1.30648">
        <ele>11.6</ele>
        <time>2025-07-02T10:08:15Z</time>
      </trkpt>
      <trkpt lat="46.16799" lon="-1.30641">
        <ele>11.4</ele>
        <time>2025-07-02T10:08:18Z</time>
      </trkpt>
      <trkpt lat="46.16799" lon="-1.30639">
        <ele>11.4</ele>
        <time>2025-07-02T10:08:19Z</time>
      </trkpt>
      <trkpt lat="46.16796" lon="-1.3063">
        <ele>11.6</ele>
        <time>2025-07-02T10:08:24Z</time>
      </trkpt>
      <trkpt lat="46.16794" lon="-1.30627">
        <ele>11.6</ele>
        <time>2025-07-02T10:08:26Z</time>
      </trkpt>
      <trkpt lat="46.16792" lon="-1.30619">
        <ele>11.4</ele>
        <time>2025-07-02T10:08:31Z</time>
      </trkpt>
      <trkpt lat="46.1679" lon="-1.30611">
        <ele>11.4</ele>
        <time>2025-07-02T10:08:34Z</time>
      </trkpt>
      <trkpt lat="46.16788" lon="-1.30606">
        <ele>11.4</ele>
        <time>2025-07-02T10:08:37Z</time>
      </trkpt>
      <trkpt lat="46.16785" lon="-1.306">
        <ele>11.4</ele>
        <time>2025-07-02T10:08:40Z</time>
      </trkpt>
      <trkpt lat="46.16785" lon="-1.30599">
        <ele>11.4</ele>
        <time>2025-07-02T10:08:41Z</time>
      </trkpt>
      <trkpt lat="46.16784" lon="-1.3059">
        <ele>11.4</ele>
        <time>2025-07-02T10:08:46Z</time>
      </trkpt>
      <trkpt lat="46.16784" lon="-1.30589">
        <ele>11.4</ele>
        <time>2025-07-02T10:08:47Z</time>
      </trkpt>
      <trkpt lat="46.16783" lon="-1.30585">
        <ele>11.2</ele>
        <time>2025-07-02T10:08:49Z</time>
      </trkpt>
      <trkpt lat="46.1678" lon="-1.30578">
        <ele>11.2</ele>
        <time>2025-07-02T10:08:53Z</time>
      </trkpt>
      <trkpt lat="46.16778" lon="-1.30576">
        <ele>11.2</ele>
        <time>2025-07-02T10:08:55Z</time>
      </trkpt>
      <trkpt lat="46.16775" lon="-1.30572">
        <ele>11.4</ele>
        <time>2025-07-02T10:08:58Z</time>
      </trkpt>
      <trkpt lat="46.1677" lon="-1.30564">
        <ele>11</ele>
        <time>2025-07-02T10:09:05Z</time>
      </trkpt>
      <trkpt lat="46.16769" lon="-1.30548">
        <ele>11</ele>
        <time>2025-07-02T10:09:13Z</time>
      </trkpt>
      <trkpt lat="46.16762" lon="-1.30535">
        <ele>11</ele>
        <time>2025-07-02T10:09:20Z</time>
      </trkpt>
      <trkpt lat="46.16761" lon="-1.30533">
        <ele>11</ele>
        <time>2025-07-02T10:09:21Z</time>
      </trkpt>
      <trkpt lat="46.1676" lon="-1.30531">
        <ele>11</ele>
        <time>2025-07-02T10:09:22Z</time>
      </trkpt>
      <trkpt lat="46.16755" lon="-1.30524">
        <ele>11</ele>
        <time>2025-07-02T10:09:27Z</time>
      </trkpt>
      <trkpt lat="46.16754" lon="-1.30522">
        <ele>11</ele>
        <time>2025-07-02T10:09:29Z</time>
      </trkpt>
      <trkpt lat="46.16749" lon="-1.30516">
        <ele>11</ele>
        <time>2025-07-02T10:09:33Z</time>
      </trkpt>
      <trkpt lat="46.16744" lon="-1.30503">
        <ele>11</ele>
        <time>2025-07-02T10:09:40Z</time>
      </trkpt>
      <trkpt lat="46.1674" lon="-1.30492">
        <ele>11</ele>
        <time>2025-07-02T10:09:46Z</time>
      </trkpt>
      <trkpt lat="46.16739" lon="-1.30491">
        <ele>11</ele>
        <time>2025-07-02T10:09:47Z</time>
      </trkpt>
      <trkpt lat="46.16738" lon="-1.30487">
        <ele>11.2</ele>
        <time>2025-07-02T10:09:49Z</time>
      </trkpt>
      <trkpt lat="46.16738" lon="-1.30485">
        <ele>11.2</ele>
        <time>2025-07-02T10:09:50Z</time>
      </trkpt>
      <trkpt lat="46.16736" lon="-1.30477">
        <ele>11.2</ele>
        <time>2025-07-02T10:09:55Z</time>
      </trkpt>
      <trkpt lat="46.16734" lon="-1.30474">
        <ele>11.2</ele>
        <time>2025-07-02T10:09:57Z</time>
      </trkpt>
      <trkpt lat="46.1673" lon="-1.30461">
        <ele>11</ele>
        <time>2025-07-02T10:10:04Z</time>
      </trkpt>
      <trkpt lat="46.16729" lon="-1.3046">
        <ele>11</ele>
        <time>2025-07-02T10:10:05Z</time>
      </trkpt>
      <trkpt lat="46.16728" lon="-1.30458">
        <ele>11</ele>
        <time>2025-07-02T10:10:06Z</time>
      </trkpt>
      <trkpt lat="46.16726" lon="-1.30455">
        <ele>11</ele>
        <time>2025-07-02T10:10:09Z</time>
      </trkpt>
      <trkpt lat="46.16725" lon="-1.30454">
        <ele>11</ele>
        <time>2025-07-02T10:10:10Z</time>
      </trkpt>
      <trkpt lat="46.16723" lon="-1.30446">
        <ele>11</ele>
        <time>2025-07-02T10:10:14Z</time>
      </trkpt>
      <trkpt lat="46.16723" lon="-1.30443">
        <ele>11</ele>
        <time>2025-07-02T10:10:16Z</time>
      </trkpt>
      <trkpt lat="46.16721" lon="-1.3044">
        <ele>11</ele>
        <time>2025-07-02T10:10:18Z</time>
      </trkpt>
      <trkpt lat="46.16717" lon="-1.30433">
        <ele>10.8</ele>
        <time>2025-07-02T10:10:22Z</time>
      </trkpt>
      <trkpt lat="46.16716" lon="-1.30432">
        <ele>10.8</ele>
        <time>2025-07-02T10:10:23Z</time>
      </trkpt>
      <trkpt lat="46.16709" lon="-1.30425">
        <ele>10.8</ele>
        <time>2025-07-02T10:10:29Z</time>
      </trkpt>
      <trkpt lat="46.16707" lon="-1.30424">
        <ele>10.8</ele>
        <time>2025-07-02T10:10:30Z</time>
      </trkpt>
      <trkpt lat="46.16701" lon="-1.30421">
        <ele>10.8</ele>
        <time>2025-07-02T10:10:34Z</time>
      </trkpt>
      <trkpt lat="46.16701" lon="-1.30413">
        <ele>10.8</ele>
        <time>2025-07-02T10:10:37Z</time>
      </trkpt>
      <trkpt lat="46.16701" lon="-1.30409">
        <ele>11</ele>
        <time>2025-07-02T10:10:39Z</time>
      </trkpt>
      <trkpt lat="46.16701" lon="-1.30405">
        <ele>11</ele>
        <time>2025-07-02T10:10:41Z</time>
      </trkpt>
      <trkpt lat="46.16699" lon="-1.304">
        <ele>11</ele>
        <time>2025-07-02T10:10:44Z</time>
      </trkpt>
      <trkpt lat="46.16698" lon="-1.30395">
        <ele>10.8</ele>
        <time>2025-07-02T10:10:46Z</time>
      </trkpt>
      <trkpt lat="46.16697" lon="-1.30392">
        <ele>10.8</ele>
        <time>2025-07-02T10:10:48Z</time>
      </trkpt>
      <trkpt lat="46.16696" lon="-1.30389">
        <ele>10.6</ele>
        <time>2025-07-02T10:10:50Z</time>
      </trkpt>
      <trkpt lat="46.16695" lon="-1.30388">
        <ele>10.6</ele>
        <time>2025-07-02T10:10:51Z</time>
      </trkpt>
      <trkpt lat="46.16694" lon="-1.30383">
        <ele>10.4</ele>
        <time>2025-07-02T10:10:54Z</time>
      </trkpt>
      <trkpt lat="46.16694" lon="-1.30382">
        <ele>10.4</ele>
        <time>2025-07-02T10:10:55Z</time>
      </trkpt>
      <trkpt lat="46.16693" lon="-1.30381">
        <ele>10.4</ele>
        <time>2025-07-02T10:10:56Z</time>
      </trkpt>
      <trkpt lat="46.16692" lon="-1.30376">
        <ele>10.4</ele>
        <time>2025-07-02T10:10:58Z</time>
      </trkpt>
      <trkpt lat="46.16692" lon="-1.30373">
        <ele>10.4</ele>
        <time>2025-07-02T10:10:59Z</time>
      </trkpt>
      <trkpt lat="46.1669" lon="-1.30366">
        <ele>10.6</ele>
        <time>2025-07-02T10:11:03Z</time>
      </trkpt>
      <trkpt lat="46.16689" lon="-1.30361">
        <ele>10.4</ele>
        <time>2025-07-02T10:11:06Z</time>
      </trkpt>
      <trkpt lat="46.16684" lon="-1.30342">
        <ele>10.4</ele>
        <time>2025-07-02T10:11:15Z</time>
      </trkpt>
      <trkpt lat="46.16683" lon="-1.3034">
        <ele>10.2</ele>
        <time>2025-07-02T10:11:18Z</time>
      </trkpt>
      <trkpt lat="46.16682" lon="-1.30338">
        <ele>10.2</ele>
        <time>2025-07-02T10:11:19Z</time>
      </trkpt>
      <trkpt lat="46.1668" lon="-1.30334">
        <ele>10</ele>
        <time>2025-07-02T10:11:22Z</time>
      </trkpt>
      <trkpt lat="46.1668" lon="-1.30328">
        <ele>10</ele>
        <time>2025-07-02T10:11:25Z</time>
      </trkpt>
      <trkpt lat="46.1668" lon="-1.30324">
        <ele>10.2</ele>
        <time>2025-07-02T10:11:27Z</time>
      </trkpt>
      <trkpt lat="46.16679" lon="-1.30323">
        <ele>10.2</ele>
        <time>2025-07-02T10:11:28Z</time>
      </trkpt>
      <trkpt lat="46.16676" lon="-1.30319">
        <ele>10</ele>
        <time>2025-07-02T10:11:31Z</time>
      </trkpt>
      <trkpt lat="46.16674" lon="-1.30313">
        <ele>9.8</ele>
        <time>2025-07-02T10:11:34Z</time>
      </trkpt>
      <trkpt lat="46.16672" lon="-1.30306">
        <ele>9.8</ele>
        <time>2025-07-02T10:11:37Z</time>
      </trkpt>
      <trkpt lat="46.1667" lon="-1.30302">
        <ele>9.8</ele>
        <time>2025-07-02T10:11:40Z</time>
      </trkpt>
      <trkpt lat="46.16669" lon="-1.303">
        <ele>9.8</ele>
        <time>2025-07-02T10:11:41Z</time>
      </trkpt>
      <trkpt lat="46.16668" lon="-1.30284">
        <ele>9.4</ele>
        <time>2025-07-02T10:11:48Z</time>
      </trkpt>
      <trkpt lat="46.16668" lon="-1.30282">
        <ele>9.4</ele>
        <time>2025-07-02T10:11:49Z</time>
      </trkpt>
      <trkpt lat="46.16664" lon="-1.30276">
        <ele>9.6</ele>
        <time>2025-07-02T10:11:53Z</time>
      </trkpt>
      <trkpt lat="46.16661" lon="-1.30273">
        <ele>9.6</ele>
        <time>2025-07-02T10:11:56Z</time>
      </trkpt>
      <trkpt lat="46.16659" lon="-1.30274">
        <ele>9.6</ele>
        <time>2025-07-02T10:11:59Z</time>
      </trkpt>
      <trkpt lat="46.16651" lon="-1.3028">
        <ele>9.8</ele>
        <time>2025-07-02T10:12:06Z</time>
      </trkpt>
      <trkpt lat="46.16641" lon="-1.30288">
        <ele>9.8</ele>
        <time>2025-07-02T10:12:15Z</time>
      </trkpt>
      <trkpt lat="46.16634" lon="-1.3029">
        <ele>10.4</ele>
        <time>2025-07-02T10:12:22Z</time>
      </trkpt>
      <trkpt lat="46.16632" lon="-1.30292">
        <ele>10.2</ele>
        <time>2025-07-02T10:12:26Z</time>
      </trkpt>
      <trkpt lat="46.16626" lon="-1.30295">
        <ele>10.2</ele>
        <time>2025-07-02T10:12:32Z</time>
      </trkpt>
      <trkpt lat="46.16617" lon="-1.30302">
        <ele>10.4</ele>
        <time>2025-07-02T10:12:39Z</time>
      </trkpt>
      <trkpt lat="46.16608" lon="-1.3031">
        <ele>10.6</ele>
        <time>2025-07-02T10:12:47Z</time>
      </trkpt>
      <trkpt lat="46.16602" lon="-1.30315">
        <ele>10.6</ele>
        <time>2025-07-02T10:12:53Z</time>
      </trkpt>
      <trkpt lat="46.16596" lon="-1.3032">
        <ele>10.8</ele>
        <time>2025-07-02T10:12:59Z</time>
      </trkpt>
      <trkpt lat="46.16588" lon="-1.30326">
        <ele>11</ele>
        <time>2025-07-02T10:13:05Z</time>
      </trkpt>
      <trkpt lat="46.16585" lon="-1.30327">
        <ele>11.2</ele>
        <time>2025-07-02T10:13:07Z</time>
      </trkpt>
      <trkpt lat="46.16578" lon="-1.30332">
        <ele>11.4</ele>
        <time>2025-07-02T10:13:13Z</time>
      </trkpt>
      <trkpt lat="46.16577" lon="-1.30335">
        <ele>11.2</ele>
        <time>2025-07-02T10:13:15Z</time>
      </trkpt>
      <trkpt lat="46.16577" lon="-1.30338">
        <ele>11.4</ele>
        <time>2025-07-02T10:13:17Z</time>
      </trkpt>
      <trkpt lat="46.16575" lon="-1.30338">
        <ele>11.4</ele>
        <time>2025-07-02T10:13:19Z</time>
      </trkpt>
      <trkpt lat="46.16569" lon="-1.30344">
        <ele>11.4</ele>
        <time>2025-07-02T10:13:25Z</time>
      </trkpt>
      <trkpt lat="46.16566" lon="-1.30352">
        <ele>11.4</ele>
        <time>2025-07-02T10:13:30Z</time>
      </trkpt>
      <trkpt lat="46.16565" lon="-1.30354">
        <ele>11.4</ele>
        <time>2025-07-02T10:13:31Z</time>
      </trkpt>
      <trkpt lat="46.16565" lon="-1.30355">
        <ele>11.4</ele>
        <time>2025-07-02T10:13:32Z</time>
      </trkpt>
      <trkpt lat="46.16565" lon="-1.30356">
        <ele>11.4</ele>
        <time>2025-07-02T10:13:33Z</time>
      </trkpt>
      <trkpt lat="46.16564" lon="-1.3036">
        <ele>11.4</ele>
        <time>2025-07-02T10:13:36Z</time>
      </trkpt>
      <trkpt lat="46.16563" lon="-1.30361">
        <ele>11.4</ele>
        <time>2025-07-02T10:13:37Z</time>
      </trkpt>
      <trkpt lat="46.1656" lon="-1.30365">
        <ele>11.4</ele>
        <time>2025-07-02T10:13:39Z</time>
      </trkpt>
      <trkpt lat="46.16556" lon="-1.30368">
        <ele>11.4</ele>
        <time>2025-07-02T10:13:41Z</time>
      </trkpt>
      <trkpt lat="46.16554" lon="-1.30372">
        <ele>11.6</ele>
        <time>2025-07-02T10:13:43Z</time>
      </trkpt>
      <trkpt lat="46.16552" lon="-1.30378">
        <ele>11.6</ele>
        <time>2025-07-02T10:13:46Z</time>
      </trkpt>
      <trkpt lat="46.16549" lon="-1.30383">
        <ele>11.6</ele>
        <time>2025-07-02T10:13:49Z</time>
      </trkpt>
      <trkpt lat="46.16547" lon="-1.30386">
        <ele>11.6</ele>
        <time>2025-07-02T10:13:51Z</time>
      </trkpt>
      <trkpt lat="46.16539" lon="-1.30395">
        <ele>11.8</ele>
        <time>2025-07-02T10:13:58Z</time>
      </trkpt>
      <trkpt lat="46.16538" lon="-1.30396">
        <ele>11.8</ele>
        <time>2025-07-02T10:13:59Z</time>
      </trkpt>
      <trkpt lat="46.16536" lon="-1.30397">
        <ele>11.6</ele>
        <time>2025-07-02T10:14:01Z</time>
      </trkpt>
      <trkpt lat="46.16533" lon="-1.30402">
        <ele>11.6</ele>
        <time>2025-07-02T10:14:04Z</time>
      </trkpt>
      <trkpt lat="46.16533" lon="-1.30403">
        <ele>11.6</ele>
        <time>2025-07-02T10:14:05Z</time>
      </trkpt>
      <trkpt lat="46.16529" lon="-1.30406">
        <ele>11.6</ele>
        <time>2025-07-02T10:14:08Z</time>
      </trkpt>
      <trkpt lat="46.16527" lon="-1.30409">
        <ele>11.6</ele>
        <time>2025-07-02T10:14:10Z</time>
      </trkpt>
      <trkpt lat="46.16524" lon="-1.30412">
        <ele>11.6</ele>
        <time>2025-07-02T10:14:12Z</time>
      </trkpt>
      <trkpt lat="46.16521" lon="-1.30415">
        <ele>11.6</ele>
        <time>2025-07-02T10:14:14Z</time>
      </trkpt>
      <trkpt lat="46.1652" lon="-1.30415">
        <ele>11.6</ele>
        <time>2025-07-02T10:14:15Z</time>
      </trkpt>
      <trkpt lat="46.16519" lon="-1.30416">
        <ele>11.8</ele>
        <time>2025-07-02T10:14:16Z</time>
      </trkpt>
      <trkpt lat="46.16515" lon="-1.30419">
        <ele>11.8</ele>
        <time>2025-07-02T10:14:19Z</time>
      </trkpt>
      <trkpt lat="46.16515" lon="-1.30421">
        <ele>11.8</ele>
        <time>2025-07-02T10:14:20Z</time>
      </trkpt>
      <trkpt lat="46.1651" lon="-1.30427">
        <ele>11.6</ele>
        <time>2025-07-02T10:14:24Z</time>
      </trkpt>
      <trkpt lat="46.1651" lon="-1.30428">
        <ele>11.6</ele>
        <time>2025-07-02T10:14:25Z</time>
      </trkpt>
      <trkpt lat="46.16507" lon="-1.30429">
        <ele>11.6</ele>
        <time>2025-07-02T10:14:28Z</time>
      </trkpt>
      <trkpt lat="46.16506" lon="-1.3043">
        <ele>11.6</ele>
        <time>2025-07-02T10:14:29Z</time>
      </trkpt>
      <trkpt lat="46.16504" lon="-1.30434">
        <ele>11.8</ele>
        <time>2025-07-02T10:14:32Z</time>
      </trkpt>
      <trkpt lat="46.16503" lon="-1.30436">
        <ele>11.8</ele>
        <time>2025-07-02T10:14:34Z</time>
      </trkpt>
      <trkpt lat="46.16502" lon="-1.30437">
        <ele>11.8</ele>
        <time>2025-07-02T10:14:35Z</time>
      </trkpt>
      <trkpt lat="46.165" lon="-1.30439">
        <ele>11.8</ele>
        <time>2025-07-02T10:14:37Z</time>
      </trkpt>
      <trkpt lat="46.16498" lon="-1.30442">
        <ele>11.8</ele>
        <time>2025-07-02T10:14:39Z</time>
      </trkpt>
      <trkpt lat="46.16497" lon="-1.30443">
        <ele>11.8</ele>
        <time>2025-07-02T10:14:40Z</time>
      </trkpt>
      <trkpt lat="46.16496" lon="-1.30445">
        <ele>11.8</ele>
        <time>2025-07-02T10:14:41Z</time>
      </trkpt>
      <trkpt lat="46.16493" lon="-1.3045">
        <ele>11.8</ele>
        <time>2025-07-02T10:14:45Z</time>
      </trkpt>
      <trkpt lat="46.16492" lon="-1.30451">
        <ele>11.8</ele>
        <time>2025-07-02T10:14:46Z</time>
      </trkpt>
      <trkpt lat="46.16487" lon="-1.30459">
        <ele>11.8</ele>
        <time>2025-07-02T10:14:51Z</time>
      </trkpt>
      <trkpt lat="46.16486" lon="-1.3046">
        <ele>11.8</ele>
        <time>2025-07-02T10:14:52Z</time>
      </trkpt>
      <trkpt lat="46.16482" lon="-1.30464">
        <ele>11.8</ele>
        <time>2025-07-02T10:14:57Z</time>
      </trkpt>
      <trkpt lat="46.1648" lon="-1.30468">
        <ele>11.8</ele>
        <time>2025-07-02T10:15:00Z</time>
      </trkpt>
      <trkpt lat="46.16477" lon="-1.30477">
        <ele>12</ele>
        <time>2025-07-02T10:15:05Z</time>
      </trkpt>
      <trkpt lat="46.16476" lon="-1.30479">
        <ele>12</ele>
        <time>2025-07-02T10:15:06Z</time>
      </trkpt>
      <trkpt lat="46.16465" lon="-1.30493">
        <ele>12.2</ele>
        <time>2025-07-02T10:15:15Z</time>
      </trkpt>
      <trkpt lat="46.16456" lon="-1.305">
        <ele>12.2</ele>
        <time>2025-07-02T10:15:22Z</time>
      </trkpt>
      <trkpt lat="46.16453" lon="-1.30502">
        <ele>12</ele>
        <time>2025-07-02T10:15:24Z</time>
      </trkpt>
      <trkpt lat="46.16453" lon="-1.30503">
        <ele>12</ele>
        <time>2025-07-02T10:15:25Z</time>
      </trkpt>
      <trkpt lat="46.16451" lon="-1.30506">
        <ele>12</ele>
        <time>2025-07-02T10:15:27Z</time>
      </trkpt>
      <trkpt lat="46.16449" lon="-1.30508">
        <ele>12</ele>
        <time>2025-07-02T10:15:29Z</time>
      </trkpt>
      <trkpt lat="46.16442" lon="-1.30516">
        <ele>12</ele>
        <time>2025-07-02T10:15:35Z</time>
      </trkpt>
      <trkpt lat="46.1644" lon="-1.30517">
        <ele>12</ele>
        <time>2025-07-02T10:15:37Z</time>
      </trkpt>
      <trkpt lat="46.16437" lon="-1.3052">
        <ele>12</ele>
        <time>2025-07-02T10:15:40Z</time>
      </trkpt>
      <trkpt lat="46.16431" lon="-1.30525">
        <ele>12</ele>
        <time>2025-07-02T10:15:45Z</time>
      </trkpt>
      <trkpt lat="46.16422" lon="-1.30536">
        <ele>12</ele>
        <time>2025-07-02T10:15:53Z</time>
      </trkpt>
      <trkpt lat="46.16414" lon="-1.30545">
        <ele>12</ele>
        <time>2025-07-02T10:16:00Z</time>
      </trkpt>
      <trkpt lat="46.16413" lon="-1.30547">
        <ele>12</ele>
        <time>2025-07-02T10:16:02Z</time>
      </trkpt>
      <trkpt lat="46.16403" lon="-1.30557">
        <ele>12</ele>
        <time>2025-07-02T10:16:11Z</time>
      </trkpt>
      <trkpt lat="46.16394" lon="-1.30566">
        <ele>11.8</ele>
        <time>2025-07-02T10:16:21Z</time>
      </trkpt>
      <trkpt lat="46.16386" lon="-1.30572">
        <ele>12.4</ele>
        <time>2025-07-02T10:16:27Z</time>
      </trkpt>
      <trkpt lat="46.16382" lon="-1.30574">
        <ele>12.2</ele>
        <time>2025-07-02T10:16:30Z</time>
      </trkpt>
      <trkpt lat="46.16372" lon="-1.30584">
        <ele>12</ele>
        <time>2025-07-02T10:16:39Z</time>
      </trkpt>
      <trkpt lat="46.16362" lon="-1.30593">
        <ele>11.8</ele>
        <time>2025-07-02T10:16:48Z</time>
      </trkpt>
      <trkpt lat="46.16359" lon="-1.30594">
        <ele>12</ele>
        <time>2025-07-02T10:16:50Z</time>
      </trkpt>
      <trkpt lat="46.16356" lon="-1.30598">
        <ele>11.8</ele>
        <time>2025-07-02T10:16:53Z</time>
      </trkpt>
      <trkpt lat="46.1635" lon="-1.30603">
        <ele>11.8</ele>
        <time>2025-07-02T10:16:58Z</time>
      </trkpt>
      <trkpt lat="46.16346" lon="-1.30607">
        <ele>11.8</ele>
        <time>2025-07-02T10:17:02Z</time>
      </trkpt>
      <trkpt lat="46.16342" lon="-1.30609">
        <ele>11.8</ele>
        <time>2025-07-02T10:17:05Z</time>
      </trkpt>
      <trkpt lat="46.16342" lon="-1.3061">
        <ele>11.8</ele>
        <time>2025-07-02T10:17:06Z</time>
      </trkpt>
      <trkpt lat="46.16338" lon="-1.30617">
        <ele>11.8</ele>
        <time>2025-07-02T10:17:10Z</time>
      </trkpt>
      <trkpt lat="46.16336" lon="-1.30618">
        <ele>11.8</ele>
        <time>2025-07-02T10:17:12Z</time>
      </trkpt>
      <trkpt lat="46.16336" lon="-1.30618">
        <ele>12</ele>
        <time>2025-07-02T10:17:13Z</time>
      </trkpt>
      <trkpt lat="46.16334" lon="-1.30621">
        <ele>12.2</ele>
        <time>2025-07-02T10:17:19Z</time>
      </trkpt>
      <trkpt lat="46.16323" lon="-1.30627">
        <ele>11.6</ele>
        <time>2025-07-02T10:17:27Z</time>
      </trkpt>
      <trkpt lat="46.16314" lon="-1.30633">
        <ele>12</ele>
        <time>2025-07-02T10:17:35Z</time>
      </trkpt>
      <trkpt lat="46.16301" lon="-1.30637">
        <ele>12.2</ele>
        <time>2025-07-02T10:17:45Z</time>
      </trkpt>
      <trkpt lat="46.1629" lon="-1.30639">
        <ele>11.4</ele>
        <time>2025-07-02T10:17:54Z</time>
      </trkpt>
      <trkpt lat="46.16289" lon="-1.30639">
        <ele>11.4</ele>
        <time>2025-07-02T10:17:55Z</time>
      </trkpt>
      <trkpt lat="46.16285" lon="-1.30636">
        <ele>10.2</ele>
        <time>2025-07-02T10:18:17Z</time>
      </trkpt>
      <trkpt lat="46.16285" lon="-1.30636">
        <ele>10.2</ele>
        <time>2025-07-02T10:18:18Z</time>
      </trkpt>
      <trkpt lat="46.16285" lon="-1.30637">
        <ele>10.4</ele>
        <time>2025-07-02T10:18:21Z</time>
      </trkpt>
      <trkpt lat="46.16274" lon="-1.30638">
        <ele>10.6</ele>
        <time>2025-07-02T10:18:28Z</time>
      </trkpt>
      <trkpt lat="46.1627" lon="-1.30637">
        <ele>10.4</ele>
        <time>2025-07-02T10:18:31Z</time>
      </trkpt>
      <trkpt lat="46.16261" lon="-1.30637">
        <ele>10.2</ele>
        <time>2025-07-02T10:18:37Z</time>
      </trkpt>
      <trkpt lat="46.16258" lon="-1.30637">
        <ele>10.2</ele>
        <time>2025-07-02T10:18:39Z</time>
      </trkpt>
      <trkpt lat="46.16248" lon="-1.30636">
        <ele>10</ele>
        <time>2025-07-02T10:18:47Z</time>
      </trkpt>
      <trkpt lat="46.16241" lon="-1.30637">
        <ele>10.4</ele>
        <time>2025-07-02T10:18:52Z</time>
      </trkpt>
      <trkpt lat="46.16238" lon="-1.30637">
        <ele>10.2</ele>
        <time>2025-07-02T10:18:54Z</time>
      </trkpt>
      <trkpt lat="46.16229" lon="-1.30637">
        <ele>9.8</ele>
        <time>2025-07-02T10:19:00Z</time>
      </trkpt>
      <trkpt lat="46.16219" lon="-1.3064">
        <ele>10</ele>
        <time>2025-07-02T10:19:07Z</time>
      </trkpt>
      <trkpt lat="46.16208" lon="-1.30648">
        <ele>10</ele>
        <time>2025-07-02T10:19:15Z</time>
      </trkpt>
      <trkpt lat="46.16195" lon="-1.30657">
        <ele>9.6</ele>
        <time>2025-07-02T10:19:24Z</time>
      </trkpt>
      <trkpt lat="46.16191" lon="-1.30661">
        <ele>9.8</ele>
        <time>2025-07-02T10:19:28Z</time>
      </trkpt>
      <trkpt lat="46.16183" lon="-1.30666">
        <ele>9.6</ele>
        <time>2025-07-02T10:19:34Z</time>
      </trkpt>
      <trkpt lat="46.16182" lon="-1.30667">
        <ele>9.6</ele>
        <time>2025-07-02T10:19:35Z</time>
      </trkpt>
      <trkpt lat="46.16172" lon="-1.30677">
        <ele>9.6</ele>
        <time>2025-07-02T10:19:45Z</time>
      </trkpt>
      <trkpt lat="46.16172" lon="-1.30677">
        <ele>9.6</ele>
        <time>2025-07-02T10:19:46Z</time>
      </trkpt>
      <trkpt lat="46.16172" lon="-1.30679">
        <ele>9.4</ele>
        <time>2025-07-02T10:19:48Z</time>
      </trkpt>
      <trkpt lat="46.1617" lon="-1.30681">
        <ele>9.4</ele>
        <time>2025-07-02T10:19:50Z</time>
      </trkpt>
      <trkpt lat="46.16166" lon="-1.30684">
        <ele>9.4</ele>
        <time>2025-07-02T10:19:57Z</time>
      </trkpt>
      <trkpt lat="46.16169" lon="-1.30681">
        <ele>9.8</ele>
        <time>2025-07-02T10:20:05Z</time>
      </trkpt>
      <trkpt lat="46.16169" lon="-1.30681">
        <ele>9.2</ele>
        <time>2025-07-02T10:20:14Z</time>
      </trkpt>
      <trkpt lat="46.16167" lon="-1.30683">
        <ele>9.2</ele>
        <time>2025-07-02T10:20:15Z</time>
      </trkpt>
      <trkpt lat="46.16164" lon="-1.30686">
        <ele>9.2</ele>
        <time>2025-07-02T10:20:17Z</time>
      </trkpt>
      <trkpt lat="46.16157" lon="-1.30693">
        <ele>9.2</ele>
        <time>2025-07-02T10:20:23Z</time>
      </trkpt>
      <trkpt lat="46.16153" lon="-1.30698">
        <ele>9.2</ele>
        <time>2025-07-02T10:20:26Z</time>
      </trkpt>
      <trkpt lat="46.16139" lon="-1.30709">
        <ele>9</ele>
        <time>2025-07-02T10:20:37Z</time>
      </trkpt>
      <trkpt lat="46.16132" lon="-1.30715">
        <ele>9</ele>
        <time>2025-07-02T10:20:43Z</time>
      </trkpt>
      <trkpt lat="46.1612" lon="-1.30722">
        <ele>9</ele>
        <time>2025-07-02T10:20:52Z</time>
      </trkpt>
      <trkpt lat="46.16107" lon="-1.30728">
        <ele>8.8</ele>
        <time>2025-07-02T10:21:02Z</time>
      </trkpt>
      <trkpt lat="46.16094" lon="-1.30734">
        <ele>8.6</ele>
        <time>2025-07-02T10:21:13Z</time>
      </trkpt>
      <trkpt lat="46.16083" lon="-1.30737">
        <ele>8.8</ele>
        <time>2025-07-02T10:21:21Z</time>
      </trkpt>
      <trkpt lat="46.1607" lon="-1.30742">
        <ele>8.8</ele>
        <time>2025-07-02T10:21:31Z</time>
      </trkpt>
      <trkpt lat="46.16058" lon="-1.30748">
        <ele>8.8</ele>
        <time>2025-07-02T10:21:40Z</time>
      </trkpt>
      <trkpt lat="46.16048" lon="-1.30756">
        <ele>9</ele>
        <time>2025-07-02T10:21:49Z</time>
      </trkpt>
      <trkpt lat="46.16032" lon="-1.30771">
        <ele>9.2</ele>
        <time>2025-07-02T10:22:02Z</time>
      </trkpt>
      <trkpt lat="46.16022" lon="-1.30781">
        <ele>9.2</ele>
        <time>2025-07-02T10:22:11Z</time>
      </trkpt>
      <trkpt lat="46.1602" lon="-1.30783">
        <ele>9</ele>
        <time>2025-07-02T10:22:13Z</time>
      </trkpt>
      <trkpt lat="46.16005" lon="-1.30794">
        <ele>8.8</ele>
        <time>2025-07-02T10:22:25Z</time>
      </trkpt>
      <trkpt lat="46.15994" lon="-1.308">
        <ele>8.8</ele>
        <time>2025-07-02T10:22:34Z</time>
      </trkpt>
      <trkpt lat="46.1598" lon="-1.30808">
        <ele>9</ele>
        <time>2025-07-02T10:22:45Z</time>
      </trkpt>
      <trkpt lat="46.1597" lon="-1.30813">
        <ele>9</ele>
        <time>2025-07-02T10:22:53Z</time>
      </trkpt>
      <trkpt lat="46.15958" lon="-1.30821">
        <ele>9</ele>
        <time>2025-07-02T10:23:04Z</time>
      </trkpt>
      <trkpt lat="46.15945" lon="-1.3083">
        <ele>8.8</ele>
        <time>2025-07-02T10:23:14Z</time>
      </trkpt>
      <trkpt lat="46.15935" lon="-1.30837">
        <ele>8.6</ele>
        <time>2025-07-02T10:23:22Z</time>
      </trkpt>
      <trkpt lat="46.15932" lon="-1.30839">
        <ele>8.6</ele>
        <time>2025-07-02T10:23:24Z</time>
      </trkpt>
      <trkpt lat="46.1592" lon="-1.30847">
        <ele>8.6</ele>
        <time>2025-07-02T10:23:33Z</time>
      </trkpt>
      <trkpt lat="46.15907" lon="-1.30859">
        <ele>8.4</ele>
        <time>2025-07-02T10:23:44Z</time>
      </trkpt>
      <trkpt lat="46.15898" lon="-1.30867">
        <ele>8.4</ele>
        <time>2025-07-02T10:23:52Z</time>
      </trkpt>
      <trkpt lat="46.15887" lon="-1.30878">
        <ele>8.2</ele>
        <time>2025-07-02T10:24:02Z</time>
      </trkpt>
      <trkpt lat="46.15875" lon="-1.30889">
        <ele>8.2</ele>
        <time>2025-07-02T10:24:12Z</time>
      </trkpt>
      <trkpt lat="46.15867" lon="-1.30895">
        <ele>8.2</ele>
        <time>2025-07-02T10:24:19Z</time>
      </trkpt>
      <trkpt lat="46.15865" lon="-1.30897">
        <ele>8</ele>
        <time>2025-07-02T10:24:21Z</time>
      </trkpt>
      <trkpt lat="46.15857" lon="-1.30905">
        <ele>8</ele>
        <time>2025-07-02T10:24:28Z</time>
      </trkpt>
      <trkpt lat="46.15843" lon="-1.30917">
        <ele>7.8</ele>
        <time>2025-07-02T10:24:40Z</time>
      </trkpt>
      <trkpt lat="46.15827" lon="-1.30923">
        <ele>7.8</ele>
        <time>2025-07-02T10:24:52Z</time>
      </trkpt>
      <trkpt lat="46.15811" lon="-1.30931">
        <ele>7.8</ele>
        <time>2025-07-02T10:25:04Z</time>
      </trkpt>
      <trkpt lat="46.158" lon="-1.30935">
        <ele>8</ele>
        <time>2025-07-02T10:25:13Z</time>
      </trkpt>
      <trkpt lat="46.15795" lon="-1.30935">
        <ele>7.8</ele>
        <time>2025-07-02T10:25:16Z</time>
      </trkpt>
      <trkpt lat="46.15787" lon="-1.30938">
        <ele>7.8</ele>
        <time>2025-07-02T10:25:22Z</time>
      </trkpt>
      <trkpt lat="46.15777" lon="-1.30943">
        <ele>7.8</ele>
        <time>2025-07-02T10:25:30Z</time>
      </trkpt>
      <trkpt lat="46.15765" lon="-1.30948">
        <ele>7.6</ele>
        <time>2025-07-02T10:25:39Z</time>
      </trkpt>
      <trkpt lat="46.15752" lon="-1.30953">
        <ele>7.4</ele>
        <time>2025-07-02T10:25:49Z</time>
      </trkpt>
      <trkpt lat="46.15741" lon="-1.30958">
        <ele>7.2</ele>
        <time>2025-07-02T10:25:57Z</time>
      </trkpt>
      <trkpt lat="46.15734" lon="-1.30961">
        <ele>7.2</ele>
        <time>2025-07-02T10:26:02Z</time>
      </trkpt>
      <trkpt lat="46.15729" lon="-1.30961">
        <ele>7.2</ele>
        <time>2025-07-02T10:26:06Z</time>
      </trkpt>
      <trkpt lat="46.15724" lon="-1.30963">
        <ele>7.2</ele>
        <time>2025-07-02T10:26:11Z</time>
      </trkpt>
      <trkpt lat="46.15723" lon="-1.30964">
        <ele>7.2</ele>
        <time>2025-07-02T10:26:13Z</time>
      </trkpt>
      <trkpt lat="46.15721" lon="-1.30965">
        <ele>7</ele>
        <time>2025-07-02T10:26:16Z</time>
      </trkpt>
      <trkpt lat="46.15716" lon="-1.30966">
        <ele>7</ele>
        <time>2025-07-02T10:26:20Z</time>
      </trkpt>
      <trkpt lat="46.1571" lon="-1.30968">
        <ele>7</ele>
        <time>2025-07-02T10:26:24Z</time>
      </trkpt>
      <trkpt lat="46.15706" lon="-1.3097">
        <ele>7</ele>
        <time>2025-07-02T10:26:27Z</time>
      </trkpt>
      <trkpt lat="46.15705" lon="-1.30971">
        <ele>7</ele>
        <time>2025-07-02T10:26:28Z</time>
      </trkpt>
      <trkpt lat="46.1569" lon="-1.3098">
        <ele>7</ele>
        <time>2025-07-02T10:26:40Z</time>
      </trkpt>
      <trkpt lat="46.15685" lon="-1.30984">
        <ele>7</ele>
        <time>2025-07-02T10:26:44Z</time>
      </trkpt>
      <trkpt lat="46.15681" lon="-1.30985">
        <ele>7</ele>
        <time>2025-07-02T10:26:47Z</time>
      </trkpt>
      <trkpt lat="46.15672" lon="-1.30989">
        <ele>7</ele>
        <time>2025-07-02T10:26:54Z</time>
      </trkpt>
      <trkpt lat="46.1566" lon="-1.30995">
        <ele>7</ele>
        <time>2025-07-02T10:27:03Z</time>
      </trkpt>
      <trkpt lat="46.15647" lon="-1.31">
        <ele>7</ele>
        <time>2025-07-02T10:27:13Z</time>
      </trkpt>
      <trkpt lat="46.15643" lon="-1.31002">
        <ele>6.8</ele>
        <time>2025-07-02T10:27:16Z</time>
      </trkpt>
      <trkpt lat="46.15632" lon="-1.31004">
        <ele>7</ele>
        <time>2025-07-02T10:27:24Z</time>
      </trkpt>
      <trkpt lat="46.15619" lon="-1.31008">
        <ele>7</ele>
        <time>2025-07-02T10:27:33Z</time>
      </trkpt>
      <trkpt lat="46.15605" lon="-1.31009">
        <ele>7</ele>
        <time>2025-07-02T10:27:42Z</time>
      </trkpt>
      <trkpt lat="46.15592" lon="-1.3101">
        <ele>7.2</ele>
        <time>2025-07-02T10:27:52Z</time>
      </trkpt>
      <trkpt lat="46.15574" lon="-1.3101">
        <ele>7.2</ele>
        <time>2025-07-02T10:28:05Z</time>
      </trkpt>
      <trkpt lat="46.15574" lon="-1.3101">
        <ele>7.4</ele>
        <time>2025-07-02T10:28:10Z</time>
      </trkpt>
      <trkpt lat="46.15574" lon="-1.31008">
        <ele>7.2</ele>
        <time>2025-07-02T10:28:17Z</time>
      </trkpt>
      <trkpt lat="46.15571" lon="-1.31011">
        <ele>7.2</ele>
        <time>2025-07-02T10:28:28Z</time>
      </trkpt>
      <trkpt lat="46.15565" lon="-1.31015">
        <ele>6.8</ele>
        <time>2025-07-02T10:28:34Z</time>
      </trkpt>
      <trkpt lat="46.15563" lon="-1.31014">
        <ele>6.8</ele>
        <time>2025-07-02T10:28:37Z</time>
      </trkpt>
      <trkpt lat="46.15554" lon="-1.31015">
        <ele>6.8</ele>
        <time>2025-07-02T10:28:44Z</time>
      </trkpt>
      <trkpt lat="46.15543" lon="-1.31017">
        <ele>6.8</ele>
        <time>2025-07-02T10:28:52Z</time>
      </trkpt>
      <trkpt lat="46.1554" lon="-1.31017">
        <ele>6.8</ele>
        <time>2025-07-02T10:28:54Z</time>
      </trkpt>
      <trkpt lat="46.15533" lon="-1.31018">
        <ele>6.6</ele>
        <time>2025-07-02T10:28:59Z</time>
      </trkpt>
      <trkpt lat="46.15525" lon="-1.31018">
        <ele>6.6</ele>
        <time>2025-07-02T10:29:05Z</time>
      </trkpt>
      <trkpt lat="46.15512" lon="-1.31021">
        <ele>6.8</ele>
        <time>2025-07-02T10:29:15Z</time>
      </trkpt>
      <trkpt lat="46.15501" lon="-1.31021">
        <ele>6.8</ele>
        <time>2025-07-02T10:29:23Z</time>
      </trkpt>
      <trkpt lat="46.15492" lon="-1.31024">
        <ele>6.8</ele>
        <time>2025-07-02T10:29:30Z</time>
      </trkpt>
      <trkpt lat="46.15488" lon="-1.31025">
        <ele>6.8</ele>
        <time>2025-07-02T10:29:33Z</time>
      </trkpt>
      <trkpt lat="46.15481" lon="-1.31028">
        <ele>6.6</ele>
        <time>2025-07-02T10:29:38Z</time>
      </trkpt>
      <trkpt lat="46.1547" lon="-1.31033">
        <ele>6.6</ele>
        <time>2025-07-02T10:29:46Z</time>
      </trkpt>
      <trkpt lat="46.15458" lon="-1.31036">
        <ele>6.8</ele>
        <time>2025-07-02T10:29:55Z</time>
      </trkpt>
      <trkpt lat="46.15445" lon="-1.3104">
        <ele>6.8</ele>
        <time>2025-07-02T10:30:04Z</time>
      </trkpt>
      <trkpt lat="46.15436" lon="-1.31044">
        <ele>6.8</ele>
        <time>2025-07-02T10:30:11Z</time>
      </trkpt>
      <trkpt lat="46.15433" lon="-1.31045">
        <ele>6.8</ele>
        <time>2025-07-02T10:30:13Z</time>
      </trkpt>
      <trkpt lat="46.15422" lon="-1.31048">
        <ele>6.8</ele>
        <time>2025-07-02T10:30:21Z</time>
      </trkpt>
      <trkpt lat="46.15404" lon="-1.31053">
        <ele>6.8</ele>
        <time>2025-07-02T10:30:34Z</time>
      </trkpt>
      <trkpt lat="46.15397" lon="-1.31056">
        <ele>6.8</ele>
        <time>2025-07-02T10:30:42Z</time>
      </trkpt>
      <trkpt lat="46.15397" lon="-1.31056">
        <ele>7</ele>
        <time>2025-07-02T10:30:45Z</time>
      </trkpt>
      <trkpt lat="46.15398" lon="-1.31057">
        <ele>6.4</ele>
        <time>2025-07-02T10:31:35Z</time>
      </trkpt>
      <trkpt lat="46.15397" lon="-1.31057">
        <ele>6.2</ele>
        <time>2025-07-02T10:31:38Z</time>
      </trkpt>
      <trkpt lat="46.15393" lon="-1.31058">
        <ele>6</ele>
        <time>2025-07-02T10:31:39Z</time>
      </trkpt>
      <trkpt lat="46.15384" lon="-1.3106">
        <ele>6</ele>
        <time>2025-07-02T10:31:44Z</time>
      </trkpt>
      <trkpt lat="46.15373" lon="-1.31058">
        <ele>6</ele>
        <time>2025-07-02T10:31:52Z</time>
      </trkpt>
      <trkpt lat="46.15368" lon="-1.31059">
        <ele>5.8</ele>
        <time>2025-07-02T10:31:55Z</time>
      </trkpt>
      <trkpt lat="46.15365" lon="-1.3106">
        <ele>5.8</ele>
        <time>2025-07-02T10:31:57Z</time>
      </trkpt>
      <trkpt lat="46.15364" lon="-1.3106">
        <ele>5.8</ele>
        <time>2025-07-02T10:31:58Z</time>
      </trkpt>
      <trkpt lat="46.15356" lon="-1.31063">
        <ele>5.6</ele>
        <time>2025-07-02T10:32:04Z</time>
      </trkpt>
      <trkpt lat="46.15355" lon="-1.31063">
        <ele>5.8</ele>
        <time>2025-07-02T10:32:05Z</time>
      </trkpt>
      <trkpt lat="46.15342" lon="-1.31061">
        <ele>5.4</ele>
        <time>2025-07-02T10:32:13Z</time>
      </trkpt>
      <trkpt lat="46.15328" lon="-1.31063">
        <ele>5.8</ele>
        <time>2025-07-02T10:32:23Z</time>
      </trkpt>
      <trkpt lat="46.15321" lon="-1.31061">
        <ele>5.4</ele>
        <time>2025-07-02T10:32:28Z</time>
      </trkpt>
      <trkpt lat="46.15319" lon="-1.31061">
        <ele>5.4</ele>
        <time>2025-07-02T10:32:30Z</time>
      </trkpt>
      <trkpt lat="46.15317" lon="-1.3106">
        <ele>5.4</ele>
        <time>2025-07-02T10:32:31Z</time>
      </trkpt>
      <trkpt lat="46.15308" lon="-1.31056">
        <ele>5.2</ele>
        <time>2025-07-02T10:32:37Z</time>
      </trkpt>
      <trkpt lat="46.15306" lon="-1.31055">
        <ele>5</ele>
        <time>2025-07-02T10:32:39Z</time>
      </trkpt>
      <trkpt lat="46.153" lon="-1.31052">
        <ele>5</ele>
        <time>2025-07-02T10:32:44Z</time>
      </trkpt>
      <trkpt lat="46.15297" lon="-1.31048">
        <ele>5</ele>
        <time>2025-07-02T10:32:47Z</time>
      </trkpt>
      <trkpt lat="46.15291" lon="-1.31045">
        <ele>5</ele>
        <time>2025-07-02T10:32:51Z</time>
      </trkpt>
      <trkpt lat="46.15281" lon="-1.31037">
        <ele>5</ele>
        <time>2025-07-02T10:33:00Z</time>
      </trkpt>
      <trkpt lat="46.1528" lon="-1.31034">
        <ele>5</ele>
        <time>2025-07-02T10:33:02Z</time>
      </trkpt>
      <trkpt lat="46.15278" lon="-1.31021">
        <ele>4.8</ele>
        <time>2025-07-02T10:33:09Z</time>
      </trkpt>
      <trkpt lat="46.15268" lon="-1.31013">
        <ele>5</ele>
        <time>2025-07-02T10:33:17Z</time>
      </trkpt>
      <trkpt lat="46.15266" lon="-1.31013">
        <ele>5</ele>
        <time>2025-07-02T10:33:19Z</time>
      </trkpt>
      <trkpt lat="46.15264" lon="-1.31014">
        <ele>4.4</ele>
        <time>2025-07-02T10:33:50Z</time>
      </trkpt>
      <trkpt lat="46.15264" lon="-1.31014">
        <ele>4.4</ele>
        <time>2025-07-02T10:33:52Z</time>
      </trkpt>
      <trkpt lat="46.15257" lon="-1.31012">
        <ele>4.4</ele>
        <time>2025-07-02T10:33:56Z</time>
      </trkpt>
      <trkpt lat="46.15243" lon="-1.31008">
        <ele>4.2</ele>
        <time>2025-07-02T10:34:04Z</time>
      </trkpt>
      <trkpt lat="46.15234" lon="-1.31005">
        <ele>4.4</ele>
        <time>2025-07-02T10:34:11Z</time>
      </trkpt>
      <trkpt lat="46.15233" lon="-1.31004">
        <ele>4.4</ele>
        <time>2025-07-02T10:34:12Z</time>
      </trkpt>
      <trkpt lat="46.15226" lon="-1.31002">
        <ele>4.4</ele>
        <time>2025-07-02T10:34:17Z</time>
      </trkpt>
      <trkpt lat="46.15222" lon="-1.31001">
        <ele>4.2</ele>
        <time>2025-07-02T10:34:20Z</time>
      </trkpt>
      <trkpt lat="46.15213" lon="-1.30997">
        <ele>4.2</ele>
        <time>2025-07-02T10:34:28Z</time>
      </trkpt>
      <trkpt lat="46.15211" lon="-1.30993">
        <ele>4</ele>
        <time>2025-07-02T10:34:30Z</time>
      </trkpt>
      <trkpt lat="46.15211" lon="-1.30991">
        <ele>4</ele>
        <time>2025-07-02T10:34:31Z</time>
      </trkpt>
      <trkpt lat="46.15212" lon="-1.30981">
        <ele>4</ele>
        <time>2025-07-02T10:34:36Z</time>
      </trkpt>
      <trkpt lat="46.15214" lon="-1.30969">
        <ele>4</ele>
        <time>2025-07-02T10:34:43Z</time>
      </trkpt>
      <trkpt lat="46.15217" lon="-1.30957">
        <ele>4</ele>
        <time>2025-07-02T10:34:50Z</time>
      </trkpt>
      <trkpt lat="46.15216" lon="-1.30951">
        <ele>4</ele>
        <time>2025-07-02T10:34:53Z</time>
      </trkpt>
      <trkpt lat="46.15214" lon="-1.30949">
        <ele>4</ele>
        <time>2025-07-02T10:34:55Z</time>
      </trkpt>
      <trkpt lat="46.15204" lon="-1.30949">
        <ele>4</ele>
        <time>2025-07-02T10:35:02Z</time>
      </trkpt>
      <trkpt lat="46.15193" lon="-1.3095">
        <ele>3.8</ele>
        <time>2025-07-02T10:35:11Z</time>
      </trkpt>
      <trkpt lat="46.15185" lon="-1.30951">
        <ele>4</ele>
        <time>2025-07-02T10:35:17Z</time>
      </trkpt>
      <trkpt lat="46.1518" lon="-1.3095">
        <ele>3.8</ele>
        <time>2025-07-02T10:35:20Z</time>
      </trkpt>
      <trkpt lat="46.15173" lon="-1.30951">
        <ele>4</ele>
        <time>2025-07-02T10:35:25Z</time>
      </trkpt>
      <trkpt lat="46.15159" lon="-1.30952">
        <ele>4</ele>
        <time>2025-07-02T10:35:35Z</time>
      </trkpt>
      <trkpt lat="46.15156" lon="-1.30953">
        <ele>4</ele>
        <time>2025-07-02T10:35:37Z</time>
      </trkpt>
      <trkpt lat="46.1515" lon="-1.30952">
        <ele>3.8</ele>
        <time>2025-07-02T10:35:41Z</time>
      </trkpt>
      <trkpt lat="46.15138" lon="-1.30953">
        <ele>4</ele>
        <time>2025-07-02T10:35:50Z</time>
      </trkpt>
      <trkpt lat="46.15128" lon="-1.30955">
        <ele>3.8</ele>
        <time>2025-07-02T10:35:57Z</time>
      </trkpt>
      <trkpt lat="46.15116" lon="-1.30955">
        <ele>4</ele>
        <time>2025-07-02T10:36:05Z</time>
      </trkpt>
      <trkpt lat="46.15111" lon="-1.30956">
        <ele>4</ele>
        <time>2025-07-02T10:36:09Z</time>
      </trkpt>
      <trkpt lat="46.15099" lon="-1.30957">
        <ele>3.8</ele>
        <time>2025-07-02T10:36:17Z</time>
      </trkpt>
      <trkpt lat="46.15096" lon="-1.30956">
        <ele>3.8</ele>
        <time>2025-07-02T10:36:19Z</time>
      </trkpt>
      <trkpt lat="46.15084" lon="-1.30954">
        <ele>4</ele>
        <time>2025-07-02T10:36:27Z</time>
      </trkpt>
      <trkpt lat="46.15077" lon="-1.30952">
        <ele>4</ele>
        <time>2025-07-02T10:36:32Z</time>
      </trkpt>
      <trkpt lat="46.15073" lon="-1.30951">
        <ele>4</ele>
        <time>2025-07-02T10:36:35Z</time>
      </trkpt>
      <trkpt lat="46.15062" lon="-1.30949">
        <ele>4</ele>
        <time>2025-07-02T10:36:43Z</time>
      </trkpt>
      <trkpt lat="46.15051" lon="-1.30944">
        <ele>4</ele>
        <time>2025-07-02T10:36:52Z</time>
      </trkpt>
      <trkpt lat="46.15036" lon="-1.30934">
        <ele>4.4</ele>
        <time>2025-07-02T10:37:04Z</time>
      </trkpt>
      <trkpt lat="46.15034" lon="-1.30933">
        <ele>4.2</ele>
        <time>2025-07-02T10:37:08Z</time>
      </trkpt>
      <trkpt lat="46.15034" lon="-1.30934">
        <ele>4.2</ele>
        <time>2025-07-02T10:37:09Z</time>
      </trkpt>
      <trkpt lat="46.15035" lon="-1.30948">
        <ele>4.2</ele>
        <time>2025-07-02T10:37:16Z</time>
      </trkpt>
      <trkpt lat="46.15034" lon="-1.30969">
        <ele>4</ele>
        <time>2025-07-02T10:37:26Z</time>
      </trkpt>
      <trkpt lat="46.15032" lon="-1.30983">
        <ele>4</ele>
        <time>2025-07-02T10:37:33Z</time>
      </trkpt>
      <trkpt lat="46.15031" lon="-1.30991">
        <ele>4</ele>
        <time>2025-07-02T10:37:37Z</time>
      </trkpt>
      <trkpt lat="46.15032" lon="-1.30992">
        <ele>4</ele>
        <time>2025-07-02T10:37:38Z</time>
      </trkpt>
      <trkpt lat="46.15031" lon="-1.31002">
        <ele>3.8</ele>
        <time>2025-07-02T10:37:43Z</time>
      </trkpt>
      <trkpt lat="46.15029" lon="-1.31005">
        <ele>3.8</ele>
        <time>2025-07-02T10:37:45Z</time>
      </trkpt>
      <trkpt lat="46.15028" lon="-1.31005">
        <ele>3.6</ele>
        <time>2025-07-02T10:37:46Z</time>
      </trkpt>
      <trkpt lat="46.15021" lon="-1.31009">
        <ele>3.6</ele>
        <time>2025-07-02T10:37:51Z</time>
      </trkpt>
      <trkpt lat="46.1502" lon="-1.31012">
        <ele>3.6</ele>
        <time>2025-07-02T10:37:53Z</time>
      </trkpt>
      <trkpt lat="46.15018" lon="-1.31019">
        <ele>4</ele>
        <time>2025-07-02T10:37:57Z</time>
      </trkpt>
      <trkpt lat="46.15017" lon="-1.31021">
        <ele>4</ele>
        <time>2025-07-02T10:37:58Z</time>
      </trkpt>
      <trkpt lat="46.15016" lon="-1.31025">
        <ele>3.8</ele>
        <time>2025-07-02T10:38:01Z</time>
      </trkpt>
      <trkpt lat="46.15015" lon="-1.31029">
        <ele>3.6</ele>
        <time>2025-07-02T10:38:03Z</time>
      </trkpt>
      <trkpt lat="46.15012" lon="-1.3104">
        <ele>3.8</ele>
        <time>2025-07-02T10:38:09Z</time>
      </trkpt>
      <trkpt lat="46.15009" lon="-1.31043">
        <ele>3.8</ele>
        <time>2025-07-02T10:38:12Z</time>
      </trkpt>
      <trkpt lat="46.1501" lon="-1.31045">
        <ele>3.8</ele>
        <time>2025-07-02T10:38:14Z</time>
      </trkpt>
      <trkpt lat="46.15011" lon="-1.31051">
        <ele>3.8</ele>
        <time>2025-07-02T10:38:17Z</time>
      </trkpt>
      <trkpt lat="46.15013" lon="-1.31054">
        <ele>3.6</ele>
        <time>2025-07-02T10:38:20Z</time>
      </trkpt>
      <trkpt lat="46.15013" lon="-1.31056">
        <ele>3.6</ele>
        <time>2025-07-02T10:38:21Z</time>
      </trkpt>
      <trkpt lat="46.15012" lon="-1.31057">
        <ele>3.8</ele>
        <time>2025-07-02T10:38:22Z</time>
      </trkpt>
      <trkpt lat="46.15011" lon="-1.31065">
        <ele>3.8</ele>
        <time>2025-07-02T10:38:26Z</time>
      </trkpt>
      <trkpt lat="46.15006" lon="-1.31072">
        <ele>3.6</ele>
        <time>2025-07-02T10:38:32Z</time>
      </trkpt>
      <trkpt lat="46.15004" lon="-1.31071">
        <ele>3.8</ele>
        <time>2025-07-02T10:38:34Z</time>
      </trkpt>
      <trkpt lat="46.14998" lon="-1.31068">
        <ele>4</ele>
        <time>2025-07-02T10:38:38Z</time>
      </trkpt>
      <trkpt lat="46.14992" lon="-1.31065">
        <ele>3.6</ele>
        <time>2025-07-02T10:38:43Z</time>
      </trkpt>
      <trkpt lat="46.1499" lon="-1.31063">
        <ele>3.4</ele>
        <time>2025-07-02T10:38:45Z</time>
      </trkpt>
      <trkpt lat="46.14987" lon="-1.31061">
        <ele>3.4</ele>
        <time>2025-07-02T10:38:48Z</time>
      </trkpt>
      <trkpt lat="46.14983" lon="-1.31059">
        <ele>3.6</ele>
        <time>2025-07-02T10:38:51Z</time>
      </trkpt>
      <trkpt lat="46.14978" lon="-1.31055">
        <ele>3.6</ele>
        <time>2025-07-02T10:38:55Z</time>
      </trkpt>
      <trkpt lat="46.14976" lon="-1.31055">
        <ele>3.4</ele>
        <time>2025-07-02T10:38:57Z</time>
      </trkpt>
      <trkpt lat="46.14968" lon="-1.31052">
        <ele>3.6</ele>
        <time>2025-07-02T10:39:03Z</time>
      </trkpt>
      <trkpt lat="46.14966" lon="-1.31049">
        <ele>3.8</ele>
        <time>2025-07-02T10:39:05Z</time>
      </trkpt>
      <trkpt lat="46.14964" lon="-1.31047">
        <ele>3.6</ele>
        <time>2025-07-02T10:39:08Z</time>
      </trkpt>
      <trkpt lat="46.1496" lon="-1.31034">
        <ele>3.4</ele>
        <time>2025-07-02T10:39:16Z</time>
      </trkpt>
      <trkpt lat="46.14957" lon="-1.31031">
        <ele>3.4</ele>
        <time>2025-07-02T10:39:18Z</time>
      </trkpt>
      <trkpt lat="46.14953" lon="-1.3103">
        <ele>3.8</ele>
        <time>2025-07-02T10:39:21Z</time>
      </trkpt>
      <trkpt lat="46.14944" lon="-1.31028">
        <ele>3.4</ele>
        <time>2025-07-02T10:39:28Z</time>
      </trkpt>
      <trkpt lat="46.14941" lon="-1.31027">
        <ele>3.4</ele>
        <time>2025-07-02T10:39:30Z</time>
      </trkpt>
      <trkpt lat="46.1494" lon="-1.31026">
        <ele>3.4</ele>
        <time>2025-07-02T10:39:32Z</time>
      </trkpt>
      <trkpt lat="46.14939" lon="-1.31026">
        <ele>3.4</ele>
        <time>2025-07-02T10:39:33Z</time>
      </trkpt>
      <trkpt lat="46.14931" lon="-1.31027">
        <ele>3.4</ele>
        <time>2025-07-02T10:39:39Z</time>
      </trkpt>
      <trkpt lat="46.14928" lon="-1.3103">
        <ele>3.6</ele>
        <time>2025-07-02T10:39:41Z</time>
      </trkpt>
      <trkpt lat="46.14927" lon="-1.31033">
        <ele>3.6</ele>
        <time>2025-07-02T10:39:43Z</time>
      </trkpt>
      <trkpt lat="46.14926" lon="-1.31036">
        <ele>3.6</ele>
        <time>2025-07-02T10:39:45Z</time>
      </trkpt>
      <trkpt lat="46.14926" lon="-1.31038">
        <ele>3.4</ele>
        <time>2025-07-02T10:39:47Z</time>
      </trkpt>
      <trkpt lat="46.14925" lon="-1.31041">
        <ele>3.4</ele>
        <time>2025-07-02T10:39:49Z</time>
      </trkpt>
      <trkpt lat="46.14925" lon="-1.31046">
        <ele>3.6</ele>
        <time>2025-07-02T10:39:51Z</time>
      </trkpt>
      <trkpt lat="46.14925" lon="-1.31047">
        <ele>3.4</ele>
        <time>2025-07-02T10:39:52Z</time>
      </trkpt>
      <trkpt lat="46.14921" lon="-1.31058">
        <ele>3.4</ele>
        <time>2025-07-02T10:39:59Z</time>
      </trkpt>
      <trkpt lat="46.14921" lon="-1.31069">
        <ele>3.6</ele>
        <time>2025-07-02T10:40:06Z</time>
      </trkpt>
      <trkpt lat="46.1492" lon="-1.31071">
        <ele>3.6</ele>
        <time>2025-07-02T10:40:07Z</time>
      </trkpt>
      <trkpt lat="46.14918" lon="-1.31074">
        <ele>3.6</ele>
        <time>2025-07-02T10:40:09Z</time>
      </trkpt>
      <trkpt lat="46.14917" lon="-1.31078">
        <ele>3.6</ele>
        <time>2025-07-02T10:40:11Z</time>
      </trkpt>
      <trkpt lat="46.14918" lon="-1.31083">
        <ele>3.8</ele>
        <time>2025-07-02T10:40:13Z</time>
      </trkpt>
      <trkpt lat="46.14921" lon="-1.31086">
        <ele>3.8</ele>
        <time>2025-07-02T10:40:15Z</time>
      </trkpt>
      <trkpt lat="46.14922" lon="-1.31088">
        <ele>3.8</ele>
        <time>2025-07-02T10:40:16Z</time>
      </trkpt>
      <trkpt lat="46.14923" lon="-1.31092">
        <ele>3.6</ele>
        <time>2025-07-02T10:40:18Z</time>
      </trkpt>
      <trkpt lat="46.14924" lon="-1.31094">
        <ele>3.6</ele>
        <time>2025-07-02T10:40:19Z</time>
      </trkpt>
      <trkpt lat="46.14924" lon="-1.31097">
        <ele>3.8</ele>
        <time>2025-07-02T10:40:21Z</time>
      </trkpt>
      <trkpt lat="46.14924" lon="-1.31105">
        <ele>4</ele>
        <time>2025-07-02T10:40:25Z</time>
      </trkpt>
      <trkpt lat="46.14923" lon="-1.31107">
        <ele>4</ele>
        <time>2025-07-02T10:40:26Z</time>
      </trkpt>
      <trkpt lat="46.14922" lon="-1.31111">
        <ele>4.2</ele>
        <time>2025-07-02T10:40:28Z</time>
      </trkpt>
      <trkpt lat="46.14921" lon="-1.31114">
        <ele>4.2</ele>
        <time>2025-07-02T10:40:30Z</time>
      </trkpt>
      <trkpt lat="46.1492" lon="-1.31119">
        <ele>4</ele>
        <time>2025-07-02T10:40:33Z</time>
      </trkpt>
      <trkpt lat="46.14917" lon="-1.31121">
        <ele>4</ele>
        <time>2025-07-02T10:40:35Z</time>
      </trkpt>
      <trkpt lat="46.14914" lon="-1.31122">
        <ele>4.2</ele>
        <time>2025-07-02T10:40:37Z</time>
      </trkpt>
      <trkpt lat="46.14906" lon="-1.31128">
        <ele>4.4</ele>
        <time>2025-07-02T10:40:42Z</time>
      </trkpt>
      <trkpt lat="46.149" lon="-1.3113">
        <ele>4.2</ele>
        <time>2025-07-02T10:40:46Z</time>
      </trkpt>
      <trkpt lat="46.14897" lon="-1.31131">
        <ele>4.4</ele>
        <time>2025-07-02T10:40:49Z</time>
      </trkpt>
      <trkpt lat="46.14894" lon="-1.31134">
        <ele>4.4</ele>
        <time>2025-07-02T10:40:53Z</time>
      </trkpt>
      <trkpt lat="46.14883" lon="-1.31139">
        <ele>4.8</ele>
        <time>2025-07-02T10:41:01Z</time>
      </trkpt>
      <trkpt lat="46.14881" lon="-1.31141">
        <ele>5</ele>
        <time>2025-07-02T10:41:03Z</time>
      </trkpt>
      <trkpt lat="46.14875" lon="-1.31143">
        <ele>4.8</ele>
        <time>2025-07-02T10:41:08Z</time>
      </trkpt>
      <trkpt lat="46.14872" lon="-1.31145">
        <ele>4.6</ele>
        <time>2025-07-02T10:41:11Z</time>
      </trkpt>
      <trkpt lat="46.14868" lon="-1.31145">
        <ele>4.6</ele>
        <time>2025-07-02T10:41:14Z</time>
      </trkpt>
      <trkpt lat="46.14859" lon="-1.31152">
        <ele>4.8</ele>
        <time>2025-07-02T10:41:22Z</time>
      </trkpt>
      <trkpt lat="46.14855" lon="-1.3115">
        <ele>4.8</ele>
        <time>2025-07-02T10:41:27Z</time>
      </trkpt>
      <trkpt lat="46.14854" lon="-1.3115">
        <ele>4.8</ele>
        <time>2025-07-02T10:41:28Z</time>
      </trkpt>
      <trkpt lat="46.14853" lon="-1.31148">
        <ele>4.6</ele>
        <time>2025-07-02T10:41:31Z</time>
      </trkpt>
      <trkpt lat="46.14853" lon="-1.31147">
        <ele>4.6</ele>
        <time>2025-07-02T10:41:32Z</time>
      </trkpt>
      <trkpt lat="46.14857" lon="-1.31153">
        <ele>4.2</ele>
        <time>2025-07-02T10:42:20Z</time>
      </trkpt>
      <trkpt lat="46.14856" lon="-1.31153">
        <ele>4.2</ele>
        <time>2025-07-02T10:42:25Z</time>
      </trkpt>
      <trkpt lat="46.14846" lon="-1.31156">
        <ele>4</ele>
        <time>2025-07-02T10:42:31Z</time>
      </trkpt>
      <trkpt lat="46.14841" lon="-1.3116">
        <ele>3.8</ele>
        <time>2025-07-02T10:42:35Z</time>
      </trkpt>
      <trkpt lat="46.1484" lon="-1.31162">
        <ele>3.8</ele>
        <time>2025-07-02T10:42:37Z</time>
      </trkpt>
      <trkpt lat="46.1484" lon="-1.31163">
        <ele>3.4</ele>
        <time>2025-07-02T10:42:38Z</time>
      </trkpt>
      <trkpt lat="46.14837" lon="-1.31166">
        <ele>3.2</ele>
        <time>2025-07-02T10:42:41Z</time>
      </trkpt>
      <trkpt lat="46.14833" lon="-1.31167">
        <ele>3</ele>
        <time>2025-07-02T10:42:45Z</time>
      </trkpt>
      <trkpt lat="46.14832" lon="-1.31165">
        <ele>2.8</ele>
        <time>2025-07-02T10:42:48Z</time>
      </trkpt>
      <trkpt lat="46.14831" lon="-1.31165">
        <ele>2.8</ele>
        <time>2025-07-02T10:42:50Z</time>
      </trkpt>
      <trkpt lat="46.14827" lon="-1.31163">
        <ele>2.6</ele>
        <time>2025-07-02T10:42:54Z</time>
      </trkpt>
      <trkpt lat="46.1482" lon="-1.31167">
        <ele>2</ele>
        <time>2025-07-02T10:43:01Z</time>
      </trkpt>
      <trkpt lat="46.1482" lon="-1.31171">
        <ele>2</ele>
        <time>2025-07-02T10:43:03Z</time>
      </trkpt>
      <trkpt lat="46.14821" lon="-1.31175">
        <ele>2.2</ele>
        <time>2025-07-02T10:43:05Z</time>
      </trkpt>
      <trkpt lat="46.14821" lon="-1.31178">
        <ele>2.2</ele>
        <time>2025-07-02T10:43:07Z</time>
      </trkpt>
      <trkpt lat="46.14819" lon="-1.31183">
        <ele>2.6</ele>
        <time>2025-07-02T10:43:10Z</time>
      </trkpt>
      <trkpt lat="46.14816" lon="-1.31185">
        <ele>2.6</ele>
        <time>2025-07-02T10:43:13Z</time>
      </trkpt>
      <trkpt lat="46.14812" lon="-1.31188">
        <ele>2.6</ele>
        <time>2025-07-02T10:43:17Z</time>
      </trkpt>
      <trkpt lat="46.14808" lon="-1.31188">
        <ele>2.8</ele>
        <time>2025-07-02T10:43:20Z</time>
      </trkpt>
      <trkpt lat="46.14801" lon="-1.3119">
        <ele>3</ele>
        <time>2025-07-02T10:43:25Z</time>
      </trkpt>
      <trkpt lat="46.14799" lon="-1.3119">
        <ele>3</ele>
        <time>2025-07-02T10:43:26Z</time>
      </trkpt>
      <trkpt lat="46.14786" lon="-1.3119">
        <ele>3</ele>
        <time>2025-07-02T10:43:35Z</time>
      </trkpt>
      <trkpt lat="46.14771" lon="-1.31193">
        <ele>3.2</ele>
        <time>2025-07-02T10:43:47Z</time>
      </trkpt>
      <trkpt lat="46.14766" lon="-1.31193">
        <ele>3.2</ele>
        <time>2025-07-02T10:43:51Z</time>
      </trkpt>
      <trkpt lat="46.14765" lon="-1.31192">
        <ele>3.2</ele>
        <time>2025-07-02T10:43:53Z</time>
      </trkpt>
      <trkpt lat="46.14763" lon="-1.3118">
        <ele>3.2</ele>
        <time>2025-07-02T10:44:00Z</time>
      </trkpt>
      <trkpt lat="46.14761" lon="-1.31167">
        <ele>3</ele>
        <time>2025-07-02T10:44:07Z</time>
      </trkpt>
      <trkpt lat="46.14761" lon="-1.31154">
        <ele>2.8</ele>
        <time>2025-07-02T10:44:14Z</time>
      </trkpt>
      <trkpt lat="46.14761" lon="-1.31138">
        <ele>2.6</ele>
        <time>2025-07-02T10:44:23Z</time>
      </trkpt>
      <trkpt lat="46.1476" lon="-1.31127">
        <ele>2.4</ele>
        <time>2025-07-02T10:44:29Z</time>
      </trkpt>
      <trkpt lat="46.1476" lon="-1.31123">
        <ele>2.4</ele>
        <time>2025-07-02T10:44:31Z</time>
      </trkpt>
      <trkpt lat="46.14759" lon="-1.31102">
        <ele>2.2</ele>
        <time>2025-07-02T10:44:43Z</time>
      </trkpt>
      <trkpt lat="46.14753" lon="-1.31093">
        <ele>2</ele>
        <time>2025-07-02T10:44:51Z</time>
      </trkpt>
      <trkpt lat="46.1475" lon="-1.31092">
        <ele>2</ele>
        <time>2025-07-02T10:44:53Z</time>
      </trkpt>
      <trkpt lat="46.14744" lon="-1.31092">
        <ele>2</ele>
        <time>2025-07-02T10:44:57Z</time>
      </trkpt>
      <trkpt lat="46.14728" lon="-1.3109">
        <ele>1.8</ele>
        <time>2025-07-02T10:45:09Z</time>
      </trkpt>
      <trkpt lat="46.14717" lon="-1.31092">
        <ele>1.8</ele>
        <time>2025-07-02T10:45:17Z</time>
      </trkpt>
      <trkpt lat="46.14705" lon="-1.31095">
        <ele>2</ele>
        <time>2025-07-02T10:45:26Z</time>
      </trkpt>
      <trkpt lat="46.147" lon="-1.31095">
        <ele>1.8</ele>
        <time>2025-07-02T10:45:29Z</time>
      </trkpt>
      <trkpt lat="46.14689" lon="-1.31096">
        <ele>1.6</ele>
        <time>2025-07-02T10:45:37Z</time>
      </trkpt>
      <trkpt lat="46.14673" lon="-1.31096">
        <ele>2</ele>
        <time>2025-07-02T10:45:49Z</time>
      </trkpt>
      <trkpt lat="46.14662" lon="-1.31096">
        <ele>2.2</ele>
        <time>2025-07-02T10:45:57Z</time>
      </trkpt>
      <trkpt lat="46.14661" lon="-1.31096">
        <ele>2.2</ele>
        <time>2025-07-02T10:45:58Z</time>
      </trkpt>
      <trkpt lat="46.14646" lon="-1.31094">
        <ele>2.2</ele>
        <time>2025-07-02T10:46:09Z</time>
      </trkpt>
      <trkpt lat="46.14636" lon="-1.31092">
        <ele>2</ele>
        <time>2025-07-02T10:46:16Z</time>
      </trkpt>
      <trkpt lat="46.14625" lon="-1.31091">
        <ele>1.8</ele>
        <time>2025-07-02T10:46:23Z</time>
      </trkpt>
      <trkpt lat="46.14614" lon="-1.31088">
        <ele>2</ele>
        <time>2025-07-02T10:46:31Z</time>
      </trkpt>
      <trkpt lat="46.14605" lon="-1.31087">
        <ele>2</ele>
        <time>2025-07-02T10:46:38Z</time>
      </trkpt>
      <trkpt lat="46.1459" lon="-1.31086">
        <ele>2</ele>
        <time>2025-07-02T10:46:49Z</time>
      </trkpt>
      <trkpt lat="46.1458" lon="-1.31082">
        <ele>1.8</ele>
        <time>2025-07-02T10:46:57Z</time>
      </trkpt>
      <trkpt lat="46.14573" lon="-1.31078">
        <ele>1.8</ele>
        <time>2025-07-02T10:47:03Z</time>
      </trkpt>
      <trkpt lat="46.14566" lon="-1.31075">
        <ele>1.8</ele>
        <time>2025-07-02T10:47:09Z</time>
      </trkpt>
      <trkpt lat="46.14559" lon="-1.31073">
        <ele>1.8</ele>
        <time>2025-07-02T10:47:14Z</time>
      </trkpt>
      <trkpt lat="46.14549" lon="-1.31069">
        <ele>1.8</ele>
        <time>2025-07-02T10:47:22Z</time>
      </trkpt>
      <trkpt lat="46.14538" lon="-1.31068">
        <ele>1.6</ele>
        <time>2025-07-02T10:47:29Z</time>
      </trkpt>
      <trkpt lat="46.14524" lon="-1.31069">
        <ele>1.8</ele>
        <time>2025-07-02T10:47:39Z</time>
      </trkpt>
      <trkpt lat="46.14511" lon="-1.31074">
        <ele>1.8</ele>
        <time>2025-07-02T10:47:49Z</time>
      </trkpt>
      <trkpt lat="46.14501" lon="-1.31079">
        <ele>1.6</ele>
        <time>2025-07-02T10:47:57Z</time>
      </trkpt>
      <trkpt lat="46.14488" lon="-1.31087">
        <ele>1.6</ele>
        <time>2025-07-02T10:48:07Z</time>
      </trkpt>
      <trkpt lat="46.14478" lon="-1.31092">
        <ele>1.6</ele>
        <time>2025-07-02T10:48:14Z</time>
      </trkpt>
      <trkpt lat="46.14465" lon="-1.31099">
        <ele>1.6</ele>
        <time>2025-07-02T10:48:24Z</time>
      </trkpt>
      <trkpt lat="46.14455" lon="-1.31104">
        <ele>1.8</ele>
        <time>2025-07-02T10:48:32Z</time>
      </trkpt>
      <trkpt lat="46.14441" lon="-1.31105">
        <ele>1.8</ele>
        <time>2025-07-02T10:48:43Z</time>
      </trkpt>
      <trkpt lat="46.14429" lon="-1.31106">
        <ele>1.8</ele>
        <time>2025-07-02T10:48:51Z</time>
      </trkpt>
      <trkpt lat="46.14416" lon="-1.3111">
        <ele>1.6</ele>
        <time>2025-07-02T10:49:00Z</time>
      </trkpt>
      <trkpt lat="46.14407" lon="-1.3111">
        <ele>1.6</ele>
        <time>2025-07-02T10:49:07Z</time>
      </trkpt>
      <trkpt lat="46.14398" lon="-1.311">
        <ele>1.6</ele>
        <time>2025-07-02T10:49:15Z</time>
      </trkpt>
      <trkpt lat="46.14396" lon="-1.31093">
        <ele>1.8</ele>
        <time>2025-07-02T10:49:19Z</time>
      </trkpt>
      <trkpt lat="46.14395" lon="-1.31087">
        <ele>1.8</ele>
        <time>2025-07-02T10:49:22Z</time>
      </trkpt>
      <trkpt lat="46.14393" lon="-1.31074">
        <ele>1.8</ele>
        <time>2025-07-02T10:49:29Z</time>
      </trkpt>
      <trkpt lat="46.14391" lon="-1.31052">
        <ele>1.6</ele>
        <time>2025-07-02T10:49:40Z</time>
      </trkpt>
      <trkpt lat="46.1439" lon="-1.3105">
        <ele>1.6</ele>
        <time>2025-07-02T10:49:41Z</time>
      </trkpt>
      <trkpt lat="46.1439" lon="-1.31045">
        <ele>1.6</ele>
        <time>2025-07-02T10:49:44Z</time>
      </trkpt>
      <trkpt lat="46.14389" lon="-1.31036">
        <ele>1.6</ele>
        <time>2025-07-02T10:49:48Z</time>
      </trkpt>
      <trkpt lat="46.14386" lon="-1.31014">
        <ele>1.6</ele>
        <time>2025-07-02T10:49:59Z</time>
      </trkpt>
      <trkpt lat="46.14384" lon="-1.30996">
        <ele>1.4</ele>
        <time>2025-07-02T10:50:08Z</time>
      </trkpt>
      <trkpt lat="46.14384" lon="-1.30995">
        <ele>1.4</ele>
        <time>2025-07-02T10:50:09Z</time>
      </trkpt>
      <trkpt lat="46.14382" lon="-1.30973">
        <ele>1.4</ele>
        <time>2025-07-02T10:50:20Z</time>
      </trkpt>
      <trkpt lat="46.14382" lon="-1.3097">
        <ele>1.6</ele>
        <time>2025-07-02T10:50:22Z</time>
      </trkpt>
      <trkpt lat="46.14381" lon="-1.3096">
        <ele>1.8</ele>
        <time>2025-07-02T10:50:27Z</time>
      </trkpt>
      <trkpt lat="46.14383" lon="-1.30957">
        <ele>1.8</ele>
        <time>2025-07-02T10:50:29Z</time>
      </trkpt>
      <trkpt lat="46.14384" lon="-1.30955">
        <ele>1.8</ele>
        <time>2025-07-02T10:50:30Z</time>
      </trkpt>
      <trkpt lat="46.14384" lon="-1.30953">
        <ele>1.6</ele>
        <time>2025-07-02T10:50:31Z</time>
      </trkpt>
      <trkpt lat="46.14383" lon="-1.30945">
        <ele>1.2</ele>
        <time>2025-07-02T10:50:35Z</time>
      </trkpt>
      <trkpt lat="46.14383" lon="-1.30943">
        <ele>1.2</ele>
        <time>2025-07-02T10:50:36Z</time>
      </trkpt>
      <trkpt lat="46.14383" lon="-1.30932">
        <ele>1.4</ele>
        <time>2025-07-02T10:50:41Z</time>
      </trkpt>
      <trkpt lat="46.14383" lon="-1.3093">
        <ele>1.4</ele>
        <time>2025-07-02T10:50:42Z</time>
      </trkpt>
      <trkpt lat="46.14383" lon="-1.30924">
        <ele>1.2</ele>
        <time>2025-07-02T10:50:45Z</time>
      </trkpt>
      <trkpt lat="46.14378" lon="-1.3091">
        <ele>1</ele>
        <time>2025-07-02T10:50:53Z</time>
      </trkpt>
      <trkpt lat="46.14374" lon="-1.30904">
        <ele>0.80000000000001</ele>
        <time>2025-07-02T10:50:57Z</time>
      </trkpt>
      <trkpt lat="46.1437" lon="-1.30895">
        <ele>0.60000000000002</ele>
        <time>2025-07-02T10:51:02Z</time>
      </trkpt>
      <trkpt lat="46.14366" lon="-1.30888">
        <ele>0.39999999999998</ele>
        <time>2025-07-02T10:51:06Z</time>
      </trkpt>
      <trkpt lat="46.14362" lon="-1.3088">
        <ele>0.39999999999998</ele>
        <time>2025-07-02T10:51:11Z</time>
      </trkpt>
      <trkpt lat="46.14353" lon="-1.3087">
        <ele>0.39999999999998</ele>
        <time>2025-07-02T10:51:19Z</time>
      </trkpt>
      <trkpt lat="46.14349" lon="-1.30867">
        <ele>0.39999999999998</ele>
        <time>2025-07-02T10:51:22Z</time>
      </trkpt>
      <trkpt lat="46.14345" lon="-1.30866">
        <ele>0.39999999999998</ele>
        <time>2025-07-02T10:51:25Z</time>
      </trkpt>
      <trkpt lat="46.14338" lon="-1.30861">
        <ele>0.60000000000002</ele>
        <time>2025-07-02T10:51:31Z</time>
      </trkpt>
      <trkpt lat="46.14336" lon="-1.3086">
        <ele>0.60000000000002</ele>
        <time>2025-07-02T10:51:34Z</time>
      </trkpt>
      <trkpt lat="46.14333" lon="-1.30857">
        <ele>0.60000000000002</ele>
        <time>2025-07-02T10:52:04Z</time>
      </trkpt>
      <trkpt lat="46.14333" lon="-1.30857">
        <ele>0.60000000000002</ele>
        <time>2025-07-02T10:52:05Z</time>
      </trkpt>
      <trkpt lat="46.14335" lon="-1.30854">
        <ele>0.60000000000002</ele>
        <time>2025-07-02T10:52:09Z</time>
      </trkpt>
      <trkpt lat="46.14337" lon="-1.30843">
        <ele>0.60000000000002</ele>
        <time>2025-07-02T10:52:15Z</time>
      </trkpt>
      <trkpt lat="46.14338" lon="-1.3083">
        <ele>-0.19999999999999</ele>
        <time>2025-07-02T10:52:22Z</time>
      </trkpt>
      <trkpt lat="46.14338" lon="-1.30824">
        <ele>-0.19999999999999</ele>
        <time>2025-07-02T10:52:25Z</time>
      </trkpt>
      <trkpt lat="46.1434" lon="-1.30809">
        <ele>-0.19999999999999</ele>
        <time>2025-07-02T10:52:33Z</time>
      </trkpt>
      <trkpt lat="46.14339" lon="-1.30803">
        <ele>-0.19999999999999</ele>
        <time>2025-07-02T10:52:36Z</time>
      </trkpt>
      <trkpt lat="46.14337" lon="-1.30789">
        <ele>-0.60000000000002</ele>
        <time>2025-07-02T10:52:44Z</time>
      </trkpt>
      <trkpt lat="46.14336" lon="-1.30788">
        <ele>-0.39999999999998</ele>
        <time>2025-07-02T10:52:50Z</time>
      </trkpt>
      <trkpt lat="46.14336" lon="-1.30786">
        <ele>-0.39999999999998</ele>
        <time>2025-07-02T10:53:01Z</time>
      </trkpt>
      <trkpt lat="46.14337" lon="-1.30781">
        <ele>-0.80000000000001</ele>
        <time>2025-07-02T10:53:08Z</time>
      </trkpt>
      <trkpt lat="46.14337" lon="-1.30766">
        <ele>-1.2</ele>
        <time>2025-07-02T10:53:15Z</time>
      </trkpt>
      <trkpt lat="46.14335" lon="-1.30753">
        <ele>-0.80000000000001</ele>
        <time>2025-07-02T10:53:23Z</time>
      </trkpt>
      <trkpt lat="46.14336" lon="-1.30752">
        <ele>-0.80000000000001</ele>
        <time>2025-07-02T10:53:24Z</time>
      </trkpt>
      <trkpt lat="46.14338" lon="-1.30736">
        <ele>-1.2</ele>
        <time>2025-07-02T10:53:32Z</time>
      </trkpt>
      <trkpt lat="46.14339" lon="-1.3072">
        <ele>-1.4</ele>
        <time>2025-07-02T10:53:40Z</time>
      </trkpt>
      <trkpt lat="46.14338" lon="-1.30714">
        <ele>-1.4</ele>
        <time>2025-07-02T10:53:43Z</time>
      </trkpt>
      <trkpt lat="46.14339" lon="-1.307">
        <ele>-1.4</ele>
        <time>2025-07-02T10:53:50Z</time>
      </trkpt>
      <trkpt lat="46.14339" lon="-1.30696">
        <ele>-1.6</ele>
        <time>2025-07-02T10:53:52Z</time>
      </trkpt>
      <trkpt lat="46.14337" lon="-1.30677">
        <ele>-1.6</ele>
        <time>2025-07-02T10:54:02Z</time>
      </trkpt>
      <trkpt lat="46.14333" lon="-1.30654">
        <ele>-1.8</ele>
        <time>2025-07-02T10:54:14Z</time>
      </trkpt>
      <trkpt lat="46.1433" lon="-1.3064">
        <ele>-1.6</ele>
        <time>2025-07-02T10:54:22Z</time>
      </trkpt>
      <trkpt lat="46.14328" lon="-1.30622">
        <ele>-1.6</ele>
        <time>2025-07-02T10:54:32Z</time>
      </trkpt>
      <trkpt lat="46.14326" lon="-1.30596">
        <ele>-1.2</ele>
        <time>2025-07-02T10:54:46Z</time>
      </trkpt>
      <trkpt lat="46.14326" lon="-1.30593">
        <ele>-1.2</ele>
        <time>2025-07-02T10:54:48Z</time>
      </trkpt>
      <trkpt lat="46.14326" lon="-1.30577">
        <ele>-1</ele>
        <time>2025-07-02T10:54:57Z</time>
      </trkpt>
      <trkpt lat="46.14328" lon="-1.30562">
        <ele>-1.4</ele>
        <time>2025-07-02T10:55:06Z</time>
      </trkpt>
      <trkpt lat="46.1433" lon="-1.30561">
        <ele>-1.4</ele>
        <time>2025-07-02T10:55:08Z</time>
      </trkpt>
      <trkpt lat="46.14335" lon="-1.30562">
        <ele>-2.2</ele>
        <time>2025-07-02T10:55:12Z</time>
      </trkpt>
      <trkpt lat="46.14338" lon="-1.30561">
        <ele>-2.4</ele>
        <time>2025-07-02T10:55:14Z</time>
      </trkpt>
      <trkpt lat="46.1434" lon="-1.30559">
        <ele>-2.6</ele>
        <time>2025-07-02T10:55:16Z</time>
      </trkpt>
      <trkpt lat="46.14341" lon="-1.30554">
        <ele>-2.6</ele>
        <time>2025-07-02T10:55:19Z</time>
      </trkpt>
      <trkpt lat="46.14341" lon="-1.30546">
        <ele>-2.6</ele>
        <time>2025-07-02T10:55:23Z</time>
      </trkpt>
      <trkpt lat="46.14339" lon="-1.3054">
        <ele>-2.4</ele>
        <time>2025-07-02T10:55:27Z</time>
      </trkpt>
      <trkpt lat="46.14336" lon="-1.30529">
        <ele>-2.4</ele>
        <time>2025-07-02T10:55:34Z</time>
      </trkpt>
      <trkpt lat="46.14338" lon="-1.30524">
        <ele>-2.4</ele>
        <time>2025-07-02T10:55:38Z</time>
      </trkpt>
      <trkpt lat="46.14338" lon="-1.30518">
        <ele>-2.2</ele>
        <time>2025-07-02T10:55:41Z</time>
      </trkpt>
      <trkpt lat="46.14332" lon="-1.30511">
        <ele>-1.8</ele>
        <time>2025-07-02T10:55:48Z</time>
      </trkpt>
      <trkpt lat="46.14332" lon="-1.30509">
        <ele>-1.6</ele>
        <time>2025-07-02T10:55:50Z</time>
      </trkpt>
      <trkpt lat="46.14334" lon="-1.30506">
        <ele>-1.6</ele>
        <time>2025-07-02T10:55:53Z</time>
      </trkpt>
      <trkpt lat="46.14337" lon="-1.305">
        <ele>-1.8</ele>
        <time>2025-07-02T10:55:58Z</time>
      </trkpt>
      <trkpt lat="46.14338" lon="-1.30495">
        <ele>-1.8</ele>
        <time>2025-07-02T10:56:01Z</time>
      </trkpt>
      <trkpt lat="46.14336" lon="-1.30479">
        <ele>-1.8</ele>
        <time>2025-07-02T10:56:09Z</time>
      </trkpt>
      <trkpt lat="46.1434" lon="-1.30464">
        <ele>-1.6</ele>
        <time>2025-07-02T10:56:18Z</time>
      </trkpt>
      <trkpt lat="46.14342" lon="-1.30461">
        <ele>-1.4</ele>
        <time>2025-07-02T10:56:20Z</time>
      </trkpt>
      <trkpt lat="46.14342" lon="-1.30459">
        <ele>-1.4</ele>
        <time>2025-07-02T10:56:21Z</time>
      </trkpt>
      <trkpt lat="46.14342" lon="-1.30458">
        <ele>-1.4</ele>
        <time>2025-07-02T10:56:23Z</time>
      </trkpt>
      <trkpt lat="46.14343" lon="-1.30457">
        <ele>-1.4</ele>
        <time>2025-07-02T10:56:26Z</time>
      </trkpt>
      <trkpt lat="46.14344" lon="-1.30455">
        <ele>-1.4</ele>
        <time>2025-07-02T10:56:27Z</time>
      </trkpt>
      <trkpt lat="46.1435" lon="-1.30443">
        <ele>-1.2</ele>
        <time>2025-07-02T10:56:35Z</time>
      </trkpt>
      <trkpt lat="46.14356" lon="-1.30434">
        <ele>-1</ele>
        <time>2025-07-02T10:56:41Z</time>
      </trkpt>
      <trkpt lat="46.14358" lon="-1.3043">
        <ele>-1</ele>
        <time>2025-07-02T10:56:43Z</time>
      </trkpt>
      <trkpt lat="46.14362" lon="-1.30419">
        <ele>-1</ele>
        <time>2025-07-02T10:56:50Z</time>
      </trkpt>
      <trkpt lat="46.14369" lon="-1.30403">
        <ele>-0.80000000000001</ele>
        <time>2025-07-02T10:57:00Z</time>
      </trkpt>
      <trkpt lat="46.14374" lon="-1.3039">
        <ele>-0.60000000000002</ele>
        <time>2025-07-02T10:57:08Z</time>
      </trkpt>
      <trkpt lat="46.14378" lon="-1.30375">
        <ele>-0.39999999999998</ele>
        <time>2025-07-02T10:57:17Z</time>
      </trkpt>
      <trkpt lat="46.1438" lon="-1.30364">
        <ele>-0.39999999999998</ele>
        <time>2025-07-02T10:57:23Z</time>
      </trkpt>
      <trkpt lat="46.14383" lon="-1.30356">
        <ele>-0.39999999999998</ele>
        <time>2025-07-02T10:57:28Z</time>
      </trkpt>
      <trkpt lat="46.14386" lon="-1.30339">
        <ele>-0.39999999999998</ele>
        <time>2025-07-02T10:57:37Z</time>
      </trkpt>
      <trkpt lat="46.1439" lon="-1.30325">
        <ele>-0.39999999999998</ele>
        <time>2025-07-02T10:57:45Z</time>
      </trkpt>
      <trkpt lat="46.14399" lon="-1.30303">
        <ele>-0.39999999999998</ele>
        <time>2025-07-02T10:57:59Z</time>
      </trkpt>
      <trkpt lat="46.14399" lon="-1.30301">
        <ele>-0.39999999999998</ele>
        <time>2025-07-02T10:58:00Z</time>
      </trkpt>
      <trkpt lat="46.14401" lon="-1.30289">
        <ele>-0.19999999999999</ele>
        <time>2025-07-02T10:58:07Z</time>
      </trkpt>
      <trkpt lat="46.14407" lon="-1.30269">
        <ele>-0.19999999999999</ele>
        <time>2025-07-02T10:58:17Z</time>
      </trkpt>
      <trkpt lat="46.14412" lon="-1.30257">
        <ele>-0.19999999999999</ele>
        <time>2025-07-02T10:58:24Z</time>
      </trkpt>
      <trkpt lat="46.14417" lon="-1.30248">
        <ele>-0.19999999999999</ele>
        <time>2025-07-02T10:58:31Z</time>
      </trkpt>
      <trkpt lat="46.14421" lon="-1.30236">
        <ele>-0.19999999999999</ele>
        <time>2025-07-02T10:58:38Z</time>
      </trkpt>
      <trkpt lat="46.14422" lon="-1.30234">
        <ele>-0.19999999999999</ele>
        <time>2025-07-02T10:58:39Z</time>
      </trkpt>
      <trkpt lat="46.14428" lon="-1.30217">
        <ele>-0.19999999999999</ele>
        <time>2025-07-02T10:58:49Z</time>
      </trkpt>
      <trkpt lat="46.1443" lon="-1.30214">
        <ele>-0.19999999999999</ele>
        <time>2025-07-02T10:58:51Z</time>
      </trkpt>
      <trkpt lat="46.14433" lon="-1.30209">
        <ele>-0.19999999999999</ele>
        <time>2025-07-02T10:58:56Z</time>
      </trkpt>
      <trkpt lat="46.14433" lon="-1.30209">
        <ele>0.19999999999999</ele>
        <time>2025-07-02T10:58:58Z</time>
      </trkpt>
      <trkpt lat="46.14432" lon="-1.3021">
        <ele>0.19999999999999</ele>
        <time>2025-07-02T10:59:00Z</time>
      </trkpt>
      <trkpt lat="46.14432" lon="-1.30212">
        <ele>0.19999999999999</ele>
        <time>2025-07-02T10:59:05Z</time>
      </trkpt>
      <trkpt lat="46.14432" lon="-1.30212">
        <ele>0.39999999999998</ele>
        <time>2025-07-02T10:59:16Z</time>
      </trkpt>
      <trkpt lat="46.14432" lon="-1.30212">
        <ele>0.39999999999998</ele>
        <time>2025-07-02T10:59:17Z</time>
      </trkpt>
      <trkpt lat="46.14433" lon="-1.30205">
        <ele>-0.19999999999999</ele>
        <time>2025-07-02T10:59:28Z</time>
      </trkpt>
      <trkpt lat="46.14436" lon="-1.30189">
        <ele>-0.19999999999999</ele>
        <time>2025-07-02T10:59:35Z</time>
      </trkpt>
      <trkpt lat="46.14442" lon="-1.30172">
        <ele>-0.19999999999999</ele>
        <time>2025-07-02T10:59:45Z</time>
      </trkpt>
      <trkpt lat="46.14447" lon="-1.30159">
        <ele>0.19999999999999</ele>
        <time>2025-07-02T10:59:53Z</time>
      </trkpt>
      <trkpt lat="46.14452" lon="-1.3014">
        <ele>0.19999999999999</ele>
        <time>2025-07-02T11:00:03Z</time>
      </trkpt>
      <trkpt lat="46.14455" lon="-1.30126">
        <ele>0.19999999999999</ele>
        <time>2025-07-02T11:00:10Z</time>
      </trkpt>
      <trkpt lat="46.14456" lon="-1.30113">
        <ele>0.19999999999999</ele>
        <time>2025-07-02T11:00:17Z</time>
      </trkpt>
      <trkpt lat="46.1446" lon="-1.30107">
        <ele>0.19999999999999</ele>
        <time>2025-07-02T11:00:21Z</time>
      </trkpt>
      <trkpt lat="46.14464" lon="-1.30101">
        <ele>0.19999999999999</ele>
        <time>2025-07-02T11:00:25Z</time>
      </trkpt>
      <trkpt lat="46.14461" lon="-1.30081">
        <ele>-0.19999999999999</ele>
        <time>2025-07-02T11:00:35Z</time>
      </trkpt>
      <trkpt lat="46.14461" lon="-1.30064">
        <ele>-0.19999999999999</ele>
        <time>2025-07-02T11:00:44Z</time>
      </trkpt>
      <trkpt lat="46.14461" lon="-1.30055">
        <ele>-0.19999999999999</ele>
        <time>2025-07-02T11:00:48Z</time>
      </trkpt>
      <trkpt lat="46.14461" lon="-1.30052">
        <ele>-0.19999999999999</ele>
        <time>2025-07-02T11:00:50Z</time>
      </trkpt>
      <trkpt lat="46.14461" lon="-1.30042">
        <ele>-0.19999999999999</ele>
        <time>2025-07-02T11:00:55Z</time>
      </trkpt>
      <trkpt lat="46.14463" lon="-1.30025">
        <ele>-0.19999999999999</ele>
        <time>2025-07-02T11:01:03Z</time>
      </trkpt>
      <trkpt lat="46.14464" lon="-1.30013">
        <ele>-0.19999999999999</ele>
        <time>2025-07-02T11:01:10Z</time>
      </trkpt>
      <trkpt lat="46.14464" lon="-1.3001">
        <ele>-0.19999999999999</ele>
        <time>2025-07-02T11:01:12Z</time>
      </trkpt>
      <trkpt lat="46.14462" lon="-1.29995">
        <ele>-0.19999999999999</ele>
        <time>2025-07-02T11:01:19Z</time>
      </trkpt>
      <trkpt lat="46.14461" lon="-1.2999">
        <ele>-0.19999999999999</ele>
        <time>2025-07-02T11:01:22Z</time>
      </trkpt>
      <trkpt lat="46.1446" lon="-1.29971">
        <ele>-0.19999999999999</ele>
        <time>2025-07-02T11:01:32Z</time>
      </trkpt>
      <trkpt lat="46.14458" lon="-1.29957">
        <ele>-0.19999999999999</ele>
        <time>2025-07-02T11:01:40Z</time>
      </trkpt>
      <trkpt lat="46.14456" lon="-1.29942">
        <ele>-0.19999999999999</ele>
        <time>2025-07-02T11:01:48Z</time>
      </trkpt>
      <trkpt lat="46.14456" lon="-1.2994">
        <ele>-0.19999999999999</ele>
        <time>2025-07-02T11:01:49Z</time>
      </trkpt>
      <trkpt lat="46.14456" lon="-1.2992">
        <ele>-0.19999999999999</ele>
        <time>2025-07-02T11:02:00Z</time>
      </trkpt>
      <trkpt lat="46.14453" lon="-1.29903">
        <ele>-0.39999999999998</ele>
        <time>2025-07-02T11:02:09Z</time>
      </trkpt>
      <trkpt lat="46.14449" lon="-1.29886">
        <ele>-0.19999999999999</ele>
        <time>2025-07-02T11:02:19Z</time>
      </trkpt>
      <trkpt lat="46.14447" lon="-1.29871">
        <ele>-0.19999999999999</ele>
        <time>2025-07-02T11:02:28Z</time>
      </trkpt>
      <trkpt lat="46.14444" lon="-1.29851">
        <ele>-0.19999999999999</ele>
        <time>2025-07-02T11:02:40Z</time>
      </trkpt>
      <trkpt lat="46.14442" lon="-1.29834">
        <ele>-0.60000000000002</ele>
        <time>2025-07-02T11:02:49Z</time>
      </trkpt>
      <trkpt lat="46.14442" lon="-1.29829">
        <ele>-0.60000000000002</ele>
        <time>2025-07-02T11:02:52Z</time>
      </trkpt>
      <trkpt lat="46.14442" lon="-1.29822">
        <ele>-0.60000000000002</ele>
        <time>2025-07-02T11:02:58Z</time>
      </trkpt>
      <trkpt lat="46.14444" lon="-1.29806">
        <ele>-0.80000000000001</ele>
        <time>2025-07-02T11:03:07Z</time>
      </trkpt>
      <trkpt lat="46.14444" lon="-1.29797">
        <ele>-0.39999999999998</ele>
        <time>2025-07-02T11:03:12Z</time>
      </trkpt>
      <trkpt lat="46.14444" lon="-1.2979">
        <ele>-0.19999999999999</ele>
        <time>2025-07-02T11:03:16Z</time>
      </trkpt>
      <trkpt lat="46.14445" lon="-1.29787">
        <ele>-0.19999999999999</ele>
        <time>2025-07-02T11:03:18Z</time>
      </trkpt>
      <trkpt lat="46.14445" lon="-1.29785">
        <ele>-0.19999999999999</ele>
        <time>2025-07-02T11:03:20Z</time>
      </trkpt>
      <trkpt lat="46.14445" lon="-1.29784">
        <ele>-0.19999999999999</ele>
        <time>2025-07-02T11:03:21Z</time>
      </trkpt>
      <trkpt lat="46.14444" lon="-1.29778">
        <ele>-0.19999999999999</ele>
        <time>2025-07-02T11:03:24Z</time>
      </trkpt>
      <trkpt lat="46.14443" lon="-1.2977">
        <ele>-0.19999999999999</ele>
        <time>2025-07-02T11:03:29Z</time>
      </trkpt>
      <trkpt lat="46.14444" lon="-1.29755">
        <ele>-0.19999999999999</ele>
        <time>2025-07-02T11:03:38Z</time>
      </trkpt>
      <trkpt lat="46.14447" lon="-1.29739">
        <ele>-0.19999999999999</ele>
        <time>2025-07-02T11:03:47Z</time>
      </trkpt>
      <trkpt lat="46.14448" lon="-1.29724">
        <ele>-0.19999999999999</ele>
        <time>2025-07-02T11:03:55Z</time>
      </trkpt>
      <trkpt lat="46.14448" lon="-1.29721">
        <ele>-0.19999999999999</ele>
        <time>2025-07-02T11:03:57Z</time>
      </trkpt>
      <trkpt lat="46.14448" lon="-1.29709">
        <ele>-0.19999999999999</ele>
        <time>2025-07-02T11:04:03Z</time>
      </trkpt>
      <trkpt lat="46.14449" lon="-1.29706">
        <ele>-0.19999999999999</ele>
        <time>2025-07-02T11:04:05Z</time>
      </trkpt>
      <trkpt lat="46.1445" lon="-1.29684">
        <ele>-0.19999999999999</ele>
        <time>2025-07-02T11:04:16Z</time>
      </trkpt>
      <trkpt lat="46.14453" lon="-1.29671">
        <ele>-0.19999999999999</ele>
        <time>2025-07-02T11:04:23Z</time>
      </trkpt>
      <trkpt lat="46.14454" lon="-1.2967">
        <ele>-0.19999999999999</ele>
        <time>2025-07-02T11:04:25Z</time>
      </trkpt>
      <trkpt lat="46.14457" lon="-1.29671">
        <ele>-0.60000000000002</ele>
        <time>2025-07-02T11:04:29Z</time>
      </trkpt>
      <trkpt lat="46.14458" lon="-1.2967">
        <ele>-0.80000000000001</ele>
        <time>2025-07-02T11:04:30Z</time>
      </trkpt>
      <trkpt lat="46.14459" lon="-1.29666">
        <ele>-1.2</ele>
        <time>2025-07-02T11:04:33Z</time>
      </trkpt>
      <trkpt lat="46.14457" lon="-1.29661">
        <ele>-1.4</ele>
        <time>2025-07-02T11:04:36Z</time>
      </trkpt>
      <trkpt lat="46.14456" lon="-1.29656">
        <ele>-1.8</ele>
        <time>2025-07-02T11:04:41Z</time>
      </trkpt>
      <trkpt lat="46.14456" lon="-1.29653">
        <ele>-2</ele>
        <time>2025-07-02T11:04:46Z</time>
      </trkpt>
      <trkpt lat="46.14459" lon="-1.29654">
        <ele>-2.4</ele>
        <time>2025-07-02T11:04:51Z</time>
      </trkpt>
      <trkpt lat="46.1446" lon="-1.29654">
        <ele>-2</ele>
        <time>2025-07-02T11:04:57Z</time>
      </trkpt>
      <trkpt lat="46.1446" lon="-1.29654">
        <ele>-1.8</ele>
        <time>2025-07-02T11:05:06Z</time>
      </trkpt>
      <trkpt lat="46.1446" lon="-1.29655">
        <ele>-2</ele>
        <time>2025-07-02T11:05:13Z</time>
      </trkpt>
      <trkpt lat="46.14458" lon="-1.29655">
        <ele>-2.2</ele>
        <time>2025-07-02T11:05:16Z</time>
      </trkpt>
      <trkpt lat="46.14455" lon="-1.29654">
        <ele>-2.2</ele>
        <time>2025-07-02T11:05:19Z</time>
      </trkpt>
      <trkpt lat="46.14453" lon="-1.29654">
        <ele>-2.4</ele>
        <time>2025-07-02T11:05:21Z</time>
      </trkpt>
      <trkpt lat="46.14451" lon="-1.29652">
        <ele>-2.4</ele>
        <time>2025-07-02T11:05:23Z</time>
      </trkpt>
      <trkpt lat="46.14451" lon="-1.29652">
        <ele>-2.6</ele>
        <time>2025-07-02T11:05:24Z</time>
      </trkpt>
      <trkpt lat="46.14451" lon="-1.2965">
        <ele>-2.8</ele>
        <time>2025-07-02T11:05:25Z</time>
      </trkpt>
      <trkpt lat="46.14452" lon="-1.29644">
        <ele>-3</ele>
        <time>2025-07-02T11:05:29Z</time>
      </trkpt>
      <trkpt lat="46.14454" lon="-1.29639">
        <ele>-3.2</ele>
        <time>2025-07-02T11:05:32Z</time>
      </trkpt>
      <trkpt lat="46.14461" lon="-1.29633">
        <ele>-3.4</ele>
        <time>2025-07-02T11:05:39Z</time>
      </trkpt>
      <trkpt lat="46.14465" lon="-1.29627">
        <ele>-3.6</ele>
        <time>2025-07-02T11:05:46Z</time>
      </trkpt>
      <trkpt lat="46.14466" lon="-1.29626">
        <ele>-3.6</ele>
        <time>2025-07-02T11:05:47Z</time>
      </trkpt>
      <trkpt lat="46.14467" lon="-1.29625">
        <ele>-3.4</ele>
        <time>2025-07-02T11:05:48Z</time>
      </trkpt>
      <trkpt lat="46.14471" lon="-1.29617">
        <ele>-3.4</ele>
        <time>2025-07-02T11:05:54Z</time>
      </trkpt>
      <trkpt lat="46.14476" lon="-1.29604">
        <ele>-3.4</ele>
        <time>2025-07-02T11:06:03Z</time>
      </trkpt>
      <trkpt lat="46.14478" lon="-1.29589">
        <ele>-3.2</ele>
        <time>2025-07-02T11:06:13Z</time>
      </trkpt>
      <trkpt lat="46.14479" lon="-1.29579">
        <ele>-3.2</ele>
        <time>2025-07-02T11:06:20Z</time>
      </trkpt>
      <trkpt lat="46.1448" lon="-1.29577">
        <ele>-3.2</ele>
        <time>2025-07-02T11:06:22Z</time>
      </trkpt>
      <trkpt lat="46.14481" lon="-1.29566">
        <ele>-3</ele>
        <time>2025-07-02T11:06:30Z</time>
      </trkpt>
      <trkpt lat="46.14483" lon="-1.29551">
        <ele>-3</ele>
        <time>2025-07-02T11:06:40Z</time>
      </trkpt>
      <trkpt lat="46.14484" lon="-1.29539">
        <ele>-3</ele>
        <time>2025-07-02T11:06:48Z</time>
      </trkpt>
      <trkpt lat="46.1448" lon="-1.29527">
        <ele>-3</ele>
        <time>2025-07-02T11:06:56Z</time>
      </trkpt>
      <trkpt lat="46.14481" lon="-1.29526">
        <ele>-3</ele>
        <time>2025-07-02T11:06:57Z</time>
      </trkpt>
      <trkpt lat="46.1448" lon="-1.29524">
        <ele>-3</ele>
        <time>2025-07-02T11:06:58Z</time>
      </trkpt>
      <trkpt lat="46.1448" lon="-1.29515">
        <ele>-3</ele>
        <time>2025-07-02T11:07:04Z</time>
      </trkpt>
      <trkpt lat="46.1448" lon="-1.29512">
        <ele>-3</ele>
        <time>2025-07-02T11:07:06Z</time>
      </trkpt>
      <trkpt lat="46.14481" lon="-1.29506">
        <ele>-3.2</ele>
        <time>2025-07-02T11:07:10Z</time>
      </trkpt>
      <trkpt lat="46.1448" lon="-1.29502">
        <ele>-3.2</ele>
        <time>2025-07-02T11:07:16Z</time>
      </trkpt>
      <trkpt lat="46.14481" lon="-1.29492">
        <ele>-3.2</ele>
        <time>2025-07-02T11:07:22Z</time>
      </trkpt>
      <trkpt lat="46.14481" lon="-1.29479">
        <ele>-3.2</ele>
        <time>2025-07-02T11:07:30Z</time>
      </trkpt>
      <trkpt lat="46.14481" lon="-1.29476">
        <ele>-3.2</ele>
        <time>2025-07-02T11:07:32Z</time>
      </trkpt>
      <trkpt lat="46.14481" lon="-1.29473">
        <ele>-3.2</ele>
        <time>2025-07-02T11:07:34Z</time>
      </trkpt>
      <trkpt lat="46.1448" lon="-1.29463">
        <ele>-3</ele>
        <time>2025-07-02T11:07:40Z</time>
      </trkpt>
      <trkpt lat="46.1448" lon="-1.29455">
        <ele>-3.2</ele>
        <time>2025-07-02T11:07:45Z</time>
      </trkpt>
      <trkpt lat="46.14479" lon="-1.2945">
        <ele>-3.2</ele>
        <time>2025-07-02T11:07:48Z</time>
      </trkpt>
      <trkpt lat="46.14479" lon="-1.29449">
        <ele>-3</ele>
        <time>2025-07-02T11:07:49Z</time>
      </trkpt>
      <trkpt lat="46.1448" lon="-1.29447">
        <ele>-3.2</ele>
        <time>2025-07-02T11:07:50Z</time>
      </trkpt>
      <trkpt lat="46.14479" lon="-1.29443">
        <ele>-3</ele>
        <time>2025-07-02T11:07:53Z</time>
      </trkpt>
      <trkpt lat="46.14478" lon="-1.29438">
        <ele>-3</ele>
        <time>2025-07-02T11:07:56Z</time>
      </trkpt>
      <trkpt lat="46.14474" lon="-1.29421">
        <ele>-3</ele>
        <time>2025-07-02T11:08:06Z</time>
      </trkpt>
      <trkpt lat="46.14472" lon="-1.29407">
        <ele>-3</ele>
        <time>2025-07-02T11:08:15Z</time>
      </trkpt>
      <trkpt lat="46.14468" lon="-1.29388">
        <ele>-3</ele>
        <time>2025-07-02T11:08:27Z</time>
      </trkpt>
      <trkpt lat="46.1447" lon="-1.29372">
        <ele>-2.6</ele>
        <time>2025-07-02T11:08:37Z</time>
      </trkpt>
      <trkpt lat="46.1447" lon="-1.29363">
        <ele>-2.4</ele>
        <time>2025-07-02T11:08:43Z</time>
      </trkpt>
      <trkpt lat="46.14472" lon="-1.29361">
        <ele>-2.2</ele>
        <time>2025-07-02T11:08:45Z</time>
      </trkpt>
      <trkpt lat="46.14473" lon="-1.29357">
        <ele>-1.8</ele>
        <time>2025-07-02T11:08:49Z</time>
      </trkpt>
      <trkpt lat="46.14474" lon="-1.29356">
        <ele>-1.8</ele>
        <time>2025-07-02T11:08:51Z</time>
      </trkpt>
      <trkpt lat="46.14475" lon="-1.29354">
        <ele>-1.8</ele>
        <time>2025-07-02T11:08:53Z</time>
      </trkpt>
      <trkpt lat="46.14477" lon="-1.2935">
        <ele>-1.6</ele>
        <time>2025-07-02T11:08:56Z</time>
      </trkpt>
      <trkpt lat="46.14478" lon="-1.29348">
        <ele>-1.6</ele>
        <time>2025-07-02T11:08:58Z</time>
      </trkpt>
      <trkpt lat="46.14484" lon="-1.29342">
        <ele>-1.4</ele>
        <time>2025-07-02T11:09:06Z</time>
      </trkpt>
      <trkpt lat="46.14487" lon="-1.2934">
        <ele>-1.4</ele>
        <time>2025-07-02T11:09:10Z</time>
      </trkpt>
      <trkpt lat="46.1449" lon="-1.2934">
        <ele>-1.4</ele>
        <time>2025-07-02T11:09:13Z</time>
      </trkpt>
      <trkpt lat="46.14492" lon="-1.2934">
        <ele>-1.2</ele>
        <time>2025-07-02T11:09:14Z</time>
      </trkpt>
      <trkpt lat="46.14497" lon="-1.2934">
        <ele>-1</ele>
        <time>2025-07-02T11:09:18Z</time>
      </trkpt>
      <trkpt lat="46.14499" lon="-1.2934">
        <ele>-1</ele>
        <time>2025-07-02T11:09:20Z</time>
      </trkpt>
      <trkpt lat="46.14501" lon="-1.29339">
        <ele>-0.80000000000001</ele>
        <time>2025-07-02T11:09:22Z</time>
      </trkpt>
      <trkpt lat="46.14502" lon="-1.29338">
        <ele>-0.80000000000001</ele>
        <time>2025-07-02T11:09:25Z</time>
      </trkpt>
      <trkpt lat="46.14503" lon="-1.29334">
        <ele>-0.60000000000002</ele>
        <time>2025-07-02T11:09:29Z</time>
      </trkpt>
      <trkpt lat="46.14503" lon="-1.29331">
        <ele>-0.80000000000001</ele>
        <time>2025-07-02T11:09:31Z</time>
      </trkpt>
      <trkpt lat="46.14504" lon="-1.29328">
        <ele>-1</ele>
        <time>2025-07-02T11:09:33Z</time>
      </trkpt>
      <trkpt lat="46.14505" lon="-1.29323">
        <ele>-1</ele>
        <time>2025-07-02T11:09:37Z</time>
      </trkpt>
      <trkpt lat="46.14505" lon="-1.29321">
        <ele>-1</ele>
        <time>2025-07-02T11:09:39Z</time>
      </trkpt>
      <trkpt lat="46.14506" lon="-1.2932">
        <ele>-1</ele>
        <time>2025-07-02T11:09:40Z</time>
      </trkpt>
      <trkpt lat="46.14507" lon="-1.29306">
        <ele>-1.2</ele>
        <time>2025-07-02T11:09:50Z</time>
      </trkpt>
      <trkpt lat="46.14505" lon="-1.29302">
        <ele>-1.4</ele>
        <time>2025-07-02T11:09:54Z</time>
      </trkpt>
      <trkpt lat="46.14505" lon="-1.29301">
        <ele>-1.4</ele>
        <time>2025-07-02T11:09:56Z</time>
      </trkpt>
      <trkpt lat="46.14505" lon="-1.29294">
        <ele>-1.8</ele>
        <time>2025-07-02T11:10:03Z</time>
      </trkpt>
      <trkpt lat="46.14506" lon="-1.2929">
        <ele>-1.8</ele>
        <time>2025-07-02T11:10:07Z</time>
      </trkpt>
      <trkpt lat="46.14508" lon="-1.29284">
        <ele>-1.8</ele>
        <time>2025-07-02T11:10:11Z</time>
      </trkpt>
      <trkpt lat="46.14509" lon="-1.29279">
        <ele>-1.6</ele>
        <time>2025-07-02T11:10:15Z</time>
      </trkpt>
      <trkpt lat="46.1451" lon="-1.29275">
        <ele>-1.8</ele>
        <time>2025-07-02T11:10:18Z</time>
      </trkpt>
      <trkpt lat="46.14511" lon="-1.29269">
        <ele>-2</ele>
        <time>2025-07-02T11:10:22Z</time>
      </trkpt>
      <trkpt lat="46.14512" lon="-1.29267">
        <ele>-2</ele>
        <time>2025-07-02T11:10:24Z</time>
      </trkpt>
      <trkpt lat="46.14512" lon="-1.29265">
        <ele>-1.8</ele>
        <time>2025-07-02T11:10:26Z</time>
      </trkpt>
      <trkpt lat="46.14511" lon="-1.29252">
        <ele>-1.8</ele>
        <time>2025-07-02T11:10:35Z</time>
      </trkpt>
      <trkpt lat="46.14511" lon="-1.29238">
        <ele>-1.8</ele>
        <time>2025-07-02T11:10:44Z</time>
      </trkpt>
      <trkpt lat="46.1451" lon="-1.29226">
        <ele>-1.8</ele>
        <time>2025-07-02T11:10:53Z</time>
      </trkpt>
      <trkpt lat="46.14506" lon="-1.29216">
        <ele>-2</ele>
        <time>2025-07-02T11:11:01Z</time>
      </trkpt>
      <trkpt lat="46.14505" lon="-1.29213">
        <ele>-1.8</ele>
        <time>2025-07-02T11:11:05Z</time>
      </trkpt>
      <trkpt lat="46.14504" lon="-1.29213">
        <ele>-2.2</ele>
        <time>2025-07-02T11:11:38Z</time>
      </trkpt>
      <trkpt lat="46.14504" lon="-1.29213">
        <ele>-2.2</ele>
        <time>2025-07-02T11:11:39Z</time>
      </trkpt>
      <trkpt lat="46.14504" lon="-1.29213">
        <ele>-2.6</ele>
        <time>2025-07-02T11:11:45Z</time>
      </trkpt>
      <trkpt lat="46.145" lon="-1.29211">
        <ele>-3</ele>
        <time>2025-07-02T11:11:49Z</time>
      </trkpt>
      <trkpt lat="46.14497" lon="-1.29205">
        <ele>-3.6</ele>
        <time>2025-07-02T11:11:53Z</time>
      </trkpt>
      <trkpt lat="46.14496" lon="-1.29201">
        <ele>-3.8</ele>
        <time>2025-07-02T11:11:55Z</time>
      </trkpt>
      <trkpt lat="46.14494" lon="-1.29187">
        <ele>-4</ele>
        <time>2025-07-02T11:12:03Z</time>
      </trkpt>
      <trkpt lat="46.14492" lon="-1.29174">
        <ele>-4</ele>
        <time>2025-07-02T11:12:10Z</time>
      </trkpt>
      <trkpt lat="46.14492" lon="-1.29171">
        <ele>-4</ele>
        <time>2025-07-02T11:12:12Z</time>
      </trkpt>
      <trkpt lat="46.14489" lon="-1.29159">
        <ele>-4</ele>
        <time>2025-07-02T11:12:19Z</time>
      </trkpt>
      <trkpt lat="46.14489" lon="-1.29157">
        <ele>-4</ele>
        <time>2025-07-02T11:12:20Z</time>
      </trkpt>
      <trkpt lat="46.14489" lon="-1.29151">
        <ele>-4.2</ele>
        <time>2025-07-02T11:12:24Z</time>
      </trkpt>
      <trkpt lat="46.14485" lon="-1.29137">
        <ele>-4</ele>
        <time>2025-07-02T11:12:33Z</time>
      </trkpt>
      <trkpt lat="46.14482" lon="-1.29122">
        <ele>-4.2</ele>
        <time>2025-07-02T11:12:42Z</time>
      </trkpt>
      <trkpt lat="46.14479" lon="-1.29103">
        <ele>-4</ele>
        <time>2025-07-02T11:12:53Z</time>
      </trkpt>
      <trkpt lat="46.14477" lon="-1.29086">
        <ele>-4</ele>
        <time>2025-07-02T11:13:02Z</time>
      </trkpt>
      <trkpt lat="46.14473" lon="-1.29068">
        <ele>-4</ele>
        <time>2025-07-02T11:13:12Z</time>
      </trkpt>
      <trkpt lat="46.14471" lon="-1.29054">
        <ele>-4</ele>
        <time>2025-07-02T11:13:20Z</time>
      </trkpt>
      <trkpt lat="46.14466" lon="-1.2904">
        <ele>-4</ele>
        <time>2025-07-02T11:13:28Z</time>
      </trkpt>
      <trkpt lat="46.14464" lon="-1.29027">
        <ele>-3.8</ele>
        <time>2025-07-02T11:13:36Z</time>
      </trkpt>
      <trkpt lat="46.14464" lon="-1.29025">
        <ele>-4</ele>
        <time>2025-07-02T11:13:37Z</time>
      </trkpt>
      <trkpt lat="46.1446" lon="-1.29013">
        <ele>-4</ele>
        <time>2025-07-02T11:13:45Z</time>
      </trkpt>
      <trkpt lat="46.14457" lon="-1.29">
        <ele>-3.8</ele>
        <time>2025-07-02T11:13:53Z</time>
      </trkpt>
      <trkpt lat="46.14456" lon="-1.28997">
        <ele>-3.8</ele>
        <time>2025-07-02T11:13:55Z</time>
      </trkpt>
      <trkpt lat="46.14456" lon="-1.28989">
        <ele>-3.8</ele>
        <time>2025-07-02T11:14:00Z</time>
      </trkpt>
      <trkpt lat="46.14456" lon="-1.28985">
        <ele>-3.6</ele>
        <time>2025-07-02T11:14:02Z</time>
      </trkpt>
      <trkpt lat="46.14456" lon="-1.28982">
        <ele>-3.6</ele>
        <time>2025-07-02T11:14:04Z</time>
      </trkpt>
      <trkpt lat="46.14457" lon="-1.2898">
        <ele>-3.4</ele>
        <time>2025-07-02T11:14:06Z</time>
      </trkpt>
      <trkpt lat="46.14457" lon="-1.28978">
        <ele>-3.4</ele>
        <time>2025-07-02T11:14:08Z</time>
      </trkpt>
      <trkpt lat="46.14462" lon="-1.2897">
        <ele>-3.2</ele>
        <time>2025-07-02T11:14:14Z</time>
      </trkpt>
      <trkpt lat="46.14466" lon="-1.2896">
        <ele>-2.6</ele>
        <time>2025-07-02T11:14:24Z</time>
      </trkpt>
      <trkpt lat="46.14466" lon="-1.28957">
        <ele>-2</ele>
        <time>2025-07-02T11:14:30Z</time>
      </trkpt>
      <trkpt lat="46.14466" lon="-1.28957">
        <ele>-1.6</ele>
        <time>2025-07-02T11:14:34Z</time>
      </trkpt>
      <trkpt lat="46.14465" lon="-1.28958">
        <ele>-1.6</ele>
        <time>2025-07-02T11:14:36Z</time>
      </trkpt>
      <trkpt lat="46.14466" lon="-1.28958">
        <ele>-2</ele>
        <time>2025-07-02T11:14:40Z</time>
      </trkpt>
      <trkpt lat="46.14466" lon="-1.28952">
        <ele>-2.2</ele>
        <time>2025-07-02T11:14:46Z</time>
      </trkpt>
      <trkpt lat="46.14466" lon="-1.2895">
        <ele>-2.2</ele>
        <time>2025-07-02T11:14:48Z</time>
      </trkpt>
      <trkpt lat="46.14466" lon="-1.28949">
        <ele>-2.2</ele>
        <time>2025-07-02T11:14:53Z</time>
      </trkpt>
      <trkpt lat="46.14466" lon="-1.28948">
        <ele>-2.4</ele>
        <time>2025-07-02T11:14:54Z</time>
      </trkpt>
      <trkpt lat="46.14466" lon="-1.28945">
        <ele>-2.6</ele>
        <time>2025-07-02T11:14:59Z</time>
      </trkpt>
      <trkpt lat="46.14465" lon="-1.28937">
        <ele>-2.6</ele>
        <time>2025-07-02T11:15:05Z</time>
      </trkpt>
      <trkpt lat="46.14465" lon="-1.28922">
        <ele>-2.8</ele>
        <time>2025-07-02T11:15:13Z</time>
      </trkpt>
      <trkpt lat="46.14469" lon="-1.28904">
        <ele>-2.6</ele>
        <time>2025-07-02T11:15:24Z</time>
      </trkpt>
      <trkpt lat="46.14476" lon="-1.28891">
        <ele>-2.6</ele>
        <time>2025-07-02T11:15:33Z</time>
      </trkpt>
      <trkpt lat="46.14479" lon="-1.28883">
        <ele>-2.6</ele>
        <time>2025-07-02T11:15:38Z</time>
      </trkpt>
      <trkpt lat="46.14481" lon="-1.28877">
        <ele>-2.8</ele>
        <time>2025-07-02T11:15:42Z</time>
      </trkpt>
      <trkpt lat="46.14487" lon="-1.28864">
        <ele>-2.2</ele>
        <time>2025-07-02T11:15:52Z</time>
      </trkpt>
      <trkpt lat="46.14496" lon="-1.28853">
        <ele>-2.4</ele>
        <time>2025-07-02T11:16:02Z</time>
      </trkpt>
      <trkpt lat="46.14503" lon="-1.28848">
        <ele>-2.4</ele>
        <time>2025-07-02T11:16:08Z</time>
      </trkpt>
      <trkpt lat="46.14504" lon="-1.28847">
        <ele>-2.4</ele>
        <time>2025-07-02T11:16:09Z</time>
      </trkpt>
      <trkpt lat="46.1451" lon="-1.28842">
        <ele>-2.4</ele>
        <time>2025-07-02T11:16:15Z</time>
      </trkpt>
      <trkpt lat="46.14515" lon="-1.28839">
        <ele>-2.2</ele>
        <time>2025-07-02T11:16:21Z</time>
      </trkpt>
      <trkpt lat="46.14522" lon="-1.28837">
        <ele>-2</ele>
        <time>2025-07-02T11:16:29Z</time>
      </trkpt>
      <trkpt lat="46.14526" lon="-1.28836">
        <ele>-1.6</ele>
        <time>2025-07-02T11:16:33Z</time>
      </trkpt>
      <trkpt lat="46.14528" lon="-1.28835">
        <ele>-1.6</ele>
        <time>2025-07-02T11:16:35Z</time>
      </trkpt>
      <trkpt lat="46.14528" lon="-1.28835">
        <ele>-1.6</ele>
        <time>2025-07-02T11:16:36Z</time>
      </trkpt>
      <trkpt lat="46.1453" lon="-1.28834">
        <ele>-1.6</ele>
        <time>2025-07-02T11:16:41Z</time>
      </trkpt>
      <trkpt lat="46.14531" lon="-1.28833">
        <ele>-1.6</ele>
        <time>2025-07-02T11:16:43Z</time>
      </trkpt>
      <trkpt lat="46.14538" lon="-1.28827">
        <ele>-1.6</ele>
        <time>2025-07-02T11:16:50Z</time>
      </trkpt>
      <trkpt lat="46.14541" lon="-1.28823">
        <ele>-1.8</ele>
        <time>2025-07-02T11:16:54Z</time>
      </trkpt>
      <trkpt lat="46.14542" lon="-1.28823">
        <ele>-1.8</ele>
        <time>2025-07-02T11:16:56Z</time>
      </trkpt>
      <trkpt lat="46.14543" lon="-1.28823">
        <ele>-1.8</ele>
        <time>2025-07-02T11:16:57Z</time>
      </trkpt>
      <trkpt lat="46.14546" lon="-1.28829">
        <ele>-1.6</ele>
        <time>2025-07-02T11:17:03Z</time>
      </trkpt>
      <trkpt lat="46.14546" lon="-1.28832">
        <ele>-1.4</ele>
        <time>2025-07-02T11:17:05Z</time>
      </trkpt>
      <trkpt lat="46.14549" lon="-1.28838">
        <ele>-1</ele>
        <time>2025-07-02T11:17:12Z</time>
      </trkpt>
      <trkpt lat="46.14552" lon="-1.2884">
        <ele>-1</ele>
        <time>2025-07-02T11:17:17Z</time>
      </trkpt>
      <trkpt lat="46.14551" lon="-1.28839">
        <ele>-1.6</ele>
        <time>2025-07-02T11:17:24Z</time>
      </trkpt>
      <trkpt lat="46.14547" lon="-1.28831">
        <ele>-1</ele>
        <time>2025-07-02T11:17:31Z</time>
      </trkpt>
      <trkpt lat="46.14545" lon="-1.28822">
        <ele>-1.4</ele>
        <time>2025-07-02T11:17:38Z</time>
      </trkpt>
      <trkpt lat="46.14543" lon="-1.28816">
        <ele>-2</ele>
        <time>2025-07-02T11:17:45Z</time>
      </trkpt>
      <trkpt lat="46.14543" lon="-1.28815">
        <ele>-2.2</ele>
        <time>2025-07-02T11:17:46Z</time>
      </trkpt>
      <trkpt lat="46.1454" lon="-1.28813">
        <ele>-2.6</ele>
        <time>2025-07-02T11:17:51Z</time>
      </trkpt>
      <trkpt lat="46.1454" lon="-1.28811">
        <ele>-2.8</ele>
        <time>2025-07-02T11:17:53Z</time>
      </trkpt>
      <trkpt lat="46.14543" lon="-1.28803">
        <ele>-3.4</ele>
        <time>2025-07-02T11:17:59Z</time>
      </trkpt>
      <trkpt lat="46.14546" lon="-1.288">
        <ele>-3.6</ele>
        <time>2025-07-02T11:18:02Z</time>
      </trkpt>
      <trkpt lat="46.14549" lon="-1.28797">
        <ele>-3.8</ele>
        <time>2025-07-02T11:18:05Z</time>
      </trkpt>
      <trkpt lat="46.1456" lon="-1.28787">
        <ele>-4</ele>
        <time>2025-07-02T11:18:15Z</time>
      </trkpt>
      <trkpt lat="46.14568" lon="-1.28781">
        <ele>-3.8</ele>
        <time>2025-07-02T11:18:23Z</time>
      </trkpt>
      <trkpt lat="46.14571" lon="-1.2878">
        <ele>-3.4</ele>
        <time>2025-07-02T11:18:29Z</time>
      </trkpt>
      <trkpt lat="46.14572" lon="-1.2878">
        <ele>-3.2</ele>
        <time>2025-07-02T11:18:31Z</time>
      </trkpt>
      <trkpt lat="46.14578" lon="-1.2878">
        <ele>-2.8</ele>
        <time>2025-07-02T11:18:37Z</time>
      </trkpt>
      <trkpt lat="46.14579" lon="-1.2878">
        <ele>-2.4</ele>
        <time>2025-07-02T11:18:38Z</time>
      </trkpt>
      <trkpt lat="46.14582" lon="-1.2878">
        <ele>-2</ele>
        <time>2025-07-02T11:18:42Z</time>
      </trkpt>
      <trkpt lat="46.14584" lon="-1.2878">
        <ele>-1.4</ele>
        <time>2025-07-02T11:18:46Z</time>
      </trkpt>
      <trkpt lat="46.14589" lon="-1.28786">
        <ele>-1</ele>
        <time>2025-07-02T11:18:54Z</time>
      </trkpt>
      <trkpt lat="46.1459" lon="-1.28789">
        <ele>-1</ele>
        <time>2025-07-02T11:18:56Z</time>
      </trkpt>
      <trkpt lat="46.1459" lon="-1.28799">
        <ele>-1</ele>
        <time>2025-07-02T11:19:01Z</time>
      </trkpt>
      <trkpt lat="46.1459" lon="-1.28801">
        <ele>-1</ele>
        <time>2025-07-02T11:19:02Z</time>
      </trkpt>
      <trkpt lat="46.14592" lon="-1.28806">
        <ele>-1.4</ele>
        <time>2025-07-02T11:19:05Z</time>
      </trkpt>
      <trkpt lat="46.14593" lon="-1.2881">
        <ele>-1.4</ele>
        <time>2025-07-02T11:19:07Z</time>
      </trkpt>
      <trkpt lat="46.14594" lon="-1.28811">
        <ele>-1.6</ele>
        <time>2025-07-02T11:19:08Z</time>
      </trkpt>
      <trkpt lat="46.14596" lon="-1.28808">
        <ele>-1.6</ele>
        <time>2025-07-02T11:19:11Z</time>
      </trkpt>
      <trkpt lat="46.14594" lon="-1.28794">
        <ele>-1</ele>
        <time>2025-07-02T11:19:18Z</time>
      </trkpt>
      <trkpt lat="46.14595" lon="-1.28786">
        <ele>-0.80000000000001</ele>
        <time>2025-07-02T11:19:22Z</time>
      </trkpt>
      <trkpt lat="46.14596" lon="-1.28782">
        <ele>-0.80000000000001</ele>
        <time>2025-07-02T11:19:25Z</time>
      </trkpt>
      <trkpt lat="46.14595" lon="-1.28769">
        <ele>-0.19999999999999</ele>
        <time>2025-07-02T11:19:31Z</time>
      </trkpt>
      <trkpt lat="46.14594" lon="-1.28765">
        <ele>0.19999999999999</ele>
        <time>2025-07-02T11:19:34Z</time>
      </trkpt>
      <trkpt lat="46.14592" lon="-1.28751">
        <ele>-0.19999999999999</ele>
        <time>2025-07-02T11:22:30Z</time>
      </trkpt>
      <trkpt lat="46.14592" lon="-1.28751">
        <ele>-0.19999999999999</ele>
        <time>2025-07-02T11:22:31Z</time>
      </trkpt>
      <trkpt lat="46.14592" lon="-1.28751">
        <ele>-0.19999999999999</ele>
        <time>2025-07-02T11:22:33Z</time>
      </trkpt>
      <trkpt lat="46.14594" lon="-1.28748">
        <ele>-0.19999999999999</ele>
        <time>2025-07-02T11:22:38Z</time>
      </trkpt>
      <trkpt lat="46.14599" lon="-1.28736">
        <ele>-0.39999999999998</ele>
        <time>2025-07-02T11:22:45Z</time>
      </trkpt>
      <trkpt lat="46.14599" lon="-1.28733">
        <ele>-0.80000000000001</ele>
        <time>2025-07-02T11:22:47Z</time>
      </trkpt>
      <trkpt lat="46.146" lon="-1.28718">
        <ele>-0.60000000000002</ele>
        <time>2025-07-02T11:22:55Z</time>
      </trkpt>
      <trkpt lat="46.14603" lon="-1.287">
        <ele>-0.60000000000002</ele>
        <time>2025-07-02T11:23:04Z</time>
      </trkpt>
      <trkpt lat="46.14604" lon="-1.28685">
        <ele>-0.39999999999998</ele>
        <time>2025-07-02T11:23:12Z</time>
      </trkpt>
      <trkpt lat="46.14606" lon="-1.28672">
        <ele>-0.39999999999998</ele>
        <time>2025-07-02T11:23:18Z</time>
      </trkpt>
      <trkpt lat="46.14607" lon="-1.28667">
        <ele>-0.39999999999998</ele>
        <time>2025-07-02T11:23:21Z</time>
      </trkpt>
      <trkpt lat="46.14612" lon="-1.28653">
        <ele>-0.19999999999999</ele>
        <time>2025-07-02T11:23:29Z</time>
      </trkpt>
      <trkpt lat="46.14616" lon="-1.28642">
        <ele>-1.2</ele>
        <time>2025-07-02T11:23:35Z</time>
      </trkpt>
      <trkpt lat="46.14617" lon="-1.28639">
        <ele>-1.2</ele>
        <time>2025-07-02T11:23:37Z</time>
      </trkpt>
      <trkpt lat="46.14621" lon="-1.28619">
        <ele>-1.4</ele>
        <time>2025-07-02T11:23:46Z</time>
      </trkpt>
      <trkpt lat="46.14621" lon="-1.28602">
        <ele>-1</ele>
        <time>2025-07-02T11:23:54Z</time>
      </trkpt>
      <trkpt lat="46.14622" lon="-1.28588">
        <ele>-1</ele>
        <time>2025-07-02T11:24:02Z</time>
      </trkpt>
      <trkpt lat="46.14622" lon="-1.28587">
        <ele>-1</ele>
        <time>2025-07-02T11:24:03Z</time>
      </trkpt>
      <trkpt lat="46.14623" lon="-1.28587">
        <ele>-1</ele>
        <time>2025-07-02T11:24:04Z</time>
      </trkpt>
      <trkpt lat="46.1463" lon="-1.28585">
        <ele>-1</ele>
        <time>2025-07-02T11:24:10Z</time>
      </trkpt>
      <trkpt lat="46.14634" lon="-1.28584">
        <ele>-1.2</ele>
        <time>2025-07-02T11:24:13Z</time>
      </trkpt>
      <trkpt lat="46.14643" lon="-1.2858">
        <ele>-1</ele>
        <time>2025-07-02T11:24:20Z</time>
      </trkpt>
      <trkpt lat="46.14652" lon="-1.2857">
        <ele>-0.80000000000001</ele>
        <time>2025-07-02T11:24:28Z</time>
      </trkpt>
      <trkpt lat="46.14653" lon="-1.28567">
        <ele>-0.60000000000002</ele>
        <time>2025-07-02T11:24:30Z</time>
      </trkpt>
      <trkpt lat="46.14659" lon="-1.28558">
        <ele>-0.39999999999998</ele>
        <time>2025-07-02T11:24:37Z</time>
      </trkpt>
      <trkpt lat="46.1466" lon="-1.28555">
        <ele>-0.39999999999998</ele>
        <time>2025-07-02T11:24:38Z</time>
      </trkpt>
      <trkpt lat="46.14664" lon="-1.28547">
        <ele>-0.19999999999999</ele>
        <time>2025-07-02T11:24:43Z</time>
      </trkpt>
      <trkpt lat="46.14665" lon="-1.28545">
        <ele>-0.39999999999998</ele>
        <time>2025-07-02T11:24:46Z</time>
      </trkpt>
      <trkpt lat="46.14668" lon="-1.28539">
        <ele>-0.19999999999999</ele>
        <time>2025-07-02T11:24:53Z</time>
      </trkpt>
      <trkpt lat="46.14673" lon="-1.2853">
        <ele>-0.19999999999999</ele>
        <time>2025-07-02T11:24:58Z</time>
      </trkpt>
      <trkpt lat="46.14674" lon="-1.28528">
        <ele>-0.19999999999999</ele>
        <time>2025-07-02T11:24:59Z</time>
      </trkpt>
      <trkpt lat="46.14678" lon="-1.28514">
        <ele>0.19999999999999</ele>
        <time>2025-07-02T11:25:07Z</time>
      </trkpt>
      <trkpt lat="46.14679" lon="-1.28508">
        <ele>0.19999999999999</ele>
        <time>2025-07-02T11:25:10Z</time>
      </trkpt>
      <trkpt lat="46.14682" lon="-1.28494">
        <ele>0.39999999999998</ele>
        <time>2025-07-02T11:25:17Z</time>
      </trkpt>
      <trkpt lat="46.14683" lon="-1.28487">
        <ele>0.19999999999999</ele>
        <time>2025-07-02T11:25:21Z</time>
      </trkpt>
      <trkpt lat="46.14685" lon="-1.28477">
        <ele>0.60000000000002</ele>
        <time>2025-07-02T11:25:26Z</time>
      </trkpt>
      <trkpt lat="46.1469" lon="-1.28457">
        <ele>0.80000000000001</ele>
        <time>2025-07-02T11:25:36Z</time>
      </trkpt>
      <trkpt lat="46.14691" lon="-1.28453">
        <ele>1</ele>
        <time>2025-07-02T11:25:38Z</time>
      </trkpt>
      <trkpt lat="46.14694" lon="-1.28444">
        <ele>1.2</ele>
        <time>2025-07-02T11:25:43Z</time>
      </trkpt>
      <trkpt lat="46.14696" lon="-1.28439">
        <ele>1.2</ele>
        <time>2025-07-02T11:25:46Z</time>
      </trkpt>
      <trkpt lat="46.14697" lon="-1.28437">
        <ele>1.2</ele>
        <time>2025-07-02T11:25:47Z</time>
      </trkpt>
      <trkpt lat="46.14702" lon="-1.28433">
        <ele>1.2</ele>
        <time>2025-07-02T11:25:51Z</time>
      </trkpt>
      <trkpt lat="46.14708" lon="-1.28427">
        <ele>1.4</ele>
        <time>2025-07-02T11:25:56Z</time>
      </trkpt>
      <trkpt lat="46.1471" lon="-1.28413">
        <ele>1.6</ele>
        <time>2025-07-02T11:26:03Z</time>
      </trkpt>
      <trkpt lat="46.14703" lon="-1.28407">
        <ele>2</ele>
        <time>2025-07-02T11:26:08Z</time>
      </trkpt>
      <trkpt lat="46.14702" lon="-1.28407">
        <ele>2</ele>
        <time>2025-07-02T11:26:09Z</time>
      </trkpt>
      <trkpt lat="46.14689" lon="-1.28404">
        <ele>2</ele>
        <time>2025-07-02T11:26:19Z</time>
      </trkpt>
      <trkpt lat="46.14677" lon="-1.28401">
        <ele>1.8</ele>
        <time>2025-07-02T11:26:28Z</time>
      </trkpt>
      <trkpt lat="46.14668" lon="-1.28401">
        <ele>1.6</ele>
        <time>2025-07-02T11:26:34Z</time>
      </trkpt>
      <trkpt lat="46.14664" lon="-1.28401">
        <ele>1.6</ele>
        <time>2025-07-02T11:26:37Z</time>
      </trkpt>
      <trkpt lat="46.14652" lon="-1.28401">
        <ele>1.6</ele>
        <time>2025-07-02T11:26:45Z</time>
      </trkpt>
      <trkpt lat="46.14643" lon="-1.28395">
        <ele>1.4</ele>
        <time>2025-07-02T11:26:53Z</time>
      </trkpt>
      <trkpt lat="46.14631" lon="-1.28389">
        <ele>1.4</ele>
        <time>2025-07-02T11:27:01Z</time>
      </trkpt>
      <trkpt lat="46.14617" lon="-1.28377">
        <ele>1.2</ele>
        <time>2025-07-02T11:27:13Z</time>
      </trkpt>
      <trkpt lat="46.14606" lon="-1.28369">
        <ele>1</ele>
        <time>2025-07-02T11:27:23Z</time>
      </trkpt>
      <trkpt lat="46.14602" lon="-1.28366">
        <ele>0.80000000000001</ele>
        <time>2025-07-02T11:27:26Z</time>
      </trkpt>
      <trkpt lat="46.14598" lon="-1.28359">
        <ele>0.80000000000001</ele>
        <time>2025-07-02T11:27:31Z</time>
      </trkpt>
      <trkpt lat="46.1459" lon="-1.28346">
        <ele>0.60000000000002</ele>
        <time>2025-07-02T11:27:40Z</time>
      </trkpt>
      <trkpt lat="46.14588" lon="-1.28339">
        <ele>0.60000000000002</ele>
        <time>2025-07-02T11:27:46Z</time>
      </trkpt>
      <trkpt lat="46.14587" lon="-1.28323">
        <ele>0.39999999999998</ele>
        <time>2025-07-02T11:27:55Z</time>
      </trkpt>
      <trkpt lat="46.14586" lon="-1.28308">
        <ele>0.39999999999998</ele>
        <time>2025-07-02T11:28:03Z</time>
      </trkpt>
      <trkpt lat="46.14584" lon="-1.28289">
        <ele>0.39999999999998</ele>
        <time>2025-07-02T11:28:13Z</time>
      </trkpt>
      <trkpt lat="46.14582" lon="-1.28273">
        <ele>0.80000000000001</ele>
        <time>2025-07-02T11:28:21Z</time>
      </trkpt>
      <trkpt lat="46.14581" lon="-1.28265">
        <ele>0.80000000000001</ele>
        <time>2025-07-02T11:28:25Z</time>
      </trkpt>
      <trkpt lat="46.14583" lon="-1.28259">
        <ele>0.60000000000002</ele>
        <time>2025-07-02T11:28:29Z</time>
      </trkpt>
      <trkpt lat="46.14587" lon="-1.28253">
        <ele>0.39999999999998</ele>
        <time>2025-07-02T11:28:34Z</time>
      </trkpt>
      <trkpt lat="46.14587" lon="-1.28251">
        <ele>0.39999999999998</ele>
        <time>2025-07-02T11:28:35Z</time>
      </trkpt>
      <trkpt lat="46.14588" lon="-1.28248">
        <ele>0.60000000000002</ele>
        <time>2025-07-02T11:28:37Z</time>
      </trkpt>
      <trkpt lat="46.14595" lon="-1.28237">
        <ele>0.39999999999998</ele>
        <time>2025-07-02T11:28:45Z</time>
      </trkpt>
      <trkpt lat="46.14606" lon="-1.28228">
        <ele>0.60000000000002</ele>
        <time>2025-07-02T11:28:55Z</time>
      </trkpt>
      <trkpt lat="46.14614" lon="-1.28224">
        <ele>0.60000000000002</ele>
        <time>2025-07-02T11:29:02Z</time>
      </trkpt>
      <trkpt lat="46.14616" lon="-1.28222">
        <ele>0.60000000000002</ele>
        <time>2025-07-02T11:29:04Z</time>
      </trkpt>
      <trkpt lat="46.14621" lon="-1.28217">
        <ele>0.60000000000002</ele>
        <time>2025-07-02T11:29:09Z</time>
      </trkpt>
      <trkpt lat="46.14624" lon="-1.28216">
        <ele>0.60000000000002</ele>
        <time>2025-07-02T11:29:11Z</time>
      </trkpt>
      <trkpt lat="46.14625" lon="-1.28215">
        <ele>0.60000000000002</ele>
        <time>2025-07-02T11:29:12Z</time>
      </trkpt>
      <trkpt lat="46.14633" lon="-1.28215">
        <ele>0.60000000000002</ele>
        <time>2025-07-02T11:29:17Z</time>
      </trkpt>
      <trkpt lat="46.14647" lon="-1.28213">
        <ele>1</ele>
        <time>2025-07-02T11:29:28Z</time>
      </trkpt>
      <trkpt lat="46.14655" lon="-1.28204">
        <ele>1</ele>
        <time>2025-07-02T11:29:36Z</time>
      </trkpt>
      <trkpt lat="46.14656" lon="-1.28189">
        <ele>0.80000000000001</ele>
        <time>2025-07-02T11:29:44Z</time>
      </trkpt>
      <trkpt lat="46.14656" lon="-1.28185">
        <ele>0.80000000000001</ele>
        <time>2025-07-02T11:29:46Z</time>
      </trkpt>
      <trkpt lat="46.14655" lon="-1.28184">
        <ele>0.60000000000002</ele>
        <time>2025-07-02T11:29:47Z</time>
      </trkpt>
      <trkpt lat="46.14655" lon="-1.28166">
        <ele>0.60000000000002</ele>
        <time>2025-07-02T11:29:56Z</time>
      </trkpt>
      <trkpt lat="46.14654" lon="-1.28149">
        <ele>0.60000000000002</ele>
        <time>2025-07-02T11:30:05Z</time>
      </trkpt>
      <trkpt lat="46.14644" lon="-1.28139">
        <ele>0.80000000000001</ele>
        <time>2025-07-02T11:30:14Z</time>
      </trkpt>
      <trkpt lat="46.14637" lon="-1.28125">
        <ele>0.80000000000001</ele>
        <time>2025-07-02T11:30:23Z</time>
      </trkpt>
      <trkpt lat="46.14632" lon="-1.28114">
        <ele>0.60000000000002</ele>
        <time>2025-07-02T11:30:30Z</time>
      </trkpt>
      <trkpt lat="46.14629" lon="-1.28101">
        <ele>0.39999999999998</ele>
        <time>2025-07-02T11:30:37Z</time>
      </trkpt>
      <trkpt lat="46.14626" lon="-1.28093">
        <ele>0.39999999999998</ele>
        <time>2025-07-02T11:30:42Z</time>
      </trkpt>
      <trkpt lat="46.14626" lon="-1.28091">
        <ele>0.60000000000002</ele>
        <time>2025-07-02T11:30:43Z</time>
      </trkpt>
      <trkpt lat="46.14623" lon="-1.28077">
        <ele>0.19999999999999</ele>
        <time>2025-07-02T11:30:51Z</time>
      </trkpt>
      <trkpt lat="46.1462" lon="-1.28062">
        <ele>0.19999999999999</ele>
        <time>2025-07-02T11:31:00Z</time>
      </trkpt>
      <trkpt lat="46.14618" lon="-1.28041">
        <ele>0.19999999999999</ele>
        <time>2025-07-02T11:31:12Z</time>
      </trkpt>
      <trkpt lat="46.14615" lon="-1.28026">
        <ele>0.19999999999999</ele>
        <time>2025-07-02T11:31:20Z</time>
      </trkpt>
      <trkpt lat="46.14613" lon="-1.28011">
        <ele>0.19999999999999</ele>
        <time>2025-07-02T11:31:29Z</time>
      </trkpt>
      <trkpt lat="46.1461" lon="-1.2799">
        <ele>0.19999999999999</ele>
        <time>2025-07-02T11:31:40Z</time>
      </trkpt>
      <trkpt lat="46.14609" lon="-1.27982">
        <ele>0.19999999999999</ele>
        <time>2025-07-02T11:31:44Z</time>
      </trkpt>
      <trkpt lat="46.14608" lon="-1.27977">
        <ele>0.19999999999999</ele>
        <time>2025-07-02T11:31:47Z</time>
      </trkpt>
      <trkpt lat="46.14605" lon="-1.27967">
        <ele>0.19999999999999</ele>
        <time>2025-07-02T11:31:53Z</time>
      </trkpt>
      <trkpt lat="46.14605" lon="-1.27962">
        <ele>0.39999999999998</ele>
        <time>2025-07-02T11:31:55Z</time>
      </trkpt>
      <trkpt lat="46.14604" lon="-1.27946">
        <ele>0.39999999999998</ele>
        <time>2025-07-02T11:32:04Z</time>
      </trkpt>
      <trkpt lat="46.14603" lon="-1.27944">
        <ele>0.39999999999998</ele>
        <time>2025-07-02T11:32:05Z</time>
      </trkpt>
      <trkpt lat="46.14602" lon="-1.27943">
        <ele>0.39999999999998</ele>
        <time>2025-07-02T11:32:06Z</time>
      </trkpt>
      <trkpt lat="46.146" lon="-1.2793">
        <ele>0.39999999999998</ele>
        <time>2025-07-02T11:32:13Z</time>
      </trkpt>
      <trkpt lat="46.146" lon="-1.27922">
        <ele>0.60000000000002</ele>
        <time>2025-07-02T11:32:17Z</time>
      </trkpt>
      <trkpt lat="46.146" lon="-1.27913">
        <ele>0.60000000000002</ele>
        <time>2025-07-02T11:32:21Z</time>
      </trkpt>
      <trkpt lat="46.146" lon="-1.27907">
        <ele>0.60000000000002</ele>
        <time>2025-07-02T11:32:24Z</time>
      </trkpt>
      <trkpt lat="46.14598" lon="-1.27897">
        <ele>0.60000000000002</ele>
        <time>2025-07-02T11:32:30Z</time>
      </trkpt>
      <trkpt lat="46.14596" lon="-1.27881">
        <ele>0.60000000000002</ele>
        <time>2025-07-02T11:32:38Z</time>
      </trkpt>
      <trkpt lat="46.14595" lon="-1.27872">
        <ele>0.60000000000002</ele>
        <time>2025-07-02T11:32:43Z</time>
      </trkpt>
      <trkpt lat="46.14594" lon="-1.27867">
        <ele>0.60000000000002</ele>
        <time>2025-07-02T11:32:45Z</time>
      </trkpt>
      <trkpt lat="46.14592" lon="-1.27853">
        <ele>0.60000000000002</ele>
        <time>2025-07-02T11:32:53Z</time>
      </trkpt>
      <trkpt lat="46.1459" lon="-1.27851">
        <ele>0.60000000000002</ele>
        <time>2025-07-02T11:32:55Z</time>
      </trkpt>
      <trkpt lat="46.1459" lon="-1.27847">
        <ele>0.80000000000001</ele>
        <time>2025-07-02T11:32:57Z</time>
      </trkpt>
      <trkpt lat="46.1459" lon="-1.27846">
        <ele>0.80000000000001</ele>
        <time>2025-07-02T11:32:58Z</time>
      </trkpt>
      <trkpt lat="46.14589" lon="-1.27844">
        <ele>0.80000000000001</ele>
        <time>2025-07-02T11:33:00Z</time>
      </trkpt>
      <trkpt lat="46.14589" lon="-1.27838">
        <ele>0.80000000000001</ele>
        <time>2025-07-02T11:33:04Z</time>
      </trkpt>
      <trkpt lat="46.14584" lon="-1.27825">
        <ele>0.60000000000002</ele>
        <time>2025-07-02T11:33:12Z</time>
      </trkpt>
      <trkpt lat="46.14582" lon="-1.27807">
        <ele>1</ele>
        <time>2025-07-02T11:33:22Z</time>
      </trkpt>
      <trkpt lat="46.14585" lon="-1.2779">
        <ele>1</ele>
        <time>2025-07-02T11:33:31Z</time>
      </trkpt>
      <trkpt lat="46.14587" lon="-1.27785">
        <ele>1</ele>
        <time>2025-07-02T11:33:34Z</time>
      </trkpt>
      <trkpt lat="46.14592" lon="-1.27779">
        <ele>1.2</ele>
        <time>2025-07-02T11:33:39Z</time>
      </trkpt>
      <trkpt lat="46.14596" lon="-1.27774">
        <ele>1.2</ele>
        <time>2025-07-02T11:33:44Z</time>
      </trkpt>
      <trkpt lat="46.14598" lon="-1.27772">
        <ele>1.2</ele>
        <time>2025-07-02T11:33:46Z</time>
      </trkpt>
      <trkpt lat="46.14607" lon="-1.27767">
        <ele>1.4</ele>
        <time>2025-07-02T11:33:53Z</time>
      </trkpt>
      <trkpt lat="46.1461" lon="-1.27764">
        <ele>1.4</ele>
        <time>2025-07-02T11:33:56Z</time>
      </trkpt>
      <trkpt lat="46.14612" lon="-1.27762">
        <ele>1.2</ele>
        <time>2025-07-02T11:33:58Z</time>
      </trkpt>
      <trkpt lat="46.14614" lon="-1.27761">
        <ele>1.2</ele>
        <time>2025-07-02T11:34:00Z</time>
      </trkpt>
      <trkpt lat="46.14621" lon="-1.27758">
        <ele>1.2</ele>
        <time>2025-07-02T11:34:06Z</time>
      </trkpt>
      <trkpt lat="46.14624" lon="-1.27757">
        <ele>1.2</ele>
        <time>2025-07-02T11:34:08Z</time>
      </trkpt>
      <trkpt lat="46.14635" lon="-1.27753">
        <ele>1</ele>
        <time>2025-07-02T11:34:17Z</time>
      </trkpt>
      <trkpt lat="46.14641" lon="-1.27749">
        <ele>1</ele>
        <time>2025-07-02T11:34:21Z</time>
      </trkpt>
      <trkpt lat="46.14644" lon="-1.27743">
        <ele>1</ele>
        <time>2025-07-02T11:34:25Z</time>
      </trkpt>
      <trkpt lat="46.14654" lon="-1.2774">
        <ele>1</ele>
        <time>2025-07-02T11:34:33Z</time>
      </trkpt>
      <trkpt lat="46.14666" lon="-1.27738">
        <ele>1.2</ele>
        <time>2025-07-02T11:34:42Z</time>
      </trkpt>
      <trkpt lat="46.14674" lon="-1.27732">
        <ele>1</ele>
        <time>2025-07-02T11:34:49Z</time>
      </trkpt>
      <trkpt lat="46.14675" lon="-1.27731">
        <ele>1</ele>
        <time>2025-07-02T11:34:50Z</time>
      </trkpt>
      <trkpt lat="46.14685" lon="-1.27723">
        <ele>0.60000000000002</ele>
        <time>2025-07-02T11:34:58Z</time>
      </trkpt>
      <trkpt lat="46.14692" lon="-1.27713">
        <ele>0.80000000000001</ele>
        <time>2025-07-02T11:35:06Z</time>
      </trkpt>
      <trkpt lat="46.147" lon="-1.27708">
        <ele>0.80000000000001</ele>
        <time>2025-07-02T11:35:13Z</time>
      </trkpt>
      <trkpt lat="46.14701" lon="-1.27708">
        <ele>0.60000000000002</ele>
        <time>2025-07-02T11:35:14Z</time>
      </trkpt>
      <trkpt lat="46.14708" lon="-1.27702">
        <ele>0.80000000000001</ele>
        <time>2025-07-02T11:35:22Z</time>
      </trkpt>
      <trkpt lat="46.14715" lon="-1.27698">
        <ele>0.80000000000001</ele>
        <time>2025-07-02T11:35:28Z</time>
      </trkpt>
      <trkpt lat="46.14718" lon="-1.27696">
        <ele>0.80000000000001</ele>
        <time>2025-07-02T11:35:30Z</time>
      </trkpt>
      <trkpt lat="46.14729" lon="-1.27687">
        <ele>1</ele>
        <time>2025-07-02T11:35:40Z</time>
      </trkpt>
      <trkpt lat="46.14739" lon="-1.27684">
        <ele>0.80000000000001</ele>
        <time>2025-07-02T11:35:49Z</time>
      </trkpt>
      <trkpt lat="46.14742" lon="-1.27681">
        <ele>1.4</ele>
        <time>2025-07-02T11:35:52Z</time>
      </trkpt>
      <trkpt lat="46.14746" lon="-1.27674">
        <ele>1.6</ele>
        <time>2025-07-02T11:35:57Z</time>
      </trkpt>
      <trkpt lat="46.14753" lon="-1.27661">
        <ele>1.4</ele>
        <time>2025-07-02T11:36:06Z</time>
      </trkpt>
      <trkpt lat="46.1476" lon="-1.27651">
        <ele>1.4</ele>
        <time>2025-07-02T11:36:14Z</time>
      </trkpt>
      <trkpt lat="46.14771" lon="-1.27641">
        <ele>1</ele>
        <time>2025-07-02T11:36:24Z</time>
      </trkpt>
      <trkpt lat="46.14782" lon="-1.27638">
        <ele>1.2</ele>
        <time>2025-07-02T11:36:33Z</time>
      </trkpt>
      <trkpt lat="46.14791" lon="-1.27634">
        <ele>1.4</ele>
        <time>2025-07-02T11:36:41Z</time>
      </trkpt>
      <trkpt lat="46.14803" lon="-1.27633">
        <ele>1.6</ele>
        <time>2025-07-02T11:36:51Z</time>
      </trkpt>
      <trkpt lat="46.14814" lon="-1.27631">
        <ele>1.4</ele>
        <time>2025-07-02T11:36:59Z</time>
      </trkpt>
      <trkpt lat="46.14825" lon="-1.27633">
        <ele>1.2</ele>
        <time>2025-07-02T11:37:08Z</time>
      </trkpt>
      <trkpt lat="46.14836" lon="-1.27632">
        <ele>1.2</ele>
        <time>2025-07-02T11:37:18Z</time>
      </trkpt>
      <trkpt lat="46.14852" lon="-1.27628">
        <ele>1.6</ele>
        <time>2025-07-02T11:37:30Z</time>
      </trkpt>
      <trkpt lat="46.14865" lon="-1.27625">
        <ele>1.4</ele>
        <time>2025-07-02T11:37:40Z</time>
      </trkpt>
      <trkpt lat="46.14873" lon="-1.27622">
        <ele>1.8</ele>
        <time>2025-07-02T11:37:46Z</time>
      </trkpt>
      <trkpt lat="46.1488" lon="-1.27621">
        <ele>1.8</ele>
        <time>2025-07-02T11:37:52Z</time>
      </trkpt>
      <trkpt lat="46.14882" lon="-1.27621">
        <ele>1.8</ele>
        <time>2025-07-02T11:37:54Z</time>
      </trkpt>
      <trkpt lat="46.14887" lon="-1.27621">
        <ele>2</ele>
        <time>2025-07-02T11:37:59Z</time>
      </trkpt>
      <trkpt lat="46.14891" lon="-1.2762">
        <ele>2</ele>
        <time>2025-07-02T11:38:02Z</time>
      </trkpt>
      <trkpt lat="46.14906" lon="-1.27618">
        <ele>1.8</ele>
        <time>2025-07-02T11:38:13Z</time>
      </trkpt>
      <trkpt lat="46.14913" lon="-1.27615">
        <ele>2.4</ele>
        <time>2025-07-02T11:38:18Z</time>
      </trkpt>
      <trkpt lat="46.14913" lon="-1.27614">
        <ele>2.4</ele>
        <time>2025-07-02T11:38:19Z</time>
      </trkpt>
      <trkpt lat="46.14914" lon="-1.27614">
        <ele>2.4</ele>
        <time>2025-07-02T11:38:20Z</time>
      </trkpt>
      <trkpt lat="46.14929" lon="-1.27608">
        <ele>2.8</ele>
        <time>2025-07-02T11:38:31Z</time>
      </trkpt>
      <trkpt lat="46.14938" lon="-1.27602">
        <ele>2.8</ele>
        <time>2025-07-02T11:38:40Z</time>
      </trkpt>
      <trkpt lat="46.14939" lon="-1.27601">
        <ele>2.8</ele>
        <time>2025-07-02T11:38:41Z</time>
      </trkpt>
      <trkpt lat="46.14945" lon="-1.27597">
        <ele>3</ele>
        <time>2025-07-02T11:38:46Z</time>
      </trkpt>
      <trkpt lat="46.14959" lon="-1.27591">
        <ele>3.4</ele>
        <time>2025-07-02T11:38:57Z</time>
      </trkpt>
      <trkpt lat="46.14969" lon="-1.27584">
        <ele>3.2</ele>
        <time>2025-07-02T11:39:04Z</time>
      </trkpt>
      <trkpt lat="46.14985" lon="-1.27575">
        <ele>3</ele>
        <time>2025-07-02T11:39:17Z</time>
      </trkpt>
      <trkpt lat="46.1499" lon="-1.27573">
        <ele>3.2</ele>
        <time>2025-07-02T11:39:22Z</time>
      </trkpt>
      <trkpt lat="46.14992" lon="-1.27572">
        <ele>3.2</ele>
        <time>2025-07-02T11:39:23Z</time>
      </trkpt>
      <trkpt lat="46.15001" lon="-1.27564">
        <ele>3</ele>
        <time>2025-07-02T11:39:32Z</time>
      </trkpt>
      <trkpt lat="46.15012" lon="-1.27551">
        <ele>3.2</ele>
        <time>2025-07-02T11:39:43Z</time>
      </trkpt>
      <trkpt lat="46.15019" lon="-1.27543">
        <ele>3</ele>
        <time>2025-07-02T11:39:50Z</time>
      </trkpt>
      <trkpt lat="46.1502" lon="-1.27543">
        <ele>3</ele>
        <time>2025-07-02T11:39:51Z</time>
      </trkpt>
      <trkpt lat="46.15023" lon="-1.27541">
        <ele>2.8</ele>
        <time>2025-07-02T11:39:54Z</time>
      </trkpt>
      <trkpt lat="46.15035" lon="-1.27529">
        <ele>3</ele>
        <time>2025-07-02T11:40:04Z</time>
      </trkpt>
      <trkpt lat="46.15043" lon="-1.27522">
        <ele>3.2</ele>
        <time>2025-07-02T11:40:11Z</time>
      </trkpt>
      <trkpt lat="46.15044" lon="-1.2752">
        <ele>3.2</ele>
        <time>2025-07-02T11:40:12Z</time>
      </trkpt>
      <trkpt lat="46.15047" lon="-1.27514">
        <ele>3.4</ele>
        <time>2025-07-02T11:40:16Z</time>
      </trkpt>
      <trkpt lat="46.15052" lon="-1.27504">
        <ele>3.6</ele>
        <time>2025-07-02T11:40:23Z</time>
      </trkpt>
      <trkpt lat="46.15055" lon="-1.27499">
        <ele>3.4</ele>
        <time>2025-07-02T11:40:27Z</time>
      </trkpt>
      <trkpt lat="46.15059" lon="-1.27492">
        <ele>3.2</ele>
        <time>2025-07-02T11:40:32Z</time>
      </trkpt>
      <trkpt lat="46.15065" lon="-1.27481">
        <ele>3.4</ele>
        <time>2025-07-02T11:40:39Z</time>
      </trkpt>
      <trkpt lat="46.15073" lon="-1.27472">
        <ele>3.4</ele>
        <time>2025-07-02T11:40:48Z</time>
      </trkpt>
      <trkpt lat="46.15086" lon="-1.2746">
        <ele>2.6</ele>
        <time>2025-07-02T11:40:59Z</time>
      </trkpt>
      <trkpt lat="46.15099" lon="-1.27451">
        <ele>2.6</ele>
        <time>2025-07-02T11:41:10Z</time>
      </trkpt>
      <trkpt lat="46.1511" lon="-1.27444">
        <ele>2.8</ele>
        <time>2025-07-02T11:41:19Z</time>
      </trkpt>
      <trkpt lat="46.15118" lon="-1.27434">
        <ele>3</ele>
        <time>2025-07-02T11:41:28Z</time>
      </trkpt>
      <trkpt lat="46.1512" lon="-1.27431">
        <ele>3</ele>
        <time>2025-07-02T11:41:31Z</time>
      </trkpt>
      <trkpt lat="46.15132" lon="-1.27416">
        <ele>3.2</ele>
        <time>2025-07-02T11:41:42Z</time>
      </trkpt>
      <trkpt lat="46.15135" lon="-1.27412">
        <ele>3</ele>
        <time>2025-07-02T11:41:45Z</time>
      </trkpt>
      <trkpt lat="46.15139" lon="-1.27409">
        <ele>3</ele>
        <time>2025-07-02T11:41:48Z</time>
      </trkpt>
      <trkpt lat="46.15143" lon="-1.27404">
        <ele>3</ele>
        <time>2025-07-02T11:41:52Z</time>
      </trkpt>
      <trkpt lat="46.15151" lon="-1.27393">
        <ele>3.2</ele>
        <time>2025-07-02T11:42:00Z</time>
      </trkpt>
      <trkpt lat="46.15157" lon="-1.27382">
        <ele>3.4</ele>
        <time>2025-07-02T11:42:07Z</time>
      </trkpt>
      <trkpt lat="46.15162" lon="-1.27375">
        <ele>3</ele>
        <time>2025-07-02T11:42:11Z</time>
      </trkpt>
      <trkpt lat="46.15167" lon="-1.27361">
        <ele>3.2</ele>
        <time>2025-07-02T11:42:20Z</time>
      </trkpt>
      <trkpt lat="46.15174" lon="-1.2735">
        <ele>3.2</ele>
        <time>2025-07-02T11:42:28Z</time>
      </trkpt>
      <trkpt lat="46.15183" lon="-1.27337">
        <ele>3.2</ele>
        <time>2025-07-02T11:42:38Z</time>
      </trkpt>
      <trkpt lat="46.1519" lon="-1.27326">
        <ele>3</ele>
        <time>2025-07-02T11:42:45Z</time>
      </trkpt>
      <trkpt lat="46.15198" lon="-1.27315">
        <ele>3</ele>
        <time>2025-07-02T11:42:53Z</time>
      </trkpt>
      <trkpt lat="46.15204" lon="-1.27307">
        <ele>2.8</ele>
        <time>2025-07-02T11:42:59Z</time>
      </trkpt>
      <trkpt lat="46.15207" lon="-1.27303">
        <ele>3</ele>
        <time>2025-07-02T11:43:02Z</time>
      </trkpt>
      <trkpt lat="46.15208" lon="-1.27302">
        <ele>3</ele>
        <time>2025-07-02T11:43:03Z</time>
      </trkpt>
      <trkpt lat="46.15212" lon="-1.27295">
        <ele>3</ele>
        <time>2025-07-02T11:43:08Z</time>
      </trkpt>
      <trkpt lat="46.15222" lon="-1.27279">
        <ele>2.8</ele>
        <time>2025-07-02T11:43:18Z</time>
      </trkpt>
      <trkpt lat="46.15233" lon="-1.27268">
        <ele>3</ele>
        <time>2025-07-02T11:43:27Z</time>
      </trkpt>
      <trkpt lat="46.1524" lon="-1.27259">
        <ele>3.2</ele>
        <time>2025-07-02T11:43:33Z</time>
      </trkpt>
      <trkpt lat="46.15246" lon="-1.27253">
        <ele>3.2</ele>
        <time>2025-07-02T11:43:39Z</time>
      </trkpt>
      <trkpt lat="46.15253" lon="-1.27246">
        <ele>3.2</ele>
        <time>2025-07-02T11:43:45Z</time>
      </trkpt>
      <trkpt lat="46.15259" lon="-1.27239">
        <ele>3.6</ele>
        <time>2025-07-02T11:43:51Z</time>
      </trkpt>
      <trkpt lat="46.1527" lon="-1.27226">
        <ele>3.2</ele>
        <time>2025-07-02T11:44:02Z</time>
      </trkpt>
      <trkpt lat="46.15282" lon="-1.27211">
        <ele>3.4</ele>
        <time>2025-07-02T11:44:15Z</time>
      </trkpt>
      <trkpt lat="46.15296" lon="-1.27197">
        <ele>3.6</ele>
        <time>2025-07-02T11:44:26Z</time>
      </trkpt>
      <trkpt lat="46.15299" lon="-1.27194">
        <ele>3.6</ele>
        <time>2025-07-02T11:44:28Z</time>
      </trkpt>
      <trkpt lat="46.15307" lon="-1.27185">
        <ele>3.6</ele>
        <time>2025-07-02T11:44:35Z</time>
      </trkpt>
      <trkpt lat="46.15319" lon="-1.27175">
        <ele>3.2</ele>
        <time>2025-07-02T11:44:45Z</time>
      </trkpt>
      <trkpt lat="46.15329" lon="-1.27163">
        <ele>3.2</ele>
        <time>2025-07-02T11:44:53Z</time>
      </trkpt>
      <trkpt lat="46.1533" lon="-1.27162">
        <ele>3.2</ele>
        <time>2025-07-02T11:44:54Z</time>
      </trkpt>
      <trkpt lat="46.15341" lon="-1.27148">
        <ele>3.2</ele>
        <time>2025-07-02T11:45:05Z</time>
      </trkpt>
      <trkpt lat="46.15355" lon="-1.27133">
        <ele>3</ele>
        <time>2025-07-02T11:45:14Z</time>
      </trkpt>
      <trkpt lat="46.15357" lon="-1.27128">
        <ele>3</ele>
        <time>2025-07-02T11:45:18Z</time>
      </trkpt>
      <trkpt lat="46.15361" lon="-1.27124">
        <ele>3</ele>
        <time>2025-07-02T11:45:21Z</time>
      </trkpt>
      <trkpt lat="46.15362" lon="-1.27123">
        <ele>3.2</ele>
        <time>2025-07-02T11:45:23Z</time>
      </trkpt>
      <trkpt lat="46.15366" lon="-1.27117">
        <ele>3.2</ele>
        <time>2025-07-02T11:45:27Z</time>
      </trkpt>
      <trkpt lat="46.15372" lon="-1.27111">
        <ele>3</ele>
        <time>2025-07-02T11:45:33Z</time>
      </trkpt>
      <trkpt lat="46.15374" lon="-1.27107">
        <ele>3</ele>
        <time>2025-07-02T11:45:36Z</time>
      </trkpt>
      <trkpt lat="46.15385" lon="-1.27095">
        <ele>2.8</ele>
        <time>2025-07-02T11:45:46Z</time>
      </trkpt>
      <trkpt lat="46.15391" lon="-1.27087">
        <ele>3.2</ele>
        <time>2025-07-02T11:45:53Z</time>
      </trkpt>
      <trkpt lat="46.15401" lon="-1.27071">
        <ele>3.2</ele>
        <time>2025-07-02T11:46:03Z</time>
      </trkpt>
      <trkpt lat="46.15403" lon="-1.27064">
        <ele>3</ele>
        <time>2025-07-02T11:46:07Z</time>
      </trkpt>
      <trkpt lat="46.15406" lon="-1.27062">
        <ele>3</ele>
        <time>2025-07-02T11:46:09Z</time>
      </trkpt>
      <trkpt lat="46.15407" lon="-1.27061">
        <ele>3</ele>
        <time>2025-07-02T11:46:10Z</time>
      </trkpt>
      <trkpt lat="46.15418" lon="-1.27049">
        <ele>3</ele>
        <time>2025-07-02T11:46:17Z</time>
      </trkpt>
      <trkpt lat="46.15421" lon="-1.27047">
        <ele>3</ele>
        <time>2025-07-02T11:46:19Z</time>
      </trkpt>
      <trkpt lat="46.15427" lon="-1.27035">
        <ele>2.8</ele>
        <time>2025-07-02T11:46:27Z</time>
      </trkpt>
      <trkpt lat="46.15429" lon="-1.27028">
        <ele>2.8</ele>
        <time>2025-07-02T11:46:31Z</time>
      </trkpt>
      <trkpt lat="46.15431" lon="-1.27024">
        <ele>2.8</ele>
        <time>2025-07-02T11:46:34Z</time>
      </trkpt>
      <trkpt lat="46.15429" lon="-1.27022">
        <ele>1.6</ele>
        <time>2025-07-02T11:46:38Z</time>
      </trkpt>
      <trkpt lat="46.15429" lon="-1.27022">
        <ele>1.6</ele>
        <time>2025-07-02T11:46:39Z</time>
      </trkpt>
      <trkpt lat="46.15428" lon="-1.27021">
        <ele>1.4</ele>
        <time>2025-07-02T11:46:48Z</time>
      </trkpt>
      <trkpt lat="46.1543" lon="-1.2702">
        <ele>1.4</ele>
        <time>2025-07-02T11:46:59Z</time>
      </trkpt>
      <trkpt lat="46.15433" lon="-1.27019">
        <ele>1.2</ele>
        <time>2025-07-02T11:47:01Z</time>
      </trkpt>
      <trkpt lat="46.15441" lon="-1.2701">
        <ele>0.80000000000001</ele>
        <time>2025-07-02T11:47:08Z</time>
      </trkpt>
      <trkpt lat="46.15446" lon="-1.26998">
        <ele>0.60000000000002</ele>
        <time>2025-07-02T11:47:16Z</time>
      </trkpt>
      <trkpt lat="46.15446" lon="-1.26995">
        <ele>0.80000000000001</ele>
        <time>2025-07-02T11:47:19Z</time>
      </trkpt>
      <trkpt lat="46.15446" lon="-1.26995">
        <ele>0.80000000000001</ele>
        <time>2025-07-02T11:47:21Z</time>
      </trkpt>
      <trkpt lat="46.15448" lon="-1.26989">
        <ele>0.80000000000001</ele>
        <time>2025-07-02T11:47:26Z</time>
      </trkpt>
      <trkpt lat="46.1545" lon="-1.26988">
        <ele>0.80000000000001</ele>
        <time>2025-07-02T11:47:27Z</time>
      </trkpt>
      <trkpt lat="46.15457" lon="-1.26978">
        <ele>0.80000000000001</ele>
        <time>2025-07-02T11:47:35Z</time>
      </trkpt>
      <trkpt lat="46.1546" lon="-1.26972">
        <ele>0.80000000000001</ele>
        <time>2025-07-02T11:47:39Z</time>
      </trkpt>
      <trkpt lat="46.15462" lon="-1.2697">
        <ele>0.80000000000001</ele>
        <time>2025-07-02T11:47:41Z</time>
      </trkpt>
      <trkpt lat="46.15467" lon="-1.26958">
        <ele>0.60000000000002</ele>
        <time>2025-07-02T11:47:49Z</time>
      </trkpt>
      <trkpt lat="46.15479" lon="-1.2694">
        <ele>0.60000000000002</ele>
        <time>2025-07-02T11:48:02Z</time>
      </trkpt>
      <trkpt lat="46.15481" lon="-1.26937">
        <ele>0.60000000000002</ele>
        <time>2025-07-02T11:48:04Z</time>
      </trkpt>
      <trkpt lat="46.15484" lon="-1.26933">
        <ele>0.60000000000002</ele>
        <time>2025-07-02T11:48:07Z</time>
      </trkpt>
      <trkpt lat="46.15486" lon="-1.26928">
        <ele>0.60000000000002</ele>
        <time>2025-07-02T11:48:10Z</time>
      </trkpt>
      <trkpt lat="46.15489" lon="-1.26919">
        <ele>0.60000000000002</ele>
        <time>2025-07-02T11:48:16Z</time>
      </trkpt>
      <trkpt lat="46.15492" lon="-1.26916">
        <ele>0.60000000000002</ele>
        <time>2025-07-02T11:48:19Z</time>
      </trkpt>
      <trkpt lat="46.15494" lon="-1.26914">
        <ele>0.60000000000002</ele>
        <time>2025-07-02T11:48:21Z</time>
      </trkpt>
      <trkpt lat="46.15497" lon="-1.26908">
        <ele>0.60000000000002</ele>
        <time>2025-07-02T11:48:24Z</time>
      </trkpt>
      <trkpt lat="46.15502" lon="-1.26902">
        <ele>0.60000000000002</ele>
        <time>2025-07-02T11:48:29Z</time>
      </trkpt>
      <trkpt lat="46.15507" lon="-1.26895">
        <ele>0.60000000000002</ele>
        <time>2025-07-02T11:48:34Z</time>
      </trkpt>
      <trkpt lat="46.1551" lon="-1.26892">
        <ele>0.60000000000002</ele>
        <time>2025-07-02T11:48:36Z</time>
      </trkpt>
      <trkpt lat="46.15512" lon="-1.26885">
        <ele>0.80000000000001</ele>
        <time>2025-07-02T11:48:40Z</time>
      </trkpt>
      <trkpt lat="46.15516" lon="-1.26881">
        <ele>0.80000000000001</ele>
        <time>2025-07-02T11:48:43Z</time>
      </trkpt>
      <trkpt lat="46.15526" lon="-1.26875">
        <ele>1</ele>
        <time>2025-07-02T11:48:52Z</time>
      </trkpt>
      <trkpt lat="46.1554" lon="-1.26862">
        <ele>1.2</ele>
        <time>2025-07-02T11:49:02Z</time>
      </trkpt>
      <trkpt lat="46.15551" lon="-1.26846">
        <ele>1.2</ele>
        <time>2025-07-02T11:49:13Z</time>
      </trkpt>
      <trkpt lat="46.15563" lon="-1.26831">
        <ele>1.2</ele>
        <time>2025-07-02T11:49:24Z</time>
      </trkpt>
      <trkpt lat="46.15569" lon="-1.26823">
        <ele>1.2</ele>
        <time>2025-07-02T11:49:30Z</time>
      </trkpt>
      <trkpt lat="46.15581" lon="-1.26808">
        <ele>1.2</ele>
        <time>2025-07-02T11:49:40Z</time>
      </trkpt>
      <trkpt lat="46.15592" lon="-1.26798">
        <ele>1</ele>
        <time>2025-07-02T11:49:50Z</time>
      </trkpt>
      <trkpt lat="46.15605" lon="-1.26784">
        <ele>1.2</ele>
        <time>2025-07-02T11:50:00Z</time>
      </trkpt>
      <trkpt lat="46.15611" lon="-1.26771">
        <ele>1.2</ele>
        <time>2025-07-02T11:50:08Z</time>
      </trkpt>
      <trkpt lat="46.15611" lon="-1.26767">
        <ele>1.2</ele>
        <time>2025-07-02T11:50:10Z</time>
      </trkpt>
      <trkpt lat="46.15616" lon="-1.26753">
        <ele>1.2</ele>
        <time>2025-07-02T11:50:18Z</time>
      </trkpt>
      <trkpt lat="46.15619" lon="-1.26745">
        <ele>1.2</ele>
        <time>2025-07-02T11:50:23Z</time>
      </trkpt>
      <trkpt lat="46.15622" lon="-1.26737">
        <ele>1.4</ele>
        <time>2025-07-02T11:50:27Z</time>
      </trkpt>
      <trkpt lat="46.15625" lon="-1.26726">
        <ele>1.6</ele>
        <time>2025-07-02T11:50:33Z</time>
      </trkpt>
      <trkpt lat="46.15627" lon="-1.2672">
        <ele>1.8</ele>
        <time>2025-07-02T11:50:36Z</time>
      </trkpt>
      <trkpt lat="46.15636" lon="-1.26705">
        <ele>1.6</ele>
        <time>2025-07-02T11:50:47Z</time>
      </trkpt>
      <trkpt lat="46.15648" lon="-1.26687">
        <ele>1.8</ele>
        <time>2025-07-02T11:50:59Z</time>
      </trkpt>
      <trkpt lat="46.15651" lon="-1.26679">
        <ele>2</ele>
        <time>2025-07-02T11:51:04Z</time>
      </trkpt>
      <trkpt lat="46.15653" lon="-1.26674">
        <ele>2.2</ele>
        <time>2025-07-02T11:51:07Z</time>
      </trkpt>
      <trkpt lat="46.1566" lon="-1.26661">
        <ele>2.2</ele>
        <time>2025-07-02T11:51:15Z</time>
      </trkpt>
      <trkpt lat="46.15662" lon="-1.26656">
        <ele>2.2</ele>
        <time>2025-07-02T11:51:18Z</time>
      </trkpt>
      <trkpt lat="46.15664" lon="-1.26645">
        <ele>2</ele>
        <time>2025-07-02T11:51:24Z</time>
      </trkpt>
      <trkpt lat="46.15664" lon="-1.26636">
        <ele>2</ele>
        <time>2025-07-02T11:51:30Z</time>
      </trkpt>
      <trkpt lat="46.15664" lon="-1.26635">
        <ele>2.2</ele>
        <time>2025-07-02T11:51:31Z</time>
      </trkpt>
      <trkpt lat="46.1567" lon="-1.26621">
        <ele>2.2</ele>
        <time>2025-07-02T11:51:40Z</time>
      </trkpt>
      <trkpt lat="46.15678" lon="-1.26608">
        <ele>1.8</ele>
        <time>2025-07-02T11:51:50Z</time>
      </trkpt>
      <trkpt lat="46.15681" lon="-1.26595">
        <ele>2</ele>
        <time>2025-07-02T11:51:57Z</time>
      </trkpt>
      <trkpt lat="46.15688" lon="-1.26579">
        <ele>2.4</ele>
        <time>2025-07-02T11:52:07Z</time>
      </trkpt>
      <trkpt lat="46.15696" lon="-1.26565">
        <ele>2</ele>
        <time>2025-07-02T11:52:16Z</time>
      </trkpt>
      <trkpt lat="46.157" lon="-1.26557">
        <ele>2.6</ele>
        <time>2025-07-02T11:52:21Z</time>
      </trkpt>
      <trkpt lat="46.15708" lon="-1.26547">
        <ele>2.8</ele>
        <time>2025-07-02T11:52:29Z</time>
      </trkpt>
      <trkpt lat="46.15717" lon="-1.26537">
        <ele>2.6</ele>
        <time>2025-07-02T11:52:37Z</time>
      </trkpt>
      <trkpt lat="46.15717" lon="-1.26536">
        <ele>2.6</ele>
        <time>2025-07-02T11:52:38Z</time>
      </trkpt>
      <trkpt lat="46.15722" lon="-1.26531">
        <ele>2.6</ele>
        <time>2025-07-02T11:52:42Z</time>
      </trkpt>
      <trkpt lat="46.15735" lon="-1.26524">
        <ele>2</ele>
        <time>2025-07-02T11:52:52Z</time>
      </trkpt>
      <trkpt lat="46.15738" lon="-1.26525">
        <ele>1.8</ele>
        <time>2025-07-02T11:52:54Z</time>
      </trkpt>
      <trkpt lat="46.15742" lon="-1.26526">
        <ele>1.8</ele>
        <time>2025-07-02T11:52:58Z</time>
      </trkpt>
      <trkpt lat="46.15753" lon="-1.26529">
        <ele>1.8</ele>
        <time>2025-07-02T11:53:05Z</time>
      </trkpt>
      <trkpt lat="46.15759" lon="-1.26533">
        <ele>1.6</ele>
        <time>2025-07-02T11:53:09Z</time>
      </trkpt>
      <trkpt lat="46.15764" lon="-1.26533">
        <ele>1.6</ele>
        <time>2025-07-02T11:53:13Z</time>
      </trkpt>
      <trkpt lat="46.15776" lon="-1.2653">
        <ele>1.2</ele>
        <time>2025-07-02T11:53:23Z</time>
      </trkpt>
      <trkpt lat="46.15784" lon="-1.26527">
        <ele>1</ele>
        <time>2025-07-02T11:53:29Z</time>
      </trkpt>
      <trkpt lat="46.15788" lon="-1.26525">
        <ele>1.2</ele>
        <time>2025-07-02T11:53:32Z</time>
      </trkpt>
      <trkpt lat="46.15799" lon="-1.26523">
        <ele>1.2</ele>
        <time>2025-07-02T11:53:40Z</time>
      </trkpt>
      <trkpt lat="46.1581" lon="-1.2652">
        <ele>1.2</ele>
        <time>2025-07-02T11:53:47Z</time>
      </trkpt>
      <trkpt lat="46.15811" lon="-1.2652">
        <ele>1.2</ele>
        <time>2025-07-02T11:53:48Z</time>
      </trkpt>
      <trkpt lat="46.15828" lon="-1.26519">
        <ele>0.80000000000001</ele>
        <time>2025-07-02T11:53:59Z</time>
      </trkpt>
      <trkpt lat="46.15838" lon="-1.26521">
        <ele>0.80000000000001</ele>
        <time>2025-07-02T11:54:07Z</time>
      </trkpt>
      <trkpt lat="46.15857" lon="-1.26523">
        <ele>0.60000000000002</ele>
        <time>2025-07-02T11:54:20Z</time>
      </trkpt>
      <trkpt lat="46.1586" lon="-1.26525">
        <ele>0.60000000000002</ele>
        <time>2025-07-02T11:54:23Z</time>
      </trkpt>
      <trkpt lat="46.15866" lon="-1.26531">
        <ele>0.60000000000002</ele>
        <time>2025-07-02T11:54:29Z</time>
      </trkpt>
      <trkpt lat="46.15872" lon="-1.26536">
        <ele>0.39999999999998</ele>
        <time>2025-07-02T11:54:34Z</time>
      </trkpt>
      <trkpt lat="46.15875" lon="-1.26537">
        <ele>0.39999999999998</ele>
        <time>2025-07-02T11:54:36Z</time>
      </trkpt>
      <trkpt lat="46.15883" lon="-1.26542">
        <ele>0.39999999999998</ele>
        <time>2025-07-02T11:54:42Z</time>
      </trkpt>
      <trkpt lat="46.15894" lon="-1.26547">
        <ele>0.80000000000001</ele>
        <time>2025-07-02T11:54:51Z</time>
      </trkpt>
      <trkpt lat="46.15903" lon="-1.26549">
        <ele>0.39999999999998</ele>
        <time>2025-07-02T11:54:58Z</time>
      </trkpt>
      <trkpt lat="46.15906" lon="-1.26552">
        <ele>0.60000000000002</ele>
        <time>2025-07-02T11:55:01Z</time>
      </trkpt>
      <trkpt lat="46.15909" lon="-1.26553">
        <ele>0.60000000000002</ele>
        <time>2025-07-02T11:55:03Z</time>
      </trkpt>
      <trkpt lat="46.15917" lon="-1.26556">
        <ele>1.2</ele>
        <time>2025-07-02T11:55:09Z</time>
      </trkpt>
      <trkpt lat="46.15918" lon="-1.26556">
        <ele>1.2</ele>
        <time>2025-07-02T11:55:10Z</time>
      </trkpt>
      <trkpt lat="46.15929" lon="-1.26563">
        <ele>1.6</ele>
        <time>2025-07-02T11:55:19Z</time>
      </trkpt>
      <trkpt lat="46.15933" lon="-1.26562">
        <ele>1.8</ele>
        <time>2025-07-02T11:55:22Z</time>
      </trkpt>
      <trkpt lat="46.15936" lon="-1.2656">
        <ele>2</ele>
        <time>2025-07-02T11:55:25Z</time>
      </trkpt>
      <trkpt lat="46.15942" lon="-1.26554">
        <ele>2.2</ele>
        <time>2025-07-02T11:55:31Z</time>
      </trkpt>
      <trkpt lat="46.15944" lon="-1.26553">
        <ele>2.2</ele>
        <time>2025-07-02T11:55:32Z</time>
      </trkpt>
      <trkpt lat="46.15951" lon="-1.26547">
        <ele>2.2</ele>
        <time>2025-07-02T11:55:37Z</time>
      </trkpt>
      <trkpt lat="46.15953" lon="-1.26546">
        <ele>2.2</ele>
        <time>2025-07-02T11:55:39Z</time>
      </trkpt>
      <trkpt lat="46.15954" lon="-1.26547">
        <ele>2.2</ele>
        <time>2025-07-02T11:55:40Z</time>
      </trkpt>
      <trkpt lat="46.1596" lon="-1.2655">
        <ele>2.2</ele>
        <time>2025-07-02T11:55:45Z</time>
      </trkpt>
      <trkpt lat="46.1596" lon="-1.26551">
        <ele>2.2</ele>
        <time>2025-07-02T11:55:46Z</time>
      </trkpt>
      <trkpt lat="46.15965" lon="-1.26555">
        <ele>2</ele>
        <time>2025-07-02T11:55:51Z</time>
      </trkpt>
      <trkpt lat="46.15965" lon="-1.26556">
        <ele>1.8</ele>
        <time>2025-07-02T11:55:52Z</time>
      </trkpt>
      <trkpt lat="46.15973" lon="-1.26558">
        <ele>1</ele>
        <time>2025-07-02T11:56:01Z</time>
      </trkpt>
      <trkpt lat="46.15981" lon="-1.26552">
        <ele>1</ele>
        <time>2025-07-02T11:56:07Z</time>
      </trkpt>
      <trkpt lat="46.15982" lon="-1.26551">
        <ele>1.2</ele>
        <time>2025-07-02T11:56:08Z</time>
      </trkpt>
      <trkpt lat="46.15982" lon="-1.2655">
        <ele>1.2</ele>
        <time>2025-07-02T11:56:09Z</time>
      </trkpt>
      <trkpt lat="46.15982" lon="-1.26548">
        <ele>1.2</ele>
        <time>2025-07-02T11:56:10Z</time>
      </trkpt>
      <trkpt lat="46.15982" lon="-1.26537">
        <ele>1.2</ele>
        <time>2025-07-02T11:56:15Z</time>
      </trkpt>
      <trkpt lat="46.15984" lon="-1.26524">
        <ele>1</ele>
        <time>2025-07-02T11:56:22Z</time>
      </trkpt>
      <trkpt lat="46.15991" lon="-1.26507">
        <ele>1.6</ele>
        <time>2025-07-02T11:56:31Z</time>
      </trkpt>
      <trkpt lat="46.15992" lon="-1.26498">
        <ele>1.4</ele>
        <time>2025-07-02T11:56:37Z</time>
      </trkpt>
      <trkpt lat="46.16" lon="-1.2648">
        <ele>1.6</ele>
        <time>2025-07-02T11:56:48Z</time>
      </trkpt>
      <trkpt lat="46.16005" lon="-1.26461">
        <ele>1.8</ele>
        <time>2025-07-02T11:56:57Z</time>
      </trkpt>
      <trkpt lat="46.16009" lon="-1.2645">
        <ele>2</ele>
        <time>2025-07-02T11:57:02Z</time>
      </trkpt>
      <trkpt lat="46.16011" lon="-1.26444">
        <ele>2.2</ele>
        <time>2025-07-02T11:57:05Z</time>
      </trkpt>
      <trkpt lat="46.16015" lon="-1.26428">
        <ele>2.4</ele>
        <time>2025-07-02T11:57:13Z</time>
      </trkpt>
      <trkpt lat="46.16021" lon="-1.26417">
        <ele>2.2</ele>
        <time>2025-07-02T11:57:21Z</time>
      </trkpt>
      <trkpt lat="46.16026" lon="-1.26404">
        <ele>2.2</ele>
        <time>2025-07-02T11:57:28Z</time>
      </trkpt>
      <trkpt lat="46.16026" lon="-1.26402">
        <ele>2.4</ele>
        <time>2025-07-02T11:57:29Z</time>
      </trkpt>
      <trkpt lat="46.16027" lon="-1.26391">
        <ele>2.6</ele>
        <time>2025-07-02T11:57:36Z</time>
      </trkpt>
      <trkpt lat="46.16028" lon="-1.26382">
        <ele>2.8</ele>
        <time>2025-07-02T11:57:41Z</time>
      </trkpt>
      <trkpt lat="46.16028" lon="-1.26379">
        <ele>2.8</ele>
        <time>2025-07-02T11:57:43Z</time>
      </trkpt>
      <trkpt lat="46.16029" lon="-1.26375">
        <ele>3</ele>
        <time>2025-07-02T11:57:45Z</time>
      </trkpt>
      <trkpt lat="46.16029" lon="-1.26374">
        <ele>3</ele>
        <time>2025-07-02T11:57:46Z</time>
      </trkpt>
      <trkpt lat="46.1603" lon="-1.26364">
        <ele>3</ele>
        <time>2025-07-02T11:57:54Z</time>
      </trkpt>
      <trkpt lat="46.16029" lon="-1.26364">
        <ele>3</ele>
        <time>2025-07-02T11:57:56Z</time>
      </trkpt>
      <trkpt lat="46.16027" lon="-1.26363">
        <ele>2.8</ele>
        <time>2025-07-02T11:57:59Z</time>
      </trkpt>
      <trkpt lat="46.16027" lon="-1.26363">
        <ele>2.8</ele>
        <time>2025-07-02T11:58:00Z</time>
      </trkpt>
      <trkpt lat="46.16026" lon="-1.26364">
        <ele>2.8</ele>
        <time>2025-07-02T11:58:01Z</time>
      </trkpt>
      <trkpt lat="46.16023" lon="-1.26372">
        <ele>3.4</ele>
        <time>2025-07-02T11:58:09Z</time>
      </trkpt>
      <trkpt lat="46.16023" lon="-1.2637">
        <ele>3.2</ele>
        <time>2025-07-02T11:58:17Z</time>
      </trkpt>
      <trkpt lat="46.16023" lon="-1.2637">
        <ele>3.2</ele>
        <time>2025-07-02T11:58:19Z</time>
      </trkpt>
      <trkpt lat="46.16035" lon="-1.26375">
        <ele>1.2</ele>
        <time>2025-07-02T12:01:01Z</time>
      </trkpt>
      <trkpt lat="46.16035" lon="-1.26375">
        <ele>1.2</ele>
        <time>2025-07-02T12:01:02Z</time>
      </trkpt>
      <trkpt lat="46.16034" lon="-1.26387">
        <ele>1.4</ele>
        <time>2025-07-02T12:01:09Z</time>
      </trkpt>
      <trkpt lat="46.16033" lon="-1.26391">
        <ele>1.4</ele>
        <time>2025-07-02T12:01:11Z</time>
      </trkpt>
      <trkpt lat="46.16027" lon="-1.26399">
        <ele>1</ele>
        <time>2025-07-02T12:01:16Z</time>
      </trkpt>
      <trkpt lat="46.16021" lon="-1.26412">
        <ele>1</ele>
        <time>2025-07-02T12:01:24Z</time>
      </trkpt>
      <trkpt lat="46.16015" lon="-1.26428">
        <ele>0.80000000000001</ele>
        <time>2025-07-02T12:01:33Z</time>
      </trkpt>
      <trkpt lat="46.16013" lon="-1.2643">
        <ele>0.80000000000001</ele>
        <time>2025-07-02T12:01:34Z</time>
      </trkpt>
      <trkpt lat="46.16009" lon="-1.26437">
        <ele>0.80000000000001</ele>
        <time>2025-07-02T12:01:40Z</time>
      </trkpt>
      <trkpt lat="46.16006" lon="-1.2645">
        <ele>0.39999999999998</ele>
        <time>2025-07-02T12:01:48Z</time>
      </trkpt>
      <trkpt lat="46.16003" lon="-1.2647">
        <ele>0.39999999999998</ele>
        <time>2025-07-02T12:01:59Z</time>
      </trkpt>
      <trkpt lat="46.15997" lon="-1.26486">
        <ele>0.19999999999999</ele>
        <time>2025-07-02T12:02:08Z</time>
      </trkpt>
      <trkpt lat="46.15997" lon="-1.26488">
        <ele>0.19999999999999</ele>
        <time>2025-07-02T12:02:09Z</time>
      </trkpt>
      <trkpt lat="46.15991" lon="-1.26506">
        <ele>0.39999999999998</ele>
        <time>2025-07-02T12:02:21Z</time>
      </trkpt>
      <trkpt lat="46.15985" lon="-1.26526">
        <ele>0.19999999999999</ele>
        <time>2025-07-02T12:02:31Z</time>
      </trkpt>
      <trkpt lat="46.15987" lon="-1.2654">
        <ele>0.39999999999998</ele>
        <time>2025-07-02T12:02:39Z</time>
      </trkpt>
      <trkpt lat="46.15987" lon="-1.26544">
        <ele>0.39999999999998</ele>
        <time>2025-07-02T12:02:42Z</time>
      </trkpt>
      <trkpt lat="46.15987" lon="-1.26556">
        <ele>0.39999999999998</ele>
        <time>2025-07-02T12:02:48Z</time>
      </trkpt>
      <trkpt lat="46.1599" lon="-1.26572">
        <ele>0.80000000000001</ele>
        <time>2025-07-02T12:02:56Z</time>
      </trkpt>
      <trkpt lat="46.15992" lon="-1.26583">
        <ele>1</ele>
        <time>2025-07-02T12:03:02Z</time>
      </trkpt>
      <trkpt lat="46.15992" lon="-1.26584">
        <ele>0.80000000000001</ele>
        <time>2025-07-02T12:03:03Z</time>
      </trkpt>
      <trkpt lat="46.15996" lon="-1.26602">
        <ele>0.60000000000002</ele>
        <time>2025-07-02T12:03:12Z</time>
      </trkpt>
      <trkpt lat="46.16001" lon="-1.26616">
        <ele>0.60000000000002</ele>
        <time>2025-07-02T12:03:21Z</time>
      </trkpt>
      <trkpt lat="46.16004" lon="-1.26631">
        <ele>-0.80000000000001</ele>
        <time>2025-07-02T12:03:28Z</time>
      </trkpt>
      <trkpt lat="46.16004" lon="-1.26637">
        <ele>-0.80000000000001</ele>
        <time>2025-07-02T12:03:31Z</time>
      </trkpt>
      <trkpt lat="46.16004" lon="-1.26644">
        <ele>-0.80000000000001</ele>
        <time>2025-07-02T12:03:35Z</time>
      </trkpt>
      <trkpt lat="46.16002" lon="-1.2666">
        <ele>-0.80000000000001</ele>
        <time>2025-07-02T12:03:43Z</time>
      </trkpt>
      <trkpt lat="46.15998" lon="-1.26679">
        <ele>-0.60000000000002</ele>
        <time>2025-07-02T12:03:53Z</time>
      </trkpt>
      <trkpt lat="46.15995" lon="-1.26693">
        <ele>-0.39999999999998</ele>
        <time>2025-07-02T12:04:00Z</time>
      </trkpt>
      <trkpt lat="46.15994" lon="-1.26699">
        <ele>-0.39999999999998</ele>
        <time>2025-07-02T12:04:03Z</time>
      </trkpt>
      <trkpt lat="46.15991" lon="-1.26721">
        <ele>-0.60000000000002</ele>
        <time>2025-07-02T12:04:15Z</time>
      </trkpt>
      <trkpt lat="46.15988" lon="-1.26736">
        <ele>-0.19999999999999</ele>
        <time>2025-07-02T12:04:22Z</time>
      </trkpt>
      <trkpt lat="46.15988" lon="-1.2674">
        <ele>-0.19999999999999</ele>
        <time>2025-07-02T12:04:24Z</time>
      </trkpt>
      <trkpt lat="46.15988" lon="-1.26746">
        <ele>-0.19999999999999</ele>
        <time>2025-07-02T12:04:27Z</time>
      </trkpt>
      <trkpt lat="46.15986" lon="-1.26756">
        <ele>-0.19999999999999</ele>
        <time>2025-07-02T12:04:32Z</time>
      </trkpt>
      <trkpt lat="46.15982" lon="-1.26775">
        <ele>-0.80000000000001</ele>
        <time>2025-07-02T12:04:41Z</time>
      </trkpt>
      <trkpt lat="46.15982" lon="-1.26777">
        <ele>-0.60000000000002</ele>
        <time>2025-07-02T12:04:42Z</time>
      </trkpt>
      <trkpt lat="46.1598" lon="-1.26796">
        <ele>-0.39999999999998</ele>
        <time>2025-07-02T12:04:51Z</time>
      </trkpt>
      <trkpt lat="46.15978" lon="-1.26817">
        <ele>-0.60000000000002</ele>
        <time>2025-07-02T12:05:01Z</time>
      </trkpt>
      <trkpt lat="46.15977" lon="-1.26836">
        <ele>-0.60000000000002</ele>
        <time>2025-07-02T12:05:10Z</time>
      </trkpt>
      <trkpt lat="46.15977" lon="-1.2685">
        <ele>-0.80000000000001</ele>
        <time>2025-07-02T12:05:17Z</time>
      </trkpt>
      <trkpt lat="46.15975" lon="-1.26871">
        <ele>-0.60000000000002</ele>
        <time>2025-07-02T12:05:28Z</time>
      </trkpt>
      <trkpt lat="46.15974" lon="-1.26896">
        <ele>-0.39999999999998</ele>
        <time>2025-07-02T12:05:40Z</time>
      </trkpt>
      <trkpt lat="46.15973" lon="-1.269">
        <ele>-0.39999999999998</ele>
        <time>2025-07-02T12:05:42Z</time>
      </trkpt>
      <trkpt lat="46.15972" lon="-1.2692">
        <ele>-0.60000000000002</ele>
        <time>2025-07-02T12:05:52Z</time>
      </trkpt>
      <trkpt lat="46.15971" lon="-1.26944">
        <ele>-0.60000000000002</ele>
        <time>2025-07-02T12:06:02Z</time>
      </trkpt>
      <trkpt lat="46.1597" lon="-1.26961">
        <ele>-0.39999999999998</ele>
        <time>2025-07-02T12:06:11Z</time>
      </trkpt>
      <trkpt lat="46.15965" lon="-1.2698">
        <ele>-0.39999999999998</ele>
        <time>2025-07-02T12:06:21Z</time>
      </trkpt>
      <trkpt lat="46.15962" lon="-1.27002">
        <ele>-0.39999999999998</ele>
        <time>2025-07-02T12:06:32Z</time>
      </trkpt>
      <trkpt lat="46.15962" lon="-1.27005">
        <ele>-0.19999999999999</ele>
        <time>2025-07-02T12:06:33Z</time>
      </trkpt>
      <trkpt lat="46.15962" lon="-1.27027">
        <ele>-0.19999999999999</ele>
        <time>2025-07-02T12:06:44Z</time>
      </trkpt>
      <trkpt lat="46.15961" lon="-1.27039">
        <ele>0.19999999999999</ele>
        <time>2025-07-02T12:06:50Z</time>
      </trkpt>
      <trkpt lat="46.15961" lon="-1.27044">
        <ele>0.19999999999999</ele>
        <time>2025-07-02T12:06:52Z</time>
      </trkpt>
      <trkpt lat="46.1596" lon="-1.27065">
        <ele>0.19999999999999</ele>
        <time>2025-07-02T12:07:02Z</time>
      </trkpt>
      <trkpt lat="46.15961" lon="-1.27091">
        <ele>0.19999999999999</ele>
        <time>2025-07-02T12:07:15Z</time>
      </trkpt>
      <trkpt lat="46.15961" lon="-1.27095">
        <ele>0.19999999999999</ele>
        <time>2025-07-02T12:07:17Z</time>
      </trkpt>
      <trkpt lat="46.15964" lon="-1.27116">
        <ele>-0.39999999999998</ele>
        <time>2025-07-02T12:07:28Z</time>
      </trkpt>
      <trkpt lat="46.15965" lon="-1.27136">
        <ele>-0.39999999999998</ele>
        <time>2025-07-02T12:07:38Z</time>
      </trkpt>
      <trkpt lat="46.15965" lon="-1.27148">
        <ele>-0.39999999999998</ele>
        <time>2025-07-02T12:07:44Z</time>
      </trkpt>
      <trkpt lat="46.15966" lon="-1.27163">
        <ele>-0.19999999999999</ele>
        <time>2025-07-02T12:07:51Z</time>
      </trkpt>
      <trkpt lat="46.15966" lon="-1.27184">
        <ele>-0.39999999999998</ele>
        <time>2025-07-02T12:08:01Z</time>
      </trkpt>
      <trkpt lat="46.15965" lon="-1.272">
        <ele>-0.80000000000001</ele>
        <time>2025-07-02T12:08:08Z</time>
      </trkpt>
      <trkpt lat="46.15965" lon="-1.27213">
        <ele>-0.60000000000002</ele>
        <time>2025-07-02T12:08:15Z</time>
      </trkpt>
      <trkpt lat="46.15966" lon="-1.27234">
        <ele>-0.19999999999999</ele>
        <time>2025-07-02T12:08:25Z</time>
      </trkpt>
      <trkpt lat="46.15966" lon="-1.27253">
        <ele>-0.19999999999999</ele>
        <time>2025-07-02T12:08:34Z</time>
      </trkpt>
      <trkpt lat="46.15967" lon="-1.27272">
        <ele>-0.39999999999998</ele>
        <time>2025-07-02T12:08:43Z</time>
      </trkpt>
      <trkpt lat="46.15971" lon="-1.27293">
        <ele>-0.80000000000001</ele>
        <time>2025-07-02T12:08:53Z</time>
      </trkpt>
      <trkpt lat="46.15971" lon="-1.27295">
        <ele>-1</ele>
        <time>2025-07-02T12:08:54Z</time>
      </trkpt>
      <trkpt lat="46.15976" lon="-1.27322">
        <ele>-0.60000000000002</ele>
        <time>2025-07-02T12:09:07Z</time>
      </trkpt>
      <trkpt lat="46.15977" lon="-1.27325">
        <ele>-0.60000000000002</ele>
        <time>2025-07-02T12:09:09Z</time>
      </trkpt>
      <trkpt lat="46.15982" lon="-1.27343">
        <ele>-0.80000000000001</ele>
        <time>2025-07-02T12:09:19Z</time>
      </trkpt>
      <trkpt lat="46.15986" lon="-1.27362">
        <ele>-1</ele>
        <time>2025-07-02T12:09:29Z</time>
      </trkpt>
      <trkpt lat="46.15988" lon="-1.27366">
        <ele>-1.2</ele>
        <time>2025-07-02T12:09:31Z</time>
      </trkpt>
      <trkpt lat="46.15992" lon="-1.27379">
        <ele>-0.39999999999998</ele>
        <time>2025-07-02T12:09:39Z</time>
      </trkpt>
      <trkpt lat="46.15993" lon="-1.27386">
        <ele>-0.60000000000002</ele>
        <time>2025-07-02T12:09:42Z</time>
      </trkpt>
      <trkpt lat="46.15993" lon="-1.27393">
        <ele>-0.80000000000001</ele>
        <time>2025-07-02T12:09:45Z</time>
      </trkpt>
      <trkpt lat="46.15996" lon="-1.27401">
        <ele>-0.80000000000001</ele>
        <time>2025-07-02T12:09:49Z</time>
      </trkpt>
      <trkpt lat="46.16001" lon="-1.27412">
        <ele>-1.2</ele>
        <time>2025-07-02T12:09:56Z</time>
      </trkpt>
      <trkpt lat="46.16009" lon="-1.27428">
        <ele>-1.2</ele>
        <time>2025-07-02T12:10:05Z</time>
      </trkpt>
      <trkpt lat="46.16013" lon="-1.27441">
        <ele>-1.2</ele>
        <time>2025-07-02T12:10:12Z</time>
      </trkpt>
      <trkpt lat="46.1602" lon="-1.27459">
        <ele>-1</ele>
        <time>2025-07-02T12:10:22Z</time>
      </trkpt>
      <trkpt lat="46.1602" lon="-1.27461">
        <ele>-1</ele>
        <time>2025-07-02T12:10:23Z</time>
      </trkpt>
      <trkpt lat="46.16025" lon="-1.27471">
        <ele>-1.2</ele>
        <time>2025-07-02T12:10:29Z</time>
      </trkpt>
      <trkpt lat="46.16025" lon="-1.27473">
        <ele>-1.2</ele>
        <time>2025-07-02T12:10:30Z</time>
      </trkpt>
      <trkpt lat="46.16024" lon="-1.27487">
        <ele>-1</ele>
        <time>2025-07-02T12:10:38Z</time>
      </trkpt>
      <trkpt lat="46.16025" lon="-1.2749">
        <ele>-1</ele>
        <time>2025-07-02T12:10:40Z</time>
      </trkpt>
      <trkpt lat="46.16026" lon="-1.27491">
        <ele>-0.80000000000001</ele>
        <time>2025-07-02T12:10:41Z</time>
      </trkpt>
      <trkpt lat="46.16032" lon="-1.27497">
        <ele>-0.80000000000001</ele>
        <time>2025-07-02T12:10:46Z</time>
      </trkpt>
      <trkpt lat="46.16042" lon="-1.27505">
        <ele>-0.60000000000002</ele>
        <time>2025-07-02T12:10:54Z</time>
      </trkpt>
      <trkpt lat="46.16049" lon="-1.27518">
        <ele>-1</ele>
        <time>2025-07-02T12:11:03Z</time>
      </trkpt>
      <trkpt lat="46.1605" lon="-1.27521">
        <ele>-0.80000000000001</ele>
        <time>2025-07-02T12:11:05Z</time>
      </trkpt>
      <trkpt lat="46.16055" lon="-1.27532">
        <ele>-0.60000000000002</ele>
        <time>2025-07-02T12:11:11Z</time>
      </trkpt>
      <trkpt lat="46.16056" lon="-1.27533">
        <ele>-0.60000000000002</ele>
        <time>2025-07-02T12:11:12Z</time>
      </trkpt>
      <trkpt lat="46.16058" lon="-1.2754">
        <ele>-0.39999999999998</ele>
        <time>2025-07-02T12:11:16Z</time>
      </trkpt>
      <trkpt lat="46.16062" lon="-1.27554">
        <ele>-0.80000000000001</ele>
        <time>2025-07-02T12:11:24Z</time>
      </trkpt>
      <trkpt lat="46.16069" lon="-1.27569">
        <ele>-1</ele>
        <time>2025-07-02T12:11:33Z</time>
      </trkpt>
      <trkpt lat="46.16074" lon="-1.27582">
        <ele>-0.60000000000002</ele>
        <time>2025-07-02T12:11:40Z</time>
      </trkpt>
      <trkpt lat="46.16075" lon="-1.27584">
        <ele>-0.80000000000001</ele>
        <time>2025-07-02T12:11:41Z</time>
      </trkpt>
      <trkpt lat="46.16076" lon="-1.27588">
        <ele>-1</ele>
        <time>2025-07-02T12:11:44Z</time>
      </trkpt>
      <trkpt lat="46.16076" lon="-1.2759">
        <ele>-1.2</ele>
        <time>2025-07-02T12:11:46Z</time>
      </trkpt>
      <trkpt lat="46.16082" lon="-1.27605">
        <ele>-1.2</ele>
        <time>2025-07-02T12:11:52Z</time>
      </trkpt>
      <trkpt lat="46.16082" lon="-1.27607">
        <ele>-1.2</ele>
        <time>2025-07-02T12:11:53Z</time>
      </trkpt>
      <trkpt lat="46.16089" lon="-1.27619">
        <ele>-1</ele>
        <time>2025-07-02T12:12:01Z</time>
      </trkpt>
      <trkpt lat="46.16098" lon="-1.27635">
        <ele>-0.60000000000002</ele>
        <time>2025-07-02T12:12:12Z</time>
      </trkpt>
      <trkpt lat="46.16106" lon="-1.27648">
        <ele>-0.39999999999998</ele>
        <time>2025-07-02T12:12:21Z</time>
      </trkpt>
      <trkpt lat="46.16108" lon="-1.27654">
        <ele>-0.39999999999998</ele>
        <time>2025-07-02T12:12:24Z</time>
      </trkpt>
      <trkpt lat="46.16111" lon="-1.27658">
        <ele>-0.60000000000002</ele>
        <time>2025-07-02T12:12:27Z</time>
      </trkpt>
      <trkpt lat="46.16112" lon="-1.27659">
        <ele>-0.60000000000002</ele>
        <time>2025-07-02T12:12:28Z</time>
      </trkpt>
      <trkpt lat="46.16117" lon="-1.27667">
        <ele>-0.19999999999999</ele>
        <time>2025-07-02T12:12:34Z</time>
      </trkpt>
      <trkpt lat="46.16122" lon="-1.27679">
        <ele>0.19999999999999</ele>
        <time>2025-07-02T12:12:41Z</time>
      </trkpt>
      <trkpt lat="46.16124" lon="-1.27683">
        <ele>0.19999999999999</ele>
        <time>2025-07-02T12:12:43Z</time>
      </trkpt>
      <trkpt lat="46.16131" lon="-1.27691">
        <ele>0.60000000000002</ele>
        <time>2025-07-02T12:12:50Z</time>
      </trkpt>
      <trkpt lat="46.16135" lon="-1.27694">
        <ele>1</ele>
        <time>2025-07-02T12:12:53Z</time>
      </trkpt>
      <trkpt lat="46.16145" lon="-1.27697">
        <ele>0.60000000000002</ele>
        <time>2025-07-02T12:13:01Z</time>
      </trkpt>
      <trkpt lat="46.16156" lon="-1.27703">
        <ele>0.80000000000001</ele>
        <time>2025-07-02T12:13:11Z</time>
      </trkpt>
      <trkpt lat="46.16157" lon="-1.27704">
        <ele>1</ele>
        <time>2025-07-02T12:13:12Z</time>
      </trkpt>
      <trkpt lat="46.16158" lon="-1.27706">
        <ele>0.19999999999999</ele>
        <time>2025-07-02T12:13:17Z</time>
      </trkpt>
      <trkpt lat="46.1616" lon="-1.27704">
        <ele>0.19999999999999</ele>
        <time>2025-07-02T12:13:23Z</time>
      </trkpt>
      <trkpt lat="46.16159" lon="-1.27705">
        <ele>1</ele>
        <time>2025-07-02T12:13:28Z</time>
      </trkpt>
      <trkpt lat="46.16164" lon="-1.2771">
        <ele>0.19999999999999</ele>
        <time>2025-07-02T12:13:33Z</time>
      </trkpt>
      <trkpt lat="46.16174" lon="-1.27718">
        <ele>0.39999999999998</ele>
        <time>2025-07-02T12:13:41Z</time>
      </trkpt>
      <trkpt lat="46.16181" lon="-1.27725">
        <ele>-0.39999999999998</ele>
        <time>2025-07-02T12:13:48Z</time>
      </trkpt>
      <trkpt lat="46.16184" lon="-1.27728">
        <ele>-0.39999999999998</ele>
        <time>2025-07-02T12:13:51Z</time>
      </trkpt>
      <trkpt lat="46.16196" lon="-1.27738">
        <ele>-0.39999999999998</ele>
        <time>2025-07-02T12:14:01Z</time>
      </trkpt>
      <trkpt lat="46.16202" lon="-1.27745">
        <ele>-0.39999999999998</ele>
        <time>2025-07-02T12:14:07Z</time>
      </trkpt>
      <trkpt lat="46.16205" lon="-1.27749">
        <ele>-0.39999999999998</ele>
        <time>2025-07-02T12:14:10Z</time>
      </trkpt>
      <trkpt lat="46.16212" lon="-1.27757">
        <ele>-0.39999999999998</ele>
        <time>2025-07-02T12:14:16Z</time>
      </trkpt>
      <trkpt lat="46.16213" lon="-1.27758">
        <ele>-0.39999999999998</ele>
        <time>2025-07-02T12:14:17Z</time>
      </trkpt>
      <trkpt lat="46.1622" lon="-1.27768">
        <ele>-0.39999999999998</ele>
        <time>2025-07-02T12:14:24Z</time>
      </trkpt>
      <trkpt lat="46.16228" lon="-1.27782">
        <ele>-0.39999999999998</ele>
        <time>2025-07-02T12:14:33Z</time>
      </trkpt>
      <trkpt lat="46.16239" lon="-1.27794">
        <ele>-0.39999999999998</ele>
        <time>2025-07-02T12:14:42Z</time>
      </trkpt>
      <trkpt lat="46.16247" lon="-1.27804">
        <ele>-0.39999999999998</ele>
        <time>2025-07-02T12:14:50Z</time>
      </trkpt>
      <trkpt lat="46.16258" lon="-1.27819">
        <ele>-0.19999999999999</ele>
        <time>2025-07-02T12:15:01Z</time>
      </trkpt>
      <trkpt lat="46.1627" lon="-1.27834">
        <ele>-0.39999999999998</ele>
        <time>2025-07-02T12:15:12Z</time>
      </trkpt>
      <trkpt lat="46.16278" lon="-1.27853">
        <ele>-0.60000000000002</ele>
        <time>2025-07-02T12:15:23Z</time>
      </trkpt>
      <trkpt lat="46.16283" lon="-1.27863">
        <ele>-0.60000000000002</ele>
        <time>2025-07-02T12:15:29Z</time>
      </trkpt>
      <trkpt lat="46.16291" lon="-1.27877">
        <ele>-0.19999999999999</ele>
        <time>2025-07-02T12:15:38Z</time>
      </trkpt>
      <trkpt lat="46.16295" lon="-1.27888">
        <ele>-0.19999999999999</ele>
        <time>2025-07-02T12:15:44Z</time>
      </trkpt>
      <trkpt lat="46.16297" lon="-1.27893">
        <ele>-0.19999999999999</ele>
        <time>2025-07-02T12:15:47Z</time>
      </trkpt>
      <trkpt lat="46.16302" lon="-1.27906">
        <ele>-0.19999999999999</ele>
        <time>2025-07-02T12:15:54Z</time>
      </trkpt>
      <trkpt lat="46.16306" lon="-1.27914">
        <ele>-0.19999999999999</ele>
        <time>2025-07-02T12:16:00Z</time>
      </trkpt>
      <trkpt lat="46.16306" lon="-1.27915">
        <ele>-0.19999999999999</ele>
        <time>2025-07-02T12:16:01Z</time>
      </trkpt>
      <trkpt lat="46.16305" lon="-1.27916">
        <ele>-0.80000000000001</ele>
        <time>2025-07-02T12:16:06Z</time>
      </trkpt>
      <trkpt lat="46.16306" lon="-1.27916">
        <ele>-0.80000000000001</ele>
        <time>2025-07-02T12:16:07Z</time>
      </trkpt>
      <trkpt lat="46.16311" lon="-1.27924">
        <ele>-0.60000000000002</ele>
        <time>2025-07-02T12:16:14Z</time>
      </trkpt>
      <trkpt lat="46.16313" lon="-1.27926">
        <ele>-0.80000000000001</ele>
        <time>2025-07-02T12:16:16Z</time>
      </trkpt>
      <trkpt lat="46.16318" lon="-1.27933">
        <ele>-1</ele>
        <time>2025-07-02T12:16:21Z</time>
      </trkpt>
      <trkpt lat="46.16318" lon="-1.27935">
        <ele>-1</ele>
        <time>2025-07-02T12:16:22Z</time>
      </trkpt>
      <trkpt lat="46.16321" lon="-1.27941">
        <ele>-0.60000000000002</ele>
        <time>2025-07-02T12:16:26Z</time>
      </trkpt>
      <trkpt lat="46.16331" lon="-1.27956">
        <ele>-1</ele>
        <time>2025-07-02T12:16:35Z</time>
      </trkpt>
      <trkpt lat="46.16332" lon="-1.27957">
        <ele>-1</ele>
        <time>2025-07-02T12:16:36Z</time>
      </trkpt>
      <trkpt lat="46.16338" lon="-1.27971">
        <ele>-1.2</ele>
        <time>2025-07-02T12:16:44Z</time>
      </trkpt>
      <trkpt lat="46.1634" lon="-1.27973">
        <ele>-1</ele>
        <time>2025-07-02T12:16:46Z</time>
      </trkpt>
      <trkpt lat="46.16343" lon="-1.2798">
        <ele>-0.80000000000001</ele>
        <time>2025-07-02T12:16:50Z</time>
      </trkpt>
      <trkpt lat="46.16351" lon="-1.2799">
        <ele>-0.80000000000001</ele>
        <time>2025-07-02T12:16:58Z</time>
      </trkpt>
      <trkpt lat="46.16358" lon="-1.28006">
        <ele>-1</ele>
        <time>2025-07-02T12:17:07Z</time>
      </trkpt>
      <trkpt lat="46.1637" lon="-1.28019">
        <ele>-1.2</ele>
        <time>2025-07-02T12:17:17Z</time>
      </trkpt>
      <trkpt lat="46.16378" lon="-1.28034">
        <ele>-1.2</ele>
        <time>2025-07-02T12:17:26Z</time>
      </trkpt>
      <trkpt lat="46.16379" lon="-1.28035">
        <ele>-1.2</ele>
        <time>2025-07-02T12:17:27Z</time>
      </trkpt>
      <trkpt lat="46.1638" lon="-1.2804">
        <ele>-1</ele>
        <time>2025-07-02T12:17:30Z</time>
      </trkpt>
      <trkpt lat="46.1638" lon="-1.28047">
        <ele>-0.80000000000001</ele>
        <time>2025-07-02T12:17:34Z</time>
      </trkpt>
      <trkpt lat="46.16381" lon="-1.28048">
        <ele>-0.80000000000001</ele>
        <time>2025-07-02T12:17:35Z</time>
      </trkpt>
      <trkpt lat="46.16384" lon="-1.28053">
        <ele>-1.2</ele>
        <time>2025-07-02T12:17:38Z</time>
      </trkpt>
      <trkpt lat="46.16388" lon="-1.28058">
        <ele>-1.4</ele>
        <time>2025-07-02T12:17:42Z</time>
      </trkpt>
      <trkpt lat="46.16389" lon="-1.2806">
        <ele>-1.6</ele>
        <time>2025-07-02T12:17:43Z</time>
      </trkpt>
      <trkpt lat="46.16394" lon="-1.2807">
        <ele>-1.6</ele>
        <time>2025-07-02T12:17:50Z</time>
      </trkpt>
      <trkpt lat="46.16399" lon="-1.2808">
        <ele>-1.6</ele>
        <time>2025-07-02T12:17:56Z</time>
      </trkpt>
      <trkpt lat="46.16401" lon="-1.28083">
        <ele>-1.6</ele>
        <time>2025-07-02T12:17:58Z</time>
      </trkpt>
      <trkpt lat="46.16405" lon="-1.28089">
        <ele>-1.8</ele>
        <time>2025-07-02T12:18:02Z</time>
      </trkpt>
      <trkpt lat="46.16409" lon="-1.28092">
        <ele>-2</ele>
        <time>2025-07-02T12:18:05Z</time>
      </trkpt>
      <trkpt lat="46.16409" lon="-1.28093">
        <ele>-2</ele>
        <time>2025-07-02T12:18:06Z</time>
      </trkpt>
      <trkpt lat="46.1642" lon="-1.28106">
        <ele>-2</ele>
        <time>2025-07-02T12:18:16Z</time>
      </trkpt>
      <trkpt lat="46.16434" lon="-1.28124">
        <ele>-1.6</ele>
        <time>2025-07-02T12:18:29Z</time>
      </trkpt>
      <trkpt lat="46.16439" lon="-1.28132">
        <ele>-1.8</ele>
        <time>2025-07-02T12:18:34Z</time>
      </trkpt>
      <trkpt lat="46.16442" lon="-1.28138">
        <ele>-1.4</ele>
        <time>2025-07-02T12:18:38Z</time>
      </trkpt>
      <trkpt lat="46.1645" lon="-1.28148">
        <ele>-1.8</ele>
        <time>2025-07-02T12:18:46Z</time>
      </trkpt>
      <trkpt lat="46.16455" lon="-1.28157">
        <ele>-1.8</ele>
        <time>2025-07-02T12:18:53Z</time>
      </trkpt>
      <trkpt lat="46.16454" lon="-1.28165">
        <ele>-0.80000000000001</ele>
        <time>2025-07-02T12:18:58Z</time>
      </trkpt>
      <trkpt lat="46.16451" lon="-1.28166">
        <ele>-0.80000000000001</ele>
        <time>2025-07-02T12:19:00Z</time>
      </trkpt>
      <trkpt lat="46.16441" lon="-1.28159">
        <ele>-0.80000000000001</ele>
        <time>2025-07-02T12:19:09Z</time>
      </trkpt>
      <trkpt lat="46.16434" lon="-1.28155">
        <ele>-1</ele>
        <time>2025-07-02T12:19:14Z</time>
      </trkpt>
      <trkpt lat="46.16432" lon="-1.28153">
        <ele>-1</ele>
        <time>2025-07-02T12:19:16Z</time>
      </trkpt>
      <trkpt lat="46.16426" lon="-1.28147">
        <ele>-1.2</ele>
        <time>2025-07-02T12:19:21Z</time>
      </trkpt>
      <trkpt lat="46.16421" lon="-1.28142">
        <ele>-1.2</ele>
        <time>2025-07-02T12:19:26Z</time>
      </trkpt>
      <trkpt lat="46.16412" lon="-1.28134">
        <ele>-1.2</ele>
        <time>2025-07-02T12:19:34Z</time>
      </trkpt>
      <trkpt lat="46.16404" lon="-1.28126">
        <ele>-1.2</ele>
        <time>2025-07-02T12:19:41Z</time>
      </trkpt>
      <trkpt lat="46.16395" lon="-1.28114">
        <ele>-1.4</ele>
        <time>2025-07-02T12:19:50Z</time>
      </trkpt>
      <trkpt lat="46.16387" lon="-1.28107">
        <ele>-1.2</ele>
        <time>2025-07-02T12:19:58Z</time>
      </trkpt>
      <trkpt lat="46.16384" lon="-1.281">
        <ele>-1.4</ele>
        <time>2025-07-02T12:20:02Z</time>
      </trkpt>
      <trkpt lat="46.16382" lon="-1.28097">
        <ele>-1.4</ele>
        <time>2025-07-02T12:20:04Z</time>
      </trkpt>
      <trkpt lat="46.16377" lon="-1.28094">
        <ele>-0.80000000000001</ele>
        <time>2025-07-02T12:20:08Z</time>
      </trkpt>
    </trkseg>
  </trk>
</gpx>